<?xml version='1.0' encoding='UTF-8'?><gpx version="1.1" creator="JPX - https://github.com/jenetics/jpx" xmlns="http://www.topografix.com/GPX/1/1"><trk><trkseg><trkpt lat="47.2466692328893" lon="-1.5688828937723942"><ele>28.999999999999996</ele><time>2026-03-31T15:28:25.072Z</time></trkpt><trkpt lat="47.2467601346292" lon="-1.5688610170051165"><ele>29.0</ele><time>2026-03-31T15:28:28.055Z</time></trkpt><trkpt lat="47.24683003970165" lon="-1.5688667166992731"><ele>29.0</ele><time>2026-03-31T15:28:30.062Z</time></trkpt><trkpt lat="47.246905560649225" lon="-1.568873506040842"><ele>29.0</ele><time>2026-03-31T15:28:32.062Z</time></trkpt><trkpt lat="47.2469882062145" lon="-1.5688433311894245"><ele>28.999999999999996</ele><time>2026-03-31T15:28:35.101Z</time></trkpt><trkpt lat="47.247032085477606" lon="-1.5687336958959406"><ele>29.0</ele><time>2026-03-31T15:28:38.07Z</time></trkpt><trkpt lat="47.24704700526525" lon="-1.568613415585429"><ele>28.799999999999997</ele><time>2026-03-31T15:28:40.066Z</time></trkpt><trkpt lat="47.24703103773971" lon="-1.5684841666385236"><ele>28.599999999999998</ele><time>2026-03-31T15:28:41.068Z</time></trkpt><trkpt lat="47.24704935219814" lon="-1.5683519002064767"><ele>28.4</ele><time>2026-03-31T15:28:43.057Z</time></trkpt><trkpt lat="47.24704755210469" lon="-1.568168346654357"><ele>28.2</ele><time>2026-03-31T15:28:45.08Z</time></trkpt><trkpt lat="47.24705892666619" lon="-1.5680736957734605"><ele>28.0</ele><time>2026-03-31T15:28:46.081Z</time></trkpt><trkpt lat="47.24712541796942" lon="-1.5679295361056624"><ele>28.000000000000004</ele><time>2026-03-31T15:28:48.08Z</time></trkpt><trkpt lat="47.24715597000648" lon="-1.5678079146906434"><ele>28.0</ele><time>2026-03-31T15:28:51.059Z</time></trkpt><trkpt lat="47.247189832895295" lon="-1.5677120257183608"><ele>28.0</ele><time>2026-03-31T15:28:53.052Z</time></trkpt><trkpt lat="47.247240627228514" lon="-1.5676217526212033"><ele>28.0</ele><time>2026-03-31T15:28:56.052Z</time></trkpt><trkpt lat="47.24727034107526" lon="-1.5674961917116934"><ele>28.000000000000004</ele><time>2026-03-31T15:28:59.055Z</time></trkpt><trkpt lat="47.24734640684654" lon="-1.5674997121110255"><ele>28.0</ele><time>2026-03-31T15:29:01.058Z</time></trkpt><trkpt lat="47.24741107322951" lon="-1.5675472375020083"><ele>28.0</ele><time>2026-03-31T15:29:03.066Z</time></trkpt><trkpt lat="47.24749200050463" lon="-1.5676304698005017"><ele>27.999999999999996</ele><time>2026-03-31T15:29:05.06Z</time></trkpt><trkpt lat="47.24756957501848" lon="-1.5677162166699465"><ele>27.999999999999996</ele><time>2026-03-31T15:29:07.06Z</time></trkpt><trkpt lat="47.247655740983085" lon="-1.5677879657610951"><ele>28.0</ele><time>2026-03-31T15:29:09.056Z</time></trkpt><trkpt lat="47.247746894180075" lon="-1.567856026814848"><ele>28.0</ele><time>2026-03-31T15:29:11.061Z</time></trkpt><trkpt lat="47.24782656416972" lon="-1.5679259318872987"><ele>28.4</ele><time>2026-03-31T15:29:13.054Z</time></trkpt><trkpt lat="47.24794009704818" lon="-1.567976474763423"><ele>28.799999999999997</ele><time>2026-03-31T15:29:15.052Z</time></trkpt><trkpt lat="47.248040596067206" lon="-1.5680258441731036"><ele>29.2</ele><time>2026-03-31T15:29:17.056Z</time></trkpt><trkpt lat="47.248147088147" lon="-1.5680720284595788"><ele>29.6</ele><time>2026-03-31T15:29:19.057Z</time></trkpt><trkpt lat="47.24823744506319" lon="-1.5681286901250184"><ele>30.0</ele><time>2026-03-31T15:29:21.058Z</time></trkpt><trkpt lat="47.24834096156736" lon="-1.5681687556221784"><ele>30.4</ele><time>2026-03-31T15:29:23.057Z</time></trkpt><trkpt lat="47.24845265042712" lon="-1.5681928955033124"><ele>30.8</ele><time>2026-03-31T15:29:25.06Z</time></trkpt><trkpt lat="47.24856685385783" lon="-1.56822600402084"><ele>31.200000000000003</ele><time>2026-03-31T15:29:27.061Z</time></trkpt><trkpt lat="47.248671418099896" lon="-1.5682612080141605"><ele>31.6</ele><time>2026-03-31T15:29:29.057Z</time></trkpt><trkpt lat="47.2487343242832" lon="-1.5682757087066475"><ele>32.0</ele><time>2026-03-31T15:29:30.065Z</time></trkpt><trkpt lat="47.24884198982944" lon="-1.5683147683754268"><ele>32.0</ele><time>2026-03-31T15:29:32.054Z</time></trkpt><trkpt lat="47.24895682190289" lon="-1.568355923519999"><ele>32.0</ele><time>2026-03-31T15:29:34.051Z</time></trkpt><trkpt lat="47.249053968160645" lon="-1.5683791413917842"><ele>32.0</ele><time>2026-03-31T15:29:36.06Z</time></trkpt><trkpt lat="47.24915547300805" lon="-1.5683954861029687"><ele>32.0</ele><time>2026-03-31T15:29:38.07Z</time></trkpt><trkpt lat="47.249249140775994" lon="-1.568432785572082"><ele>32.0</ele><time>2026-03-31T15:29:40.06Z</time></trkpt><trkpt lat="47.24935336974193" lon="-1.5684540756061378"><ele>32.800000000000004</ele><time>2026-03-31T15:29:42.07Z</time></trkpt><trkpt lat="47.24943505138834" lon="-1.5684811491533819"><ele>33.6</ele><time>2026-03-31T15:29:44.056Z</time></trkpt><trkpt lat="47.24954078909685" lon="-1.5685039479300087"><ele>34.400000000000006</ele><time>2026-03-31T15:29:46.056Z</time></trkpt><trkpt lat="47.24966098558833" lon="-1.568507384510309"><ele>35.2</ele><time>2026-03-31T15:29:48.061Z</time></trkpt><trkpt lat="47.24974635527213" lon="-1.5685299318298405"><ele>36.0</ele><time>2026-03-31T15:29:50.063Z</time></trkpt><trkpt lat="47.2498237202384" lon="-1.5685258246972864"><ele>36.4</ele><time>2026-03-31T15:29:51.057Z</time></trkpt><trkpt lat="47.24990447987546" lon="-1.5685333684101408"><ele>36.8</ele><time>2026-03-31T15:29:53.058Z</time></trkpt><trkpt lat="47.24998511378397" lon="-1.5685399901136463"><ele>37.199999999999996</ele><time>2026-03-31T15:29:55.056Z</time></trkpt><trkpt lat="47.25005309101869" lon="-1.5685420017704075"><ele>37.6</ele><time>2026-03-31T15:29:57.057Z</time></trkpt><trkpt lat="47.25015208129515" lon="-1.5685663931086367"><ele>38.0</ele><time>2026-03-31T15:29:59.056Z</time></trkpt><trkpt lat="47.250330993018345" lon="-1.568494392560393"><ele>38.0</ele><time>2026-03-31T15:30:04.061Z</time></trkpt><trkpt lat="47.25039419256826" lon="-1.5684684086605611"><ele>38.0</ele><time>2026-03-31T15:30:06.062Z</time></trkpt><trkpt lat="47.25045609292318" lon="-1.568434294314653"><ele>38.0</ele><time>2026-03-31T15:30:08.06Z</time></trkpt><trkpt lat="47.250521513677434" lon="-1.5684159379467073"><ele>38.0</ele><time>2026-03-31T15:30:09.059Z</time></trkpt><trkpt lat="47.250599213919834" lon="-1.5683515649303499"><ele>38.0</ele><time>2026-03-31T15:30:11.058Z</time></trkpt><trkpt lat="47.2506900318407" lon="-1.568279396744043"><ele>38.0</ele><time>2026-03-31T15:30:13.058Z</time></trkpt><trkpt lat="47.25078478925605" lon="-1.5682287700488866"><ele>37.8</ele><time>2026-03-31T15:30:15.057Z</time></trkpt><trkpt lat="47.25085959774186" lon="-1.5681595355286897"><ele>37.599999999999994</ele><time>2026-03-31T15:30:17.058Z</time></trkpt><trkpt lat="47.25092786834319" lon="-1.568114357070595"><ele>37.400000000000006</ele><time>2026-03-31T15:30:18.055Z</time></trkpt><trkpt lat="47.251027277714805" lon="-1.568059036509663"><ele>37.2</ele><time>2026-03-31T15:30:20.059Z</time></trkpt><trkpt lat="47.25111675453116" lon="-1.5679659973844586"><ele>37.0</ele><time>2026-03-31T15:30:22.063Z</time></trkpt><trkpt lat="47.25120396823366" lon="-1.5678471419974862"><ele>37.5</ele><time>2026-03-31T15:30:24.061Z</time></trkpt><trkpt lat="47.25126012698491" lon="-1.5678049810245334"><ele>38.0</ele><time>2026-03-31T15:30:25.059Z</time></trkpt><trkpt lat="47.251307820013956" lon="-1.5677380096181925"><ele>38.5</ele><time>2026-03-31T15:30:26.059Z</time></trkpt><trkpt lat="47.25137219303031" lon="-1.5676641650512513"><ele>39.0</ele><time>2026-03-31T15:30:27.061Z</time></trkpt><trkpt lat="47.2514369013228" lon="-1.56752192415443"><ele>39.5</ele><time>2026-03-31T15:30:29.059Z</time></trkpt><trkpt lat="47.25148220550944" lon="-1.567395273597508"><ele>40.0</ele><time>2026-03-31T15:30:31.064Z</time></trkpt><trkpt lat="47.25152801261027" lon="-1.5672135539367489"><ele>39.0</ele><time>2026-03-31T15:30:33.059Z</time></trkpt><trkpt lat="47.2515309881859" lon="-1.5670408029123832"><ele>38.0</ele><time>2026-03-31T15:30:35.059Z</time></trkpt><trkpt lat="47.251544483050004" lon="-1.566933346913724"><ele>37.0</ele><time>2026-03-31T15:30:36.056Z</time></trkpt><trkpt lat="47.2515532002293" lon="-1.5668377093985368"><ele>36.0</ele><time>2026-03-31T15:30:37.057Z</time></trkpt><trkpt lat="47.25161656741728" lon="-1.5666692331447887"><ele>35.0</ele><time>2026-03-31T15:30:39.062Z</time></trkpt><trkpt lat="47.25163898900826" lon="-1.5664784610286042"><ele>35.0</ele><time>2026-03-31T15:30:41.062Z</time></trkpt><trkpt lat="47.251642425588564" lon="-1.5663762018099114"><ele>35.0</ele><time>2026-03-31T15:30:42.059Z</time></trkpt><trkpt lat="47.251652944877044" lon="-1.566268494354157"><ele>35.0</ele><time>2026-03-31T15:30:43.06Z</time></trkpt><trkpt lat="47.25166866094549" lon="-1.5661579370513243"><ele>35.0</ele><time>2026-03-31T15:30:44.058Z</time></trkpt><trkpt lat="47.251639282374875" lon="-1.566063137726454"><ele>35.0</ele><time>2026-03-31T15:30:45.054Z</time></trkpt><trkpt lat="47.25163102620025" lon="-1.5659484732910673"><ele>35.0</ele><time>2026-03-31T15:30:46.059Z</time></trkpt><trkpt lat="47.25168680776586" lon="-1.565782427789239"><ele>34.6</ele><time>2026-03-31T15:30:48.065Z</time></trkpt><trkpt lat="47.25168689158489" lon="-1.5656791627421656"><ele>34.2</ele><time>2026-03-31T15:30:49.062Z</time></trkpt><trkpt lat="47.25169049580325" lon="-1.5655008796617067"><ele>33.8</ele><time>2026-03-31T15:30:51.058Z</time></trkpt><trkpt lat="47.25170399066736" lon="-1.5653877239688907"><ele>33.4</ele><time>2026-03-31T15:30:52.055Z</time></trkpt><trkpt lat="47.25171379749407" lon="-1.5652809385224853"><ele>33.0</ele><time>2026-03-31T15:30:53.056Z</time></trkpt><trkpt lat="47.2517321119525" lon="-1.5650905855014594"><ele>32.666666666666664</ele><time>2026-03-31T15:30:55.059Z</time></trkpt><trkpt lat="47.251751683696405" lon="-1.564995283262399"><ele>32.333333333333336</ele><time>2026-03-31T15:30:56.054Z</time></trkpt><trkpt lat="47.25176404700358" lon="-1.5648963768049746"><ele>32.0</ele><time>2026-03-31T15:30:57.061Z</time></trkpt><trkpt lat="47.251789318441645" lon="-1.5647859033211737"><ele>31.666666666666668</ele><time>2026-03-31T15:30:58.057Z</time></trkpt><trkpt lat="47.251816727265016" lon="-1.564657660202649"><ele>31.333333333333336</ele><time>2026-03-31T15:30:59.055Z</time></trkpt><trkpt lat="47.251829174391226" lon="-1.5645579993739394"><ele>31.0</ele><time>2026-03-31T15:31:00.058Z</time></trkpt><trkpt lat="47.25184028041293" lon="-1.5644439216717745"><ele>30.333333333333336</ele><time>2026-03-31T15:31:01.06Z</time></trkpt><trkpt lat="47.2518494585969" lon="-1.5643263235702778"><ele>29.666666666666668</ele><time>2026-03-31T15:31:02.06Z</time></trkpt><trkpt lat="47.25184610583563" lon="-1.5642295125886465"><ele>29.0</ele><time>2026-03-31T15:31:03.061Z</time></trkpt><trkpt lat="47.25185226653446" lon="-1.5641281753793024"><ele>28.333333333333336</ele><time>2026-03-31T15:31:04.058Z</time></trkpt><trkpt lat="47.25185318854381" lon="-1.5640143491342329"><ele>27.666666666666668</ele><time>2026-03-31T15:31:05.073Z</time></trkpt><trkpt lat="47.25186395928939" lon="-1.5639218967422506"><ele>27.0</ele><time>2026-03-31T15:31:06.064Z</time></trkpt><trkpt lat="47.25188902117987" lon="-1.5637519117459318"><ele>27.166666666666668</ele><time>2026-03-31T15:31:08.064Z</time></trkpt><trkpt lat="47.25197925236751" lon="-1.563621573151614"><ele>27.333333333333336</ele><time>2026-03-31T15:31:10.058Z</time></trkpt><trkpt lat="47.2520273225822" lon="-1.5635515004411"><ele>27.5</ele><time>2026-03-31T15:31:11.062Z</time></trkpt><trkpt lat="47.25207761400123" lon="-1.5634580422207371"><ele>27.666666666666668</ele><time>2026-03-31T15:31:12.063Z</time></trkpt><trkpt lat="47.2521171765842" lon="-1.5633795037880198"><ele>27.833333333333336</ele><time>2026-03-31T15:31:13.059Z</time></trkpt><trkpt lat="47.25215053655882" lon="-1.563281938435103"><ele>28.0</ele><time>2026-03-31T15:31:14.059Z</time></trkpt><trkpt lat="47.2522017499872" lon="-1.5630991291269316"><ele>28.000000000000004</ele><time>2026-03-31T15:31:16.056Z</time></trkpt><trkpt lat="47.252246928445295" lon="-1.5630104485913765"><ele>28.0</ele><time>2026-03-31T15:31:17.055Z</time></trkpt><trkpt lat="47.25229931534012" lon="-1.5628654416665089"><ele>28.0</ele><time>2026-03-31T15:31:19.056Z</time></trkpt><trkpt lat="47.25233267531474" lon="-1.5627796109780323"><ele>28.0</ele><time>2026-03-31T15:31:20.054Z</time></trkpt><trkpt lat="47.25238053598185" lon="-1.5626917686327944"><ele>28.000000000000004</ele><time>2026-03-31T15:31:21.062Z</time></trkpt><trkpt lat="47.25242039193143" lon="-1.5625905152424822"><ele>28.0</ele><time>2026-03-31T15:31:22.058Z</time></trkpt><trkpt lat="47.25246225953777" lon="-1.5624969732030876"><ele>27.857142857142858</ele><time>2026-03-31T15:31:23.054Z</time></trkpt><trkpt lat="47.25249909800221" lon="-1.5624080412104375"><ele>27.714285714285715</ele><time>2026-03-31T15:31:24.054Z</time></trkpt><trkpt lat="47.25252449516882" lon="-1.5623144153520114"><ele>27.57142857142857</ele><time>2026-03-31T15:31:25.057Z</time></trkpt><trkpt lat="47.2525582742386" lon="-1.5622244775309806"><ele>27.42857142857143</ele><time>2026-03-31T15:31:26.059Z</time></trkpt><trkpt lat="47.25258145020087" lon="-1.5621319413199668"><ele>27.285714285714285</ele><time>2026-03-31T15:31:27.063Z</time></trkpt><trkpt lat="47.252627844034926" lon="-1.5620467811837437"><ele>27.142857142857142</ele><time>2026-03-31T15:31:28.067Z</time></trkpt><trkpt lat="47.25267222621222" lon="-1.56195424497273"><ele>27.0</ele><time>2026-03-31T15:31:29.057Z</time></trkpt><trkpt lat="47.25270663392474" lon="-1.561872353778744"><ele>27.0</ele><time>2026-03-31T15:31:30.056Z</time></trkpt><trkpt lat="47.25275642242958" lon="-1.561701446773076"><ele>27.0</ele><time>2026-03-31T15:31:32.053Z</time></trkpt><trkpt lat="47.25278823175211" lon="-1.5616071503623963"><ele>27.0</ele><time>2026-03-31T15:31:33.056Z</time></trkpt><trkpt lat="47.2528243996643" lon="-1.5615097526475428"><ele>27.0</ele><time>2026-03-31T15:31:34.052Z</time></trkpt><trkpt lat="47.252853778234915" lon="-1.5614235866829393"><ele>27.0</ele><time>2026-03-31T15:31:35.054Z</time></trkpt><trkpt lat="47.252920456274644" lon="-1.5612944215550657"><ele>27.0</ele><time>2026-03-31T15:31:37.057Z</time></trkpt><trkpt lat="47.252938058271305" lon="-1.5611907374128338"><ele>26.8</ele><time>2026-03-31T15:31:38.057Z</time></trkpt><trkpt lat="47.2529642098092" lon="-1.561099877582454"><ele>26.6</ele><time>2026-03-31T15:31:39.082Z</time></trkpt><trkpt lat="47.25302338604559" lon="-1.5609779208913082"><ele>26.400000000000002</ele><time>2026-03-31T15:31:41.059Z</time></trkpt><trkpt lat="47.25305729084392" lon="-1.560891084374451"><ele>26.200000000000003</ele><time>2026-03-31T15:31:42.063Z</time></trkpt><trkpt lat="47.25311018065293" lon="-1.5607198420926562"><ele>26.0</ele><time>2026-03-31T15:31:44.062Z</time></trkpt><trkpt lat="47.2531230468743" lon="-1.56058321707096"><ele>25.6</ele><time>2026-03-31T15:31:46.058Z</time></trkpt><trkpt lat="47.25314513318916" lon="-1.5604290738716353"><ele>25.200000000000003</ele><time>2026-03-31T15:31:48.063Z</time></trkpt><trkpt lat="47.2531626932763" lon="-1.560283899308704"><ele>24.799999999999997</ele><time>2026-03-31T15:31:50.058Z</time></trkpt><trkpt lat="47.253147689669625" lon="-1.5600947197541222"><ele>24.4</ele><time>2026-03-31T15:31:52.057Z</time></trkpt><trkpt lat="47.25314957559784" lon="-1.5599998366102203"><ele>24.0</ele><time>2026-03-31T15:31:53.069Z</time></trkpt><trkpt lat="47.253146683841244" lon="-1.5598438493921978"><ele>24.0</ele><time>2026-03-31T15:31:55.056Z</time></trkpt><trkpt lat="47.253146180927054" lon="-1.559662297369502"><ele>24.0</ele><time>2026-03-31T15:31:57.065Z</time></trkpt><trkpt lat="47.253150329969124" lon="-1.5594693459584932"><ele>24.0</ele><time>2026-03-31T15:31:59.06Z</time></trkpt><trkpt lat="47.253153137906686" lon="-1.5593751333668449"><ele>24.0</ele><time>2026-03-31T15:32:00.058Z</time></trkpt><trkpt lat="47.25314463027497" lon="-1.5592791605755307"><ele>24.0</ele><time>2026-03-31T15:32:01.058Z</time></trkpt><trkpt lat="47.253141528970794" lon="-1.5591787453755355"><ele>24.0</ele><time>2026-03-31T15:32:02.055Z</time></trkpt><trkpt lat="47.25312266968866" lon="-1.559011023493073"><ele>24.0</ele><time>2026-03-31T15:32:04.059Z</time></trkpt><trkpt lat="47.25309220147063" lon="-1.5588364284500096"><ele>24.0</ele><time>2026-03-31T15:32:06.058Z</time></trkpt><trkpt lat="47.25307137244125" lon="-1.5586732327952595"><ele>24.0</ele><time>2026-03-31T15:32:08.058Z</time></trkpt><trkpt lat="47.25305720702489" lon="-1.5585814509555311"><ele>24.0</ele><time>2026-03-31T15:32:09.06Z</time></trkpt><trkpt lat="47.25303746764292" lon="-1.5583903435632198"><ele>24.2</ele><time>2026-03-31T15:32:11.059Z</time></trkpt><trkpt lat="47.25302225448866" lon="-1.5582364518209901"><ele>24.4</ele><time>2026-03-31T15:32:13.052Z</time></trkpt><trkpt lat="47.253006035506026" lon="-1.5581300016507116"><ele>24.6</ele><time>2026-03-31T15:32:14.063Z</time></trkpt><trkpt lat="47.253012531480984" lon="-1.5580210369094816"><ele>24.8</ele><time>2026-03-31T15:32:15.065Z</time></trkpt><trkpt lat="47.252958091019885" lon="-1.557865636424681"><ele>25.0</ele><time>2026-03-31T15:32:17.058Z</time></trkpt><trkpt lat="47.252953522882656" lon="-1.5577087271973096"><ele>25.2</ele><time>2026-03-31T15:32:19.056Z</time></trkpt><trkpt lat="47.25292607214977" lon="-1.557567240671774"><ele>25.4</ele><time>2026-03-31T15:32:21.058Z</time></trkpt><trkpt lat="47.25289023951371" lon="-1.5573775582030018"><ele>25.6</ele><time>2026-03-31T15:32:23.068Z</time></trkpt><trkpt lat="47.252866225361124" lon="-1.5572604630156952"><ele>25.8</ele><time>2026-03-31T15:32:24.064Z</time></trkpt><trkpt lat="47.25285264667799" lon="-1.5570814255639511"><ele>26.0</ele><time>2026-03-31T15:32:26.058Z</time></trkpt><trkpt lat="47.252818364694015" lon="-1.5569220017656282"><ele>25.999999999999996</ele><time>2026-03-31T15:32:28.062Z</time></trkpt><trkpt lat="47.25278068803926" lon="-1.5567586384728147"><ele>26.0</ele><time>2026-03-31T15:32:30.057Z</time></trkpt><trkpt lat="47.252760990566806" lon="-1.556664928795357"><ele>26.0</ele><time>2026-03-31T15:32:31.056Z</time></trkpt><trkpt lat="47.25275042936881" lon="-1.5565727278604697"><ele>26.0</ele><time>2026-03-31T15:32:32.059Z</time></trkpt><trkpt lat="47.25273416847666" lon="-1.5564758330598067"><ele>25.999999999999996</ele><time>2026-03-31T15:32:33.058Z</time></trkpt><trkpt lat="47.2527070530199" lon="-1.5563005674644896"><ele>26.0</ele><time>2026-03-31T15:32:35.063Z</time></trkpt><trkpt lat="47.25270227533509" lon="-1.5561885014190862"><ele>25.666666666666664</ele><time>2026-03-31T15:32:36.062Z</time></trkpt><trkpt lat="47.25269439634611" lon="-1.556072747336287"><ele>25.333333333333332</ele><time>2026-03-31T15:32:37.136Z</time></trkpt><trkpt lat="47.25268630780955" lon="-1.5559801273062415"><ele>25.0</ele><time>2026-03-31T15:32:38.058Z</time></trkpt><trkpt lat="47.25268337414344" lon="-1.555862696842808"><ele>24.666666666666664</ele><time>2026-03-31T15:32:39.057Z</time></trkpt><trkpt lat="47.25263672885229" lon="-1.5557191986605112"><ele>24.333333333333332</ele><time>2026-03-31T15:32:41.054Z</time></trkpt><trkpt lat="47.252627341120736" lon="-1.5556087251767101"><ele>24.0</ele><time>2026-03-31T15:32:42.059Z</time></trkpt><trkpt lat="47.25260978103359" lon="-1.5555122494712057"><ele>24.0</ele><time>2026-03-31T15:32:43.057Z</time></trkpt><trkpt lat="47.252594567879335" lon="-1.5554137621089401"><ele>24.0</ele><time>2026-03-31T15:32:44.058Z</time></trkpt><trkpt lat="47.2525780974396" lon="-1.555318878965038"><ele>24.0</ele><time>2026-03-31T15:32:45.07Z</time></trkpt><trkpt lat="47.25256263282825" lon="-1.5552173741176307"><ele>24.0</ele><time>2026-03-31T15:32:46.06Z</time></trkpt><trkpt lat="47.252547126307384" lon="-1.5550931543126283"><ele>24.0</ele><time>2026-03-31T15:32:47.058Z</time></trkpt><trkpt lat="47.252537403299705" lon="-1.5549727063640533"><ele>24.0</ele><time>2026-03-31T15:32:48.059Z</time></trkpt><trkpt lat="47.25252348934044" lon="-1.5548503305777486"><ele>23.666666666666668</ele><time>2026-03-31T15:32:49.069Z</time></trkpt><trkpt lat="47.25250022955914" lon="-1.5547566209002908"><ele>23.333333333333332</ele><time>2026-03-31T15:32:50.063Z</time></trkpt><trkpt lat="47.25248644132842" lon="-1.5546486619874411"><ele>23.0</ele><time>2026-03-31T15:32:51.061Z</time></trkpt><trkpt lat="47.25247671832074" lon="-1.5545246098205023"><ele>22.666666666666664</ele><time>2026-03-31T15:32:52.057Z</time></trkpt><trkpt lat="47.25246326536615" lon="-1.5544004738345316"><ele>22.333333333333332</ele><time>2026-03-31T15:32:53.07Z</time></trkpt><trkpt lat="47.2524520336159" lon="-1.5542746614679268"><ele>22.0</ele><time>2026-03-31T15:32:54.064Z</time></trkpt><trkpt lat="47.25242977966298" lon="-1.5541511960342098"><ele>21.666666666666664</ele><time>2026-03-31T15:32:55.056Z</time></trkpt><trkpt lat="47.25240492732008" lon="-1.5540413931026626"><ele>21.333333333333332</ele><time>2026-03-31T15:32:56.052Z</time></trkpt><trkpt lat="47.25238820542325" lon="-1.5539450850352214"><ele>21.0</ele><time>2026-03-31T15:32:57.058Z</time></trkpt><trkpt lat="47.25235790484329" lon="-1.5537813864662813"><ele>20.666666666666668</ele><time>2026-03-31T15:32:59.052Z</time></trkpt><trkpt lat="47.252332717224256" lon="-1.5536807198091909"><ele>20.333333333333336</ele><time>2026-03-31T15:33:01.067Z</time></trkpt><trkpt lat="47.25228879605164" lon="-1.553595894949095"><ele>20.0</ele><time>2026-03-31T15:33:10.065Z</time></trkpt><trkpt lat="47.252244707240955" lon="-1.5534618683173818"><ele>20.0</ele><time>2026-03-31T15:33:13.067Z</time></trkpt><trkpt lat="47.252229535996214" lon="-1.5533373970552844"><ele>20.0</ele><time>2026-03-31T15:33:16.06Z</time></trkpt><trkpt lat="47.252259082204894" lon="-1.5532141830786625"><ele>20.0</ele><time>2026-03-31T15:33:19.061Z</time></trkpt><trkpt lat="47.25227291234513" lon="-1.5530990157290856"><ele>20.0</ele><time>2026-03-31T15:33:26.066Z</time></trkpt><trkpt lat="47.252260297580854" lon="-1.5529946610345997"><ele>20.0</ele><time>2026-03-31T15:33:29.049Z</time></trkpt><trkpt lat="47.252267170741455" lon="-1.552868848667995"><ele>20.0</ele><time>2026-03-31T15:33:31.058Z</time></trkpt><trkpt lat="47.25226004612376" lon="-1.5527143701925432"><ele>19.857142857142858</ele><time>2026-03-31T15:33:33.063Z</time></trkpt><trkpt lat="47.25223687016149" lon="-1.5525457263007318"><ele>19.714285714285715</ele><time>2026-03-31T15:33:35.066Z</time></trkpt><trkpt lat="47.25221968725999" lon="-1.552456375212923"><ele>19.57142857142857</ele><time>2026-03-31T15:33:36.067Z</time></trkpt><trkpt lat="47.25219890014012" lon="-1.552361240611926"><ele>19.42857142857143</ele><time>2026-03-31T15:33:37.067Z</time></trkpt><trkpt lat="47.252179747491375" lon="-1.552266944201246"><ele>19.28571428571429</ele><time>2026-03-31T15:33:38.064Z</time></trkpt><trkpt lat="47.252158708914415" lon="-1.552174491809264"><ele>19.142857142857142</ele><time>2026-03-31T15:33:39.072Z</time></trkpt><trkpt lat="47.252140813551144" lon="-1.5520850569024236"><ele>19.0</ele><time>2026-03-31T15:33:40.071Z</time></trkpt><trkpt lat="47.25211923015048" lon="-1.5519880782827287"><ele>18.857142857142858</ele><time>2026-03-31T15:33:41.076Z</time></trkpt><trkpt lat="47.252107914581195" lon="-1.5518771018847375"><ele>18.714285714285715</ele><time>2026-03-31T15:33:42.069Z</time></trkpt><trkpt lat="47.252087672285036" lon="-1.5517724957331565"><ele>18.571428571428573</ele><time>2026-03-31T15:33:43.069Z</time></trkpt><trkpt lat="47.25206864536484" lon="-1.5516661293819096"><ele>18.42857142857143</ele><time>2026-03-31T15:33:44.071Z</time></trkpt><trkpt lat="47.2520421166413" lon="-1.5515651274486923"><ele>18.285714285714285</ele><time>2026-03-31T15:33:45.069Z</time></trkpt><trkpt lat="47.25202137143095" lon="-1.5514715015902663"><ele>18.142857142857146</ele><time>2026-03-31T15:33:46.068Z</time></trkpt><trkpt lat="47.25199781828304" lon="-1.551369661466732"><ele>18.0</ele><time>2026-03-31T15:33:47.068Z</time></trkpt><trkpt lat="47.251967391974524" lon="-1.5512775443508766"><ele>17.833333333333332</ele><time>2026-03-31T15:33:48.064Z</time></trkpt><trkpt lat="47.251961524642304" lon="-1.5511759556844376"><ele>17.666666666666668</ele><time>2026-03-31T15:33:49.064Z</time></trkpt><trkpt lat="47.25194589239289" lon="-1.551070008428349"><ele>17.5</ele><time>2026-03-31T15:33:50.069Z</time></trkpt><trkpt lat="47.25193000868638" lon="-1.550890970976605"><ele>17.333333333333336</ele><time>2026-03-31T15:33:52.078Z</time></trkpt><trkpt lat="47.25192120768805" lon="-1.5507986862226861"><ele>17.166666666666668</ele><time>2026-03-31T15:33:53.073Z</time></trkpt><trkpt lat="47.251937342851654" lon="-1.5506978519275325"><ele>17.0</ele><time>2026-03-31T15:33:54.082Z</time></trkpt><trkpt lat="47.25193968978454" lon="-1.5505456365659371"><ele>17.0</ele><time>2026-03-31T15:33:56.061Z</time></trkpt><trkpt lat="47.25194497038354" lon="-1.550380429254426"><ele>17.0</ele><time>2026-03-31T15:33:58.062Z</time></trkpt><trkpt lat="47.25194610194047" lon="-1.5502794273212088"><ele>17.0</ele><time>2026-03-31T15:33:59.06Z</time></trkpt><trkpt lat="47.251950795806245" lon="-1.5501284692450892"><ele>17.0</ele><time>2026-03-31T15:34:01.055Z</time></trkpt><trkpt lat="47.25198889155616" lon="-1.549962423743261"><ele>17.0</ele><time>2026-03-31T15:34:03.057Z</time></trkpt><trkpt lat="47.25200733174314" lon="-1.5498516988023647"><ele>17.0</ele><time>2026-03-31T15:34:04.061Z</time></trkpt><trkpt lat="47.25204320628871" lon="-1.5496751759215721"><ele>17.0</ele><time>2026-03-31T15:34:06.068Z</time></trkpt><trkpt lat="47.25206017964263" lon="-1.5495338570340997"><ele>17.0</ele><time>2026-03-31T15:34:08.072Z</time></trkpt><trkpt lat="47.25206571169873" lon="-1.5494376327856905"><ele>17.0</ele><time>2026-03-31T15:34:10.064Z</time></trkpt><trkpt lat="47.25213096481492" lon="-1.5493518859162454"><ele>17.0</ele><time>2026-03-31T15:34:13.067Z</time></trkpt><trkpt lat="47.25219022487034" lon="-1.5492677316084031"><ele>17.0</ele><time>2026-03-31T15:34:15.062Z</time></trkpt><trkpt lat="47.25227245134045" lon="-1.5491507202401282"><ele>17.0</ele><time>2026-03-31T15:34:17.055Z</time></trkpt><trkpt lat="47.25231473804195" lon="-1.5490808989867093"><ele>17.0</ele><time>2026-03-31T15:34:18.057Z</time></trkpt><trkpt lat="47.25236184433778" lon="-1.548911584542644"><ele>17.0</ele><time>2026-03-31T15:34:20.058Z</time></trkpt><trkpt lat="47.25239922762592" lon="-1.5488213114454865"><ele>17.0</ele><time>2026-03-31T15:34:21.06Z</time></trkpt><trkpt lat="47.252425798258976" lon="-1.5487233269974112"><ele>17.0</ele><time>2026-03-31T15:34:22.06Z</time></trkpt><trkpt lat="47.252451404973165" lon="-1.548633808271539"><ele>16.666666666666668</ele><time>2026-03-31T15:34:23.06Z</time></trkpt><trkpt lat="47.2524858545952" lon="-1.5485375840231297"><ele>16.333333333333336</ele><time>2026-03-31T15:34:24.056Z</time></trkpt><trkpt lat="47.25251397588034" lon="-1.5484464727356548"><ele>16.0</ele><time>2026-03-31T15:34:25.059Z</time></trkpt><trkpt lat="47.25255731031974" lon="-1.5482847020044441"><ele>15.666666666666668</ele><time>2026-03-31T15:34:27.06Z</time></trkpt><trkpt lat="47.25257759452541" lon="-1.5481878910228126"><ele>15.333333333333334</ele><time>2026-03-31T15:34:28.058Z</time></trkpt><trkpt lat="47.25260018375446" lon="-1.548017570750367"><ele>15.0</ele><time>2026-03-31T15:34:30.059Z</time></trkpt><trkpt lat="47.25261250515212" lon="-1.547855213285934"><ele>15.0</ele><time>2026-03-31T15:34:32.06Z</time></trkpt><trkpt lat="47.25258564115246" lon="-1.547679025681268"><ele>15.0</ele><time>2026-03-31T15:34:34.064Z</time></trkpt><trkpt lat="47.25257076327433" lon="-1.5475823823377002"><ele>15.0</ele><time>2026-03-31T15:34:35.055Z</time></trkpt><trkpt lat="47.25253887013276" lon="-1.5474239643677579"><ele>15.0</ele><time>2026-03-31T15:34:37.052Z</time></trkpt><trkpt lat="47.25250286985864" lon="-1.547254817561756"><ele>15.0</ele><time>2026-03-31T15:34:39.056Z</time></trkpt><trkpt lat="47.25248334002425" lon="-1.5470953937634333"><ele>15.2</ele><time>2026-03-31T15:34:41.052Z</time></trkpt><trkpt lat="47.25244977050205" lon="-1.5469644684358936"><ele>15.4</ele><time>2026-03-31T15:34:43.064Z</time></trkpt><trkpt lat="47.252426217354135" lon="-1.5468104928746325"><ele>15.600000000000001</ele><time>2026-03-31T15:34:45.065Z</time></trkpt><trkpt lat="47.25240513686766" lon="-1.546638244764457"><ele>15.8</ele><time>2026-03-31T15:34:47.061Z</time></trkpt><trkpt lat="47.25238761869003" lon="-1.5464763902142145"><ele>16.0</ele><time>2026-03-31T15:34:49.058Z</time></trkpt><trkpt lat="47.25236578383227" lon="-1.5463090874269103"><ele>16.400000000000002</ele><time>2026-03-31T15:34:51.061Z</time></trkpt><trkpt lat="47.25236829840322" lon="-1.5461559500559663"><ele>16.8</ele><time>2026-03-31T15:34:53.054Z</time></trkpt><trkpt lat="47.25234478716482" lon="-1.5459929220392796"><ele>17.200000000000003</ele><time>2026-03-31T15:34:55.055Z</time></trkpt><trkpt lat="47.252319683364824" lon="-1.5458340849741787"><ele>17.6</ele><time>2026-03-31T15:34:57.059Z</time></trkpt><trkpt lat="47.2522966331311" lon="-1.5456780977561564"><ele>18.0</ele><time>2026-03-31T15:34:59.065Z</time></trkpt><trkpt lat="47.25227366671641" lon="-1.5455216076239435"><ele>19.2</ele><time>2026-03-31T15:35:01.057Z</time></trkpt><trkpt lat="47.25224847909738" lon="-1.545372661204585"><ele>20.4</ele><time>2026-03-31T15:35:03.059Z</time></trkpt><trkpt lat="47.252229326448635" lon="-1.5452408976867285"><ele>21.599999999999998</ele><time>2026-03-31T15:35:05.053Z</time></trkpt><trkpt lat="47.25222178273578" lon="-1.5451414044960823"><ele>22.8</ele><time>2026-03-31T15:35:06.065Z</time></trkpt><trkpt lat="47.252191398336784" lon="-1.544990949334153"><ele>24.0</ele><time>2026-03-31T15:35:08.06Z</time></trkpt><trkpt lat="47.252175807996885" lon="-1.544837141410955"><ele>24.0</ele><time>2026-03-31T15:35:10.064Z</time></trkpt><trkpt lat="47.252171156040625" lon="-1.5446735266610465"><ele>24.0</ele><time>2026-03-31T15:35:12.062Z</time></trkpt><trkpt lat="47.25215045273979" lon="-1.54453933239127"><ele>24.0</ele><time>2026-03-31T15:35:14.058Z</time></trkpt><trkpt lat="47.2521301266246" lon="-1.5443951636567192"><ele>24.0</ele><time>2026-03-31T15:35:16.061Z</time></trkpt><trkpt lat="47.25210573528637" lon="-1.5442582033588963"><ele>24.0</ele><time>2026-03-31T15:35:18.076Z</time></trkpt><trkpt lat="47.252097395292715" lon="-1.5441662538811043"><ele>23.833333333333332</ele><time>2026-03-31T15:35:19.059Z</time></trkpt><trkpt lat="47.25209236615081" lon="-1.544055277483113"><ele>23.666666666666668</ele><time>2026-03-31T15:35:20.058Z</time></trkpt><trkpt lat="47.25206939973612" lon="-1.5438633319004846"><ele>23.5</ele><time>2026-03-31T15:35:22.052Z</time></trkpt><trkpt lat="47.252053599848644" lon="-1.543767191471107"><ele>23.333333333333336</ele><time>2026-03-31T15:35:23.065Z</time></trkpt><trkpt lat="47.25203742277552" lon="-1.5436361823245357"><ele>23.166666666666668</ele><time>2026-03-31T15:35:24.067Z</time></trkpt><trkpt lat="47.252029920972184" lon="-1.5435175783946584"><ele>23.0</ele><time>2026-03-31T15:35:25.059Z</time></trkpt><trkpt lat="47.25202979524364" lon="-1.543409535662777"><ele>23.0</ele><time>2026-03-31T15:35:26.063Z</time></trkpt><trkpt lat="47.25200762510975" lon="-1.5432869922384091"><ele>23.0</ele><time>2026-03-31T15:35:27.058Z</time></trkpt><trkpt lat="47.25199911747803" lon="-1.5431437455132073"><ele>23.0</ele><time>2026-03-31T15:35:28.056Z</time></trkpt><trkpt lat="47.25198101256718" lon="-1.5430211182698077"><ele>23.0</ele><time>2026-03-31T15:35:29.061Z</time></trkpt><trkpt lat="47.25195071198721" lon="-1.5429015085115496"><ele>23.0</ele><time>2026-03-31T15:35:30.062Z</time></trkpt><trkpt lat="47.2519263625585" lon="-1.5427700802698199"><ele>23.0</ele><time>2026-03-31T15:35:31.058Z</time></trkpt><trkpt lat="47.25191089794715" lon="-1.5426264144494595"><ele>22.166666666666668</ele><time>2026-03-31T15:35:32.061Z</time></trkpt><trkpt lat="47.251913663975195" lon="-1.542513761670834"><ele>21.333333333333336</ele><time>2026-03-31T15:35:33.056Z</time></trkpt><trkpt lat="47.25194337782194" lon="-1.5423783939346134"><ele>20.5</ele><time>2026-03-31T15:35:34.059Z</time></trkpt><trkpt lat="47.25195347801526" lon="-1.5422769729062378"><ele>19.666666666666668</ele><time>2026-03-31T15:35:35.057Z</time></trkpt><trkpt lat="47.2519176453792" lon="-1.542143113912588"><ele>18.833333333333332</ele><time>2026-03-31T15:35:37.06Z</time></trkpt><trkpt lat="47.25188415967603" lon="-1.5420550201102552"><ele>18.0</ele><time>2026-03-31T15:35:38.061Z</time></trkpt><trkpt lat="47.25182636645366" lon="-1.5419860370471532"><ele>17.0</ele><time>2026-03-31T15:35:39.061Z</time></trkpt><trkpt lat="47.25175889213313" lon="-1.5419317223146016"><ele>16.0</ele><time>2026-03-31T15:35:40.059Z</time></trkpt><trkpt lat="47.25169032816519" lon="-1.5418870467706973"><ele>15.0</ele><time>2026-03-31T15:35:41.059Z</time></trkpt><trkpt lat="47.251613382294074" lon="-1.5418494120254571"><ele>14.0</ele><time>2026-03-31T15:35:42.07Z</time></trkpt><trkpt lat="47.251555211886064" lon="-1.5417699515833907"><ele>13.0</ele><time>2026-03-31T15:35:43.065Z</time></trkpt><trkpt lat="47.2515188344263" lon="-1.5416617412134461"><ele>12.0</ele><time>2026-03-31T15:35:44.062Z</time></trkpt><trkpt lat="47.25152436648239" lon="-1.5415635053082757"><ele>12.0</ele><time>2026-03-31T15:35:45.06Z</time></trkpt><trkpt lat="47.25153371230443" lon="-1.5414574742331555"><ele>12.0</ele><time>2026-03-31T15:35:46.072Z</time></trkpt><trkpt lat="47.25157822021027" lon="-1.5413511917009404"><ele>12.0</ele><time>2026-03-31T15:35:47.061Z</time></trkpt><trkpt lat="47.25161979445" lon="-1.5412491839393425"><ele>12.0</ele><time>2026-03-31T15:35:48.063Z</time></trkpt><trkpt lat="47.251667822755174" lon="-1.541155977176075"><ele>12.0</ele><time>2026-03-31T15:35:49.059Z</time></trkpt><trkpt lat="47.25170881026168" lon="-1.5410514548435257"><ele>12.0</ele><time>2026-03-31T15:35:50.066Z</time></trkpt><trkpt lat="47.25179300647904" lon="-1.5408946294351862"><ele>11.166666666666666</ele><time>2026-03-31T15:35:52.06Z</time></trkpt><trkpt lat="47.25186274391343" lon="-1.5408564917757557"><ele>10.333333333333334</ele><time>2026-03-31T15:35:53.06Z</time></trkpt><trkpt lat="47.25192837421526" lon="-1.5408188570305152"><ele>9.5</ele><time>2026-03-31T15:35:54.057Z</time></trkpt><trkpt lat="47.25203733895649" lon="-1.5407836530371948"><ele>8.666666666666668</ele><time>2026-03-31T15:35:56.06Z</time></trkpt><trkpt lat="47.25210330453445" lon="-1.5407839883133216"><ele>7.833333333333334</ele><time>2026-03-31T15:35:57.06Z</time></trkpt><trkpt lat="47.252182471609906" lon="-1.5407380554839416"><ele>7.0</ele><time>2026-03-31T15:35:58.075Z</time></trkpt><trkpt lat="47.252312600656644" lon="-1.5406889375313564"><ele>7.0</ele><time>2026-03-31T15:36:00.063Z</time></trkpt><trkpt lat="47.252380284524754" lon="-1.540672844277267"><ele>6.999999999999999</ele><time>2026-03-31T15:36:01.058Z</time></trkpt><trkpt lat="47.25244440608402" lon="-1.5406581759467168"><ele>6.999999999999999</ele><time>2026-03-31T15:36:02.06Z</time></trkpt><trkpt lat="47.252575540959135" lon="-1.5406305156662508"><ele>7.0</ele><time>2026-03-31T15:36:04.059Z</time></trkpt><trkpt lat="47.25268634971906" lon="-1.5406184457256837"><ele>7.0</ele><time>2026-03-31T15:36:06.066Z</time></trkpt><trkpt lat="47.25284866527398" lon="-1.5405839961036485"><ele>7.000000000000001</ele><time>2026-03-31T15:36:08.06Z</time></trkpt><trkpt lat="47.252923892854945" lon="-1.540573518724684"><ele>7.0</ele><time>2026-03-31T15:36:09.063Z</time></trkpt><trkpt lat="47.25300741852005" lon="-1.5405488759293597"><ele>7.0</ele><time>2026-03-31T15:36:10.065Z</time></trkpt><trkpt lat="47.253077575049595" lon="-1.5405248198672574"><ele>7.0</ele><time>2026-03-31T15:36:11.063Z</time></trkpt><trkpt lat="47.253143247260944" lon="-1.540496405215506"><ele>7.000000000000001</ele><time>2026-03-31T15:36:12.059Z</time></trkpt><trkpt lat="47.253226102373795" lon="-1.540476623924021"><ele>7.0</ele><time>2026-03-31T15:36:13.061Z</time></trkpt><trkpt lat="47.25330564663489" lon="-1.5404624585076612"><ele>6.6</ele><time>2026-03-31T15:36:14.063Z</time></trkpt><trkpt lat="47.25338041321118" lon="-1.5404480416342061"><ele>6.199999999999999</ele><time>2026-03-31T15:36:15.063Z</time></trkpt><trkpt lat="47.253485606095985" lon="-1.5404037013664287"><ele>5.8</ele><time>2026-03-31T15:36:16.057Z</time></trkpt><trkpt lat="47.25357742984523" lon="-1.5404028631761115"><ele>5.4</ele><time>2026-03-31T15:36:18.068Z</time></trkpt><trkpt lat="47.253707684620515" lon="-1.5403518173857966"><ele>5.0</ele><time>2026-03-31T15:36:20.06Z</time></trkpt><trkpt lat="47.25377109371801" lon="-1.5403367299600879"><ele>5.0</ele><time>2026-03-31T15:36:21.062Z</time></trkpt><trkpt lat="47.25383471236308" lon="-1.5403302758946458"><ele>5.0</ele><time>2026-03-31T15:36:22.072Z</time></trkpt><trkpt lat="47.253902438140706" lon="-1.5402913000448981"><ele>5.0</ele><time>2026-03-31T15:36:24.06Z</time></trkpt><trkpt lat="47.25397917446424" lon="-1.5402423497303763"><ele>5.0</ele><time>2026-03-31T15:36:26.068Z</time></trkpt><trkpt lat="47.25413294047792" lon="-1.5402058884515801"><ele>5.0</ele><time>2026-03-31T15:36:28.056Z</time></trkpt><trkpt lat="47.25421219137241" lon="-1.5401915553971568"><ele>5.0</ele><time>2026-03-31T15:36:29.07Z</time></trkpt><trkpt lat="47.2542784922265" lon="-1.5401562675848046"><ele>5.0</ele><time>2026-03-31T15:36:30.058Z</time></trkpt><trkpt lat="47.254344793080584" lon="-1.5401274338378943"><ele>5.0</ele><time>2026-03-31T15:36:31.066Z</time></trkpt><trkpt lat="47.254479238807455" lon="-1.5400931518539227"><ele>5.0</ele><time>2026-03-31T15:36:33.061Z</time></trkpt><trkpt lat="47.25459335841914" lon="-1.5401264280095137"><ele>5.0</ele><time>2026-03-31T15:36:36.063Z</time></trkpt><trkpt lat="47.25465999454936" lon="-1.54011989012504"><ele>5.0</ele><time>2026-03-31T15:36:37.059Z</time></trkpt><trkpt lat="47.25477315024217" lon="-1.5401460416629353"><ele>5.0</ele><time>2026-03-31T15:36:39.055Z</time></trkpt><trkpt lat="47.25492423404684" lon="-1.5401318762465754"><ele>5.0</ele><time>2026-03-31T15:36:41.06Z</time></trkpt><trkpt lat="47.25502427206119" lon="-1.5401075687273778"><ele>5.0</ele><time>2026-03-31T15:36:43.053Z</time></trkpt><trkpt lat="47.25512464535167" lon="-1.5400882903500832"><ele>6.0</ele><time>2026-03-31T15:36:45.065Z</time></trkpt><trkpt lat="47.255201297856175" lon="-1.5400719456388987"><ele>7.0</ele><time>2026-03-31T15:36:46.069Z</time></trkpt><trkpt lat="47.25531009495934" lon="-1.5400388371213711"><ele>8.0</ele><time>2026-03-31T15:36:48.011Z</time></trkpt><trkpt lat="47.25539550655266" lon="-1.5399872045978344"><ele>9.0</ele><time>2026-03-31T15:36:49.011Z</time></trkpt><trkpt lat="47.25547492508521" lon="-1.5399609692409075"><ele>10.0</ele><time>2026-03-31T15:36:50.01Z</time></trkpt><trkpt lat="47.255614986687206" lon="-1.539926351980809"><ele>10.4</ele><time>2026-03-31T15:36:52.009Z</time></trkpt><trkpt lat="47.25572353233328" lon="-1.5398940816535986"><ele>10.8</ele><time>2026-03-31T15:36:54.008Z</time></trkpt><trkpt lat="47.25583325144579" lon="-1.5398263558759724"><ele>11.2</ele><time>2026-03-31T15:36:56.007Z</time></trkpt><trkpt lat="47.25590847902676" lon="-1.5397409442826544"><ele>11.6</ele><time>2026-03-31T15:36:58.006Z</time></trkpt><trkpt lat="47.25602075461974" lon="-1.5396734699621235"><ele>12.0</ele><time>2026-03-31T15:37:00.005Z</time></trkpt><trkpt lat="47.25613734689286" lon="-1.5396273694946798"><ele>12.0</ele><time>2026-03-31T15:37:02.004Z</time></trkpt><trkpt lat="47.256220621100866" lon="-1.539570791648272"><ele>12.0</ele><time>2026-03-31T15:37:04.004Z</time></trkpt><trkpt lat="47.2563467687436" lon="-1.5395028144135507"><ele>12.0</ele><time>2026-03-31T15:37:06.003Z</time></trkpt><trkpt lat="47.256413153416716" lon="-1.5394784230753216"><ele>12.0</ele><time>2026-03-31T15:37:07.003Z</time></trkpt><trkpt lat="47.25650011566212" lon="-1.5394640062018665"><ele>12.0</ele><time>2026-03-31T15:37:08.003Z</time></trkpt><trkpt lat="47.256580707661115" lon="-1.539412625135425"><ele>11.0</ele><time>2026-03-31T15:37:09.003Z</time></trkpt><trkpt lat="47.2566506965526" lon="-1.5393892396255762"><ele>10.0</ele><time>2026-03-31T15:37:10.002Z</time></trkpt><trkpt lat="47.25675073456695" lon="-1.5393634233638078"><ele>9.0</ele><time>2026-03-31T15:37:12.002Z</time></trkpt><trkpt lat="47.25687143397262" lon="-1.5393890719875127"><ele>8.0</ele><time>2026-03-31T15:37:14.002Z</time></trkpt><trkpt lat="47.256937190003" lon="-1.5393927600249082"><ele>7.0</ele><time>2026-03-31T15:37:15.002Z</time></trkpt><trkpt lat="47.25704892077228" lon="-1.5394210070385965"><ele>7.0</ele><time>2026-03-31T15:37:17.001Z</time></trkpt><trkpt lat="47.25713793658396" lon="-1.539459144698027"><ele>6.999999999999999</ele><time>2026-03-31T15:37:19.001Z</time></trkpt><trkpt lat="47.25721349944105" lon="-1.5395216736956867"><ele>6.999999999999999</ele><time>2026-03-31T15:37:21.001Z</time></trkpt><trkpt lat="47.2572818119519" lon="-1.5396142099067005"><ele>7.0</ele><time>2026-03-31T15:37:23.001Z</time></trkpt><trkpt lat="47.25733964708378" lon="-1.5397465601577793"><ele>7.0</ele><time>2026-03-31T15:37:25.001Z</time></trkpt><trkpt lat="47.25737049248745" lon="-1.5398702770485913"><ele>8.0</ele><time>2026-03-31T15:37:27Z</time></trkpt><trkpt lat="47.257408127232694" lon="-1.5399947483106888"><ele>9.0</ele><time>2026-03-31T15:37:29Z</time></trkpt><trkpt lat="47.257427740886115" lon="-1.5401208121343888"><ele>10.0</ele><time>2026-03-31T15:37:31Z</time></trkpt><trkpt lat="47.257489766969584" lon="-1.5402133483454028"><ele>11.0</ele><time>2026-03-31T15:37:33Z</time></trkpt><trkpt lat="47.257538843012654" lon="-1.5403368137791196"><ele>12.0</ele><time>2026-03-31T15:37:35Z</time></trkpt><trkpt lat="47.25758280609479" lon="-1.5404705051347058"><ele>12.399999999999999</ele><time>2026-03-31T15:37:37Z</time></trkpt><trkpt lat="47.25762903229078" lon="-1.540605705232863"><ele>12.799999999999999</ele><time>2026-03-31T15:37:39Z</time></trkpt><trkpt lat="47.257692106112145" lon="-1.5407120715841098"><ele>13.2</ele><time>2026-03-31T15:37:41Z</time></trkpt><trkpt lat="47.25773715884169" lon="-1.5408658795073078"><ele>13.6</ele><time>2026-03-31T15:37:43Z</time></trkpt><trkpt lat="47.257766076407634" lon="-1.5409907698645637"><ele>14.0</ele><time>2026-03-31T15:37:45Z</time></trkpt><trkpt lat="47.257784223228" lon="-1.5410808753236578"><ele>14.000000000000002</ele><time>2026-03-31T15:37:46Z</time></trkpt><trkpt lat="47.25783493374219" lon="-1.541191013531332"><ele>14.0</ele><time>2026-03-31T15:37:48Z</time></trkpt><trkpt lat="47.25785517603835" lon="-1.5413338411613753"><ele>14.0</ele><time>2026-03-31T15:37:51Z</time></trkpt><trkpt lat="47.257891008674406" lon="-1.5414498467012694"><ele>14.0</ele><time>2026-03-31T15:37:53Z</time></trkpt><trkpt lat="47.25793346301397" lon="-1.5415332466378262"><ele>14.000000000000002</ele><time>2026-03-31T15:37:55Z</time></trkpt><trkpt lat="47.25798224569043" lon="-1.541640283541327"><ele>14.0</ele><time>2026-03-31T15:37:57Z</time></trkpt><trkpt lat="47.25801300727507" lon="-1.5417386870845609"><ele>14.166666666666668</ele><time>2026-03-31T15:37:59Z</time></trkpt><trkpt lat="47.25805546161463" lon="-1.5418433770551736"><ele>14.333333333333334</ele><time>2026-03-31T15:38:01Z</time></trkpt><trkpt lat="47.25809393455019" lon="-1.5419582091286237"><ele>14.5</ele><time>2026-03-31T15:38:03Z</time></trkpt><trkpt lat="47.25813446105202" lon="-1.54207773506785"><ele>14.666666666666668</ele><time>2026-03-31T15:38:05Z</time></trkpt><trkpt lat="47.258169665045344" lon="-1.5421662479653415"><ele>14.833333333333334</ele><time>2026-03-31T15:38:07Z</time></trkpt><trkpt lat="47.258224692239665" lon="-1.542241517455822"><ele>15.0</ele><time>2026-03-31T15:38:09Z</time></trkpt><trkpt lat="47.25830075801095" lon="-1.5423115901663362"><ele>16.666666666666668</ele><time>2026-03-31T15:38:11Z</time></trkpt><trkpt lat="47.25837070499291" lon="-1.542385015638119"><ele>18.333333333333336</ele><time>2026-03-31T15:38:13Z</time></trkpt><trkpt lat="47.25844480101695" lon="-1.5424427669509708"><ele>20.0</ele><time>2026-03-31T15:38:15Z</time></trkpt><trkpt lat="47.2584930388697" lon="-1.5425248257830204"><ele>21.666666666666668</ele><time>2026-03-31T15:38:16.999Z</time></trkpt><trkpt lat="47.258537923961185" lon="-1.5426115784808458"><ele>23.333333333333336</ele><time>2026-03-31T15:38:18.999Z</time></trkpt><trkpt lat="47.2586053563722" lon="-1.5426781307920279"><ele>25.0</ele><time>2026-03-31T15:38:20.999Z</time></trkpt><trkpt lat="47.258690181232296" lon="-1.5427385643138947"><ele>25.0</ele><time>2026-03-31T15:38:22.999Z</time></trkpt><trkpt lat="47.2587816277959" lon="-1.5427776239826743"><ele>25.0</ele><time>2026-03-31T15:38:24.999Z</time></trkpt><trkpt lat="47.25887265526434" lon="-1.5428037755205695"><ele>25.0</ele><time>2026-03-31T15:38:26.999Z</time></trkpt><trkpt lat="47.25894557782193" lon="-1.5428354591145579"><ele>25.0</ele><time>2026-03-31T15:38:28.999Z</time></trkpt><trkpt lat="47.259031450419926" lon="-1.5428593475385968"><ele>25.0</ele><time>2026-03-31T15:38:31.999Z</time></trkpt><trkpt lat="47.25913396109571" lon="-1.542839566247112"><ele>26.2</ele><time>2026-03-31T15:38:34.999Z</time></trkpt><trkpt lat="47.259243303022586" lon="-1.5428215451552931"><ele>27.4</ele><time>2026-03-31T15:38:35.999Z</time></trkpt><trkpt lat="47.25935021419754" lon="-1.5428344532861773"><ele>28.6</ele><time>2026-03-31T15:38:37.999Z</time></trkpt><trkpt lat="47.25942787253042" lon="-1.5428302623345915"><ele>29.8</ele><time>2026-03-31T15:38:39.999Z</time></trkpt><trkpt lat="47.25951768462291" lon="-1.5428008418544594"><ele>31.0</ele><time>2026-03-31T15:38:41.999Z</time></trkpt><trkpt lat="47.259628074287676" lon="-1.5427782107158963"><ele>31.0</ele><time>2026-03-31T15:38:43.999Z</time></trkpt><trkpt lat="47.25974542093208" lon="-1.5427410788848461"><ele>31.0</ele><time>2026-03-31T15:38:45.999Z</time></trkpt><trkpt lat="47.25988409952005" lon="-1.5426751133068861"><ele>31.0</ele><time>2026-03-31T15:38:47.999Z</time></trkpt><trkpt lat="47.25994612560352" lon="-1.5426539070918621"><ele>31.0</ele><time>2026-03-31T15:38:48.999Z</time></trkpt><trkpt lat="47.260037446438574" lon="-1.5425918810083927"><ele>31.0</ele><time>2026-03-31T15:38:49.999Z</time></trkpt><trkpt lat="47.26013178475877" lon="-1.5425891149803461"><ele>30.200000000000003</ele><time>2026-03-31T15:38:51.999Z</time></trkpt><trkpt lat="47.260231277949416" lon="-1.542576458306557"><ele>29.400000000000002</ele><time>2026-03-31T15:38:53.999Z</time></trkpt><trkpt lat="47.26031903647562" lon="-1.5425637178137364"><ele>28.6</ele><time>2026-03-31T15:38:54.999Z</time></trkpt><trkpt lat="47.260393970689975" lon="-1.5426040347679915"><ele>27.8</ele><time>2026-03-31T15:38:56.999Z</time></trkpt><trkpt lat="47.26046475586226" lon="-1.5426042862250866"><ele>27.0</ele><time>2026-03-31T15:38:57.999Z</time></trkpt><trkpt lat="47.26058222823521" lon="-1.5425896178945364"><ele>26.166666666666668</ele><time>2026-03-31T15:38:59.999Z</time></trkpt><trkpt lat="47.26064697843721" lon="-1.542610656471497"><ele>25.333333333333332</ele><time>2026-03-31T15:39:00.999Z</time></trkpt><trkpt lat="47.260718937075936" lon="-1.542611243204719"><ele>24.5</ele><time>2026-03-31T15:39:01.999Z</time></trkpt><trkpt lat="47.26079064425757" lon="-1.542636556552297"><ele>23.666666666666664</ele><time>2026-03-31T15:39:02.999Z</time></trkpt><trkpt lat="47.26087852851232" lon="-1.5426414180561365"><ele>22.833333333333332</ele><time>2026-03-31T15:39:03.999Z</time></trkpt><trkpt lat="47.260947804942035" lon="-1.5426505543305935"><ele>22.0</ele><time>2026-03-31T15:39:04.999Z</time></trkpt><trkpt lat="47.261040383062564" lon="-1.5426868479713263"><ele>22.0</ele><time>2026-03-31T15:39:05.999Z</time></trkpt><trkpt lat="47.261186479634844" lon="-1.542693721131927"><ele>22.0</ele><time>2026-03-31T15:39:07.999Z</time></trkpt><trkpt lat="47.261259108825826" lon="-1.5427083056434454"><ele>22.0</ele><time>2026-03-31T15:39:08.999Z</time></trkpt><trkpt lat="47.26132645741781" lon="-1.542713167147285"><ele>22.0</ele><time>2026-03-31T15:39:09.999Z</time></trkpt><trkpt lat="47.26145059340378" lon="-1.5427229739739956"><ele>22.0</ele><time>2026-03-31T15:39:11.999Z</time></trkpt><trkpt lat="47.26153160449793" lon="-1.5427176933749975"><ele>22.0</ele><time>2026-03-31T15:39:12.999Z</time></trkpt><trkpt lat="47.261603521227144" lon="-1.5427218843265833"><ele>22.0</ele><time>2026-03-31T15:39:13.999Z</time></trkpt><trkpt lat="47.26166810379108" lon="-1.5427145082517923"><ele>22.0</ele><time>2026-03-31T15:39:14.999Z</time></trkpt><trkpt lat="47.26173763167789" lon="-1.5427227225169005"><ele>22.0</ele><time>2026-03-31T15:39:15.999Z</time></trkpt><trkpt lat="47.26182233080944" lon="-1.5427354630097212"><ele>22.0</ele><time>2026-03-31T15:39:16.999Z</time></trkpt><trkpt lat="47.26190195888957" lon="-1.5427176933749975"><ele>22.0</ele><time>2026-03-31T15:39:17.999Z</time></trkpt><trkpt lat="47.26198347289791" lon="-1.5427214652314247"><ele>22.0</ele><time>2026-03-31T15:39:18.999Z</time></trkpt><trkpt lat="47.2620592872121" lon="-1.5426920447512926"><ele>22.0</ele><time>2026-03-31T15:39:19.999Z</time></trkpt><trkpt lat="47.262180405712925" lon="-1.5427124965950312"><ele>22.0</ele><time>2026-03-31T15:39:21.999Z</time></trkpt><trkpt lat="47.262256471484214" lon="-1.5427451021983685"><ele>22.0</ele><time>2026-03-31T15:39:22.999Z</time></trkpt><trkpt lat="47.2623235686191" lon="-1.5427567530437771"><ele>22.0</ele><time>2026-03-31T15:39:23.999Z</time></trkpt><trkpt lat="47.262392845048815" lon="-1.5427669789656464"><ele>22.0</ele><time>2026-03-31T15:39:24.999Z</time></trkpt><trkpt lat="47.262459313540965" lon="-1.5428044460728232"><ele>21.6</ele><time>2026-03-31T15:39:25.999Z</time></trkpt><trkpt lat="47.26253546313128" lon="-1.5428316872581307"><ele>21.200000000000003</ele><time>2026-03-31T15:39:26.999Z</time></trkpt><trkpt lat="47.262616348496884" lon="-1.5428990777596299"><ele>20.8</ele><time>2026-03-31T15:39:27.999Z</time></trkpt><trkpt lat="47.26269358773461" lon="-1.5429424121990267"><ele>20.4</ele><time>2026-03-31T15:39:28.999Z</time></trkpt><trkpt lat="47.26279949308118" lon="-1.5430023428067035"><ele>20.0</ele><time>2026-03-31T15:39:30.999Z</time></trkpt><trkpt lat="47.26286524911156" lon="-1.543109379710204"><ele>19.8</ele><time>2026-03-31T15:39:31.999Z</time></trkpt><trkpt lat="47.2629591683366" lon="-1.5432377904667922"><ele>19.6</ele><time>2026-03-31T15:39:33.999Z</time></trkpt><trkpt lat="47.26300719664177" lon="-1.5433024149402448"><ele>19.4</ele><time>2026-03-31T15:39:34.999Z</time></trkpt><trkpt lat="47.26308611226013" lon="-1.543357148767955"><ele>19.2</ele><time>2026-03-31T15:39:35.999Z</time></trkpt><trkpt lat="47.263155891604036" lon="-1.5434132237001725"><ele>19.0</ele><time>2026-03-31T15:39:36.999Z</time></trkpt><trkpt lat="47.26323975254527" lon="-1.5434734895839761"><ele>19.0</ele><time>2026-03-31T15:39:37.999Z</time></trkpt><trkpt lat="47.26333564151755" lon="-1.543533336372621"><ele>19.0</ele><time>2026-03-31T15:39:38.999Z</time></trkpt><trkpt lat="47.2634150600501" lon="-1.5436030738070081"><ele>19.0</ele><time>2026-03-31T15:39:39.999Z</time></trkpt><trkpt lat="47.26348609667948" lon="-1.5436474978938173"><ele>19.0</ele><time>2026-03-31T15:39:40.999Z</time></trkpt><trkpt lat="47.26355130788615" lon="-1.5437066741302086"><ele>19.0</ele><time>2026-03-31T15:39:41.999Z</time></trkpt><trkpt lat="47.26367498286745" lon="-1.5437974501415563"><ele>19.0</ele><time>2026-03-31T15:39:43.999Z</time></trkpt><trkpt lat="47.263736254579634" lon="-1.543844388799317"><ele>19.0</ele><time>2026-03-31T15:39:44.999Z</time></trkpt><trkpt lat="47.26379819684407" lon="-1.5439392719432188"><ele>19.0</ele><time>2026-03-31T15:39:45.999Z</time></trkpt><trkpt lat="47.26387086794457" lon="-1.543996436522849"><ele>19.0</ele><time>2026-03-31T15:39:46.999Z</time></trkpt><trkpt lat="47.26394169502637" lon="-1.544076818974264"><ele>19.0</ele><time>2026-03-31T15:39:47.999Z</time></trkpt><trkpt lat="47.26400066171518" lon="-1.5441614761962965"><ele>19.0</ele><time>2026-03-31T15:39:48.999Z</time></trkpt><trkpt lat="47.26410924927077" lon="-1.5442469716086464"><ele>19.0</ele><time>2026-03-31T15:39:50.999Z</time></trkpt><trkpt lat="47.26424268916926" lon="-1.5443199779852705"><ele>19.0</ele><time>2026-03-31T15:39:52.999Z</time></trkpt><trkpt lat="47.26430215877226" lon="-1.5443555172547179"><ele>19.0</ele><time>2026-03-31T15:39:53.999Z</time></trkpt><trkpt lat="47.26443379656157" lon="-1.544375214727171"><ele>19.0</ele><time>2026-03-31T15:39:55.999Z</time></trkpt><trkpt lat="47.26456342269412" lon="-1.5443815849735814"><ele>19.0</ele><time>2026-03-31T15:39:57.999Z</time></trkpt><trkpt lat="47.264673728539854" lon="-1.544327186421998"><ele>19.0</ele><time>2026-03-31T15:39:59.999Z</time></trkpt><trkpt lat="47.26473303050479" lon="-1.544292485342868"><ele>19.0</ele><time>2026-03-31T15:40:00.999Z</time></trkpt><trkpt lat="47.26484203715554" lon="-1.544232051821001"><ele>19.0</ele><time>2026-03-31T15:40:02.999Z</time></trkpt><trkpt lat="47.26495179817757" lon="-1.5441998653128224"><ele>19.0</ele><time>2026-03-31T15:40:04.999Z</time></trkpt><trkpt lat="47.265033186457366" lon="-1.5441553574069813"><ele>19.5</ele><time>2026-03-31T15:40:06.999Z</time></trkpt><trkpt lat="47.26508951284668" lon="-1.544068269433029"><ele>20.0</ele><time>2026-03-31T15:40:08.999Z</time></trkpt><trkpt lat="47.265195166736156" lon="-1.5440027229502276"><ele>20.5</ele><time>2026-03-31T15:40:10.999Z</time></trkpt><trkpt lat="47.265260042666704" lon="-1.5439749788507298"><ele>21.0</ele><time>2026-03-31T15:40:11.999Z</time></trkpt><trkpt lat="47.26535345897755" lon="-1.5439244359746052"><ele>21.5</ele><time>2026-03-31T15:40:13.999Z</time></trkpt><trkpt lat="47.265416951894075" lon="-1.543898535893805"><ele>22.0</ele><time>2026-03-31T15:40:14.999Z</time></trkpt><trkpt lat="47.265481995462686" lon="-1.5438709594323707"><ele>22.0</ele><time>2026-03-31T15:40:15.999Z</time></trkpt><trkpt lat="47.26557415448806" lon="-1.5438724681749416"><ele>22.0</ele><time>2026-03-31T15:40:17.999Z</time></trkpt><trkpt lat="47.265670504465014" lon="-1.5439278725549055"><ele>22.0</ele><time>2026-03-31T15:40:19.999Z</time></trkpt><trkpt lat="47.26574216973713" lon="-1.544006410987623"><ele>22.0</ele><time>2026-03-31T15:40:21.999Z</time></trkpt><trkpt lat="47.26575960409573" lon="-1.54414454475189"><ele>22.0</ele><time>2026-03-31T15:40:23.999Z</time></trkpt><trkpt lat="47.26578223523429" lon="-1.5443240012987929"><ele>22.0</ele><time>2026-03-31T15:40:25.999Z</time></trkpt><trkpt lat="47.26582238455048" lon="-1.5444662421956141"><ele>22.0</ele><time>2026-03-31T15:40:27.999Z</time></trkpt><trkpt lat="47.26591131654313" lon="-1.544590545819648"><ele>22.0</ele><time>2026-03-31T15:40:29.999Z</time></trkpt><trkpt lat="47.2659588000246" lon="-1.5446528233602126"><ele>22.0</ele><time>2026-03-31T15:40:30.999Z</time></trkpt><trkpt lat="47.266076398126096" lon="-1.5446637198343358"><ele>22.0</ele><time>2026-03-31T15:40:32.999Z</time></trkpt><trkpt lat="47.266148021488696" lon="-1.5446483809515317"><ele>22.200000000000003</ele><time>2026-03-31T15:40:33.999Z</time></trkpt><trkpt lat="47.26627416913143" lon="-1.544596748427995"><ele>22.4</ele><time>2026-03-31T15:40:35.999Z</time></trkpt><trkpt lat="47.26634470284662" lon="-1.5445828344687302"><ele>22.6</ele><time>2026-03-31T15:40:36.999Z</time></trkpt><trkpt lat="47.26646686908534" lon="-1.544549893589266"><ele>22.799999999999997</ele><time>2026-03-31T15:40:38.999Z</time></trkpt><trkpt lat="47.26657281634143" lon="-1.5445367340012868"><ele>23.0</ele><time>2026-03-31T15:40:40.999Z</time></trkpt><trkpt lat="47.26667926651171" lon="-1.5445349738016207"><ele>23.4</ele><time>2026-03-31T15:40:42.999Z</time></trkpt><trkpt lat="47.26680092983624" lon="-1.5445541683598836"><ele>23.799999999999997</ele><time>2026-03-31T15:40:44.999Z</time></trkpt><trkpt lat="47.26690566171637" lon="-1.5445762127652247"><ele>24.2</ele><time>2026-03-31T15:40:46.999Z</time></trkpt><trkpt lat="47.26697003473273" lon="-1.544589372353204"><ele>24.6</ele><time>2026-03-31T15:40:47.999Z</time></trkpt><trkpt lat="47.26709438026628" lon="-1.544623235242017"><ele>25.0</ele><time>2026-03-31T15:40:49.999Z</time></trkpt><trkpt lat="47.2672091285207" lon="-1.5446576010450204"><ele>25.6</ele><time>2026-03-31T15:40:51.999Z</time></trkpt><trkpt lat="47.26731172301552" lon="-1.5447145141675553"><ele>26.2</ele><time>2026-03-31T15:40:53.999Z</time></trkpt><trkpt lat="47.26739902053705" lon="-1.5447936393334947"><ele>26.799999999999997</ele><time>2026-03-31T15:40:55.999Z</time></trkpt><trkpt lat="47.267445288642556" lon="-1.5448867622777305"><ele>27.4</ele><time>2026-03-31T15:40:57.999Z</time></trkpt><trkpt lat="47.267498807094306" lon="-1.5449813101455057"><ele>28.0</ele><time>2026-03-31T15:40:59.999Z</time></trkpt><trkpt lat="47.267564772672266" lon="-1.5450834855451667"><ele>28.0</ele><time>2026-03-31T15:41:01.999Z</time></trkpt><trkpt lat="47.26765965581617" lon="-1.5451875049635257"><ele>27.999999999999996</ele><time>2026-03-31T15:41:03.999Z</time></trkpt><trkpt lat="47.26771162361583" lon="-1.5452766045942392"><ele>27.999999999999996</ele><time>2026-03-31T15:41:05.999Z</time></trkpt><trkpt lat="47.26776367523453" lon="-1.5453921072199432"><ele>28.0</ele><time>2026-03-31T15:41:07.999Z</time></trkpt><trkpt lat="47.26779581983319" lon="-1.5454951208099215"><ele>28.0</ele><time>2026-03-31T15:41:09.999Z</time></trkpt><trkpt lat="47.26784066301516" lon="-1.54559570364798"><ele>27.833333333333336</ele><time>2026-03-31T15:41:12.999Z</time></trkpt><trkpt lat="47.26784707517108" lon="-1.5457355137928814"><ele>27.666666666666668</ele><time>2026-03-31T15:41:15.999Z</time></trkpt><trkpt lat="47.267845524519" lon="-1.5458532795324418"><ele>27.5</ele><time>2026-03-31T15:41:17.999Z</time></trkpt><trkpt lat="47.267865473448545" lon="-1.5459472406669947"><ele>27.333333333333336</ele><time>2026-03-31T15:41:19.999Z</time></trkpt><trkpt lat="47.267943969971746" lon="-1.5459914971157405"><ele>27.166666666666668</ele><time>2026-03-31T15:41:21.999Z</time></trkpt><trkpt lat="47.26803206377408" lon="-1.545993089677343"><ele>27.0</ele><time>2026-03-31T15:41:23.999Z</time></trkpt><trkpt lat="47.26809920281848" lon="-1.5459961071624848"><ele>27.5</ele><time>2026-03-31T15:41:24.999Z</time></trkpt><trkpt lat="47.268200875303954" lon="-1.5459926705821845"><ele>28.0</ele><time>2026-03-31T15:41:26.999Z</time></trkpt><trkpt lat="47.26833251309326" lon="-1.5460018068566415"><ele>28.5</ele><time>2026-03-31T15:41:28.999Z</time></trkpt><trkpt lat="47.26843774788758" lon="-1.5460188221200797"><ele>29.0</ele><time>2026-03-31T15:41:30.999Z</time></trkpt><trkpt lat="47.26854855664751" lon="-1.546061988921413"><ele>29.0</ele><time>2026-03-31T15:41:32.999Z</time></trkpt><trkpt lat="47.268635099797756" lon="-1.5461302176132297"><ele>29.0</ele><time>2026-03-31T15:41:34.999Z</time></trkpt><trkpt lat="47.268744483634144" lon="-1.546205822379837"><ele>29.0</ele><time>2026-03-31T15:41:36.999Z</time></trkpt><trkpt lat="47.26883831904015" lon="-1.5462295431658124"><ele>29.0</ele><time>2026-03-31T15:41:38.999Z</time></trkpt><trkpt lat="47.26895813834599" lon="-1.5462456364199018"><ele>29.0</ele><time>2026-03-31T15:41:40.999Z</time></trkpt><trkpt lat="47.26906932429156" lon="-1.5462750569000339"><ele>29.6</ele><time>2026-03-31T15:41:42.999Z</time></trkpt><trkpt lat="47.26915104784748" lon="-1.546247312800536"><ele>30.2</ele><time>2026-03-31T15:41:43.999Z</time></trkpt><trkpt lat="47.26921613332561" lon="-1.546231135727415"><ele>30.800000000000004</ele><time>2026-03-31T15:41:44.999Z</time></trkpt><trkpt lat="47.269290522716254" lon="-1.5462450496866798"><ele>31.400000000000002</ele><time>2026-03-31T15:41:45.999Z</time></trkpt><trkpt lat="47.26937031843445" lon="-1.5462241787477826"><ele>32.0</ele><time>2026-03-31T15:41:46.999Z</time></trkpt><trkpt lat="47.26952873640439" lon="-1.5461688581868505"><ele>31.999999999999996</ele><time>2026-03-31T15:41:48.999Z</time></trkpt><trkpt lat="47.26960186850956" lon="-1.5461644157781695"><ele>32.0</ele><time>2026-03-31T15:41:49.999Z</time></trkpt><trkpt lat="47.26966997147283" lon="-1.5461467299624776"><ele>32.0</ele><time>2026-03-31T15:41:50.999Z</time></trkpt><trkpt lat="47.269785767465144" lon="-1.5461505018189048"><ele>32.0</ele><time>2026-03-31T15:41:52.999Z</time></trkpt><trkpt lat="47.26985164922408" lon="-1.5461453888579701"><ele>31.999999999999996</ele><time>2026-03-31T15:41:53.999Z</time></trkpt><trkpt lat="47.269914723045446" lon="-1.5461351629361009"><ele>32.0</ele><time>2026-03-31T15:41:54.999Z</time></trkpt><trkpt lat="47.269993638663806" lon="-1.5461561176940297"><ele>32.0</ele><time>2026-03-31T15:41:55.999Z</time></trkpt><trkpt lat="47.27013960950754" lon="-1.5461867954596376"><ele>32.0</ele><time>2026-03-31T15:41:57.999Z</time></trkpt><trkpt lat="47.27030624174259" lon="-1.546209929512391"><ele>32.0</ele><time>2026-03-31T15:41:59.999Z</time></trkpt><trkpt lat="47.270383774346925" lon="-1.546226693318734"><ele>32.0</ele><time>2026-03-31T15:42:00.999Z</time></trkpt><trkpt lat="47.27045351178131" lon="-1.5462421160205697"><ele>32.2</ele><time>2026-03-31T15:42:01.999Z</time></trkpt><trkpt lat="47.27052890700034" lon="-1.546230548994193"><ele>32.400000000000006</ele><time>2026-03-31T15:42:02.999Z</time></trkpt><trkpt lat="47.27059524976394" lon="-1.5462303813561296"><ele>32.599999999999994</ele><time>2026-03-31T15:42:03.999Z</time></trkpt><trkpt lat="47.270712386860765" lon="-1.5462531801327561"><ele>32.8</ele><time>2026-03-31T15:42:05.999Z</time></trkpt><trkpt lat="47.27081808265976" lon="-1.5463028009995317"><ele>33.0</ele><time>2026-03-31T15:42:07.999Z</time></trkpt><trkpt lat="47.27095567160032" lon="-1.5463458839818336"><ele>33.0</ele><time>2026-03-31T15:42:09.999Z</time></trkpt><trkpt lat="47.27103902962736" lon="-1.5463597141220666"><ele>33.0</ele><time>2026-03-31T15:42:10.999Z</time></trkpt><trkpt lat="47.271113544746555" lon="-1.5463794115945197"><ele>33.0</ele><time>2026-03-31T15:42:11.999Z</time></trkpt><trkpt lat="47.27122502405874" lon="-1.5464534237995244"><ele>33.0</ele><time>2026-03-31T15:42:13.999Z</time></trkpt><trkpt lat="47.271296270235695" lon="-1.5464701876058675"><ele>33.0</ele><time>2026-03-31T15:42:14.999Z</time></trkpt><trkpt lat="47.27137485057793" lon="-1.5464901365354158"><ele>33.0</ele><time>2026-03-31T15:42:15.999Z</time></trkpt><trkpt lat="47.271493454507805" lon="-1.5465179644539453"><ele>32.666666666666664</ele><time>2026-03-31T15:42:17.999Z</time></trkpt><trkpt lat="47.27157614198259" lon="-1.5465444512679674"><ele>32.333333333333336</ele><time>2026-03-31T15:42:18.999Z</time></trkpt><trkpt lat="47.27165434513918" lon="-1.5465779788806537"><ele>32.0</ele><time>2026-03-31T15:42:19.999Z</time></trkpt><trkpt lat="47.271727561063386" lon="-1.546602956952105"><ele>31.666666666666668</ele><time>2026-03-31T15:42:20.999Z</time></trkpt><trkpt lat="47.27184306368909" lon="-1.5466498117908338"><ele>31.333333333333336</ele><time>2026-03-31T15:42:22.999Z</time></trkpt><trkpt lat="47.27191548333249" lon="-1.5466623846455911"><ele>31.0</ele><time>2026-03-31T15:42:23.999Z</time></trkpt><trkpt lat="47.271984340667046" lon="-1.5466745384051899"><ele>31.0</ele><time>2026-03-31T15:42:24.999Z</time></trkpt><trkpt lat="47.27205420382998" lon="-1.5467091556652883"><ele>31.000000000000004</ele><time>2026-03-31T15:42:25.999Z</time></trkpt><trkpt lat="47.27212687493048" lon="-1.5467368997647861"><ele>31.0</ele><time>2026-03-31T15:42:26.999Z</time></trkpt><trkpt lat="47.272193678698756" lon="-1.5467690862729648"><ele>31.0</ele><time>2026-03-31T15:42:27.999Z</time></trkpt><trkpt lat="47.27225859653882" lon="-1.546803200618873"><ele>31.000000000000004</ele><time>2026-03-31T15:42:28.999Z</time></trkpt><trkpt lat="47.27233130954883" lon="-1.5468190424158674"><ele>31.0</ele><time>2026-03-31T15:42:29.999Z</time></trkpt><trkpt lat="47.2723967722126" lon="-1.5468463674202066"><ele>31.0</ele><time>2026-03-31T15:42:30.999Z</time></trkpt><trkpt lat="47.2724710358747" lon="-1.5468656457975012"><ele>31.166666666666668</ele><time>2026-03-31T15:42:31.999Z</time></trkpt><trkpt lat="47.27253561843864" lon="-1.5468814875944954"><ele>31.333333333333336</ele><time>2026-03-31T15:42:32.999Z</time></trkpt><trkpt lat="47.27259714160792" lon="-1.546902526171456"><ele>31.5</ele><time>2026-03-31T15:42:33.999Z</time></trkpt><trkpt lat="47.27266457401893" lon="-1.5469059627517563"><ele>31.666666666666664</ele><time>2026-03-31T15:42:34.999Z</time></trkpt><trkpt lat="47.27277446076951" lon="-1.5469487104579311"><ele>31.833333333333332</ele><time>2026-03-31T15:42:36.999Z</time></trkpt><trkpt lat="47.27284126453779" lon="-1.5469731017961603"><ele>32.0</ele><time>2026-03-31T15:42:37.999Z</time></trkpt><trkpt lat="47.27293799170039" lon="-1.547026494519363"><ele>32.25</ele><time>2026-03-31T15:42:39.999Z</time></trkpt><trkpt lat="47.27304745935581" lon="-1.5470472816392287"><ele>32.5</ele><time>2026-03-31T15:42:41.999Z</time></trkpt><trkpt lat="47.2731661051952" lon="-1.5470682363971575"><ele>32.75</ele><time>2026-03-31T15:42:43.999Z</time></trkpt><trkpt lat="47.27327662058852" lon="-1.5470935497447356"><ele>33.0</ele><time>2026-03-31T15:42:45.999Z</time></trkpt><trkpt lat="47.27339115929536" lon="-1.5471186954542502"><ele>33.0</ele><time>2026-03-31T15:42:47.999Z</time></trkpt><trkpt lat="47.27349228695712" lon="-1.5471544861807927"><ele>33.0</ele><time>2026-03-31T15:42:49.999Z</time></trkpt><trkpt lat="47.273581596135415" lon="-1.5472219605013235"><ele>33.0</ele><time>2026-03-31T15:42:51.999Z</time></trkpt><trkpt lat="47.27367258169434" lon="-1.547308461742054"><ele>33.0</ele><time>2026-03-31T15:42:53.999Z</time></trkpt><trkpt lat="47.27376373489133" lon="-1.5473960526301966"><ele>33.0</ele><time>2026-03-31T15:42:55.999Z</time></trkpt><trkpt lat="47.27384277623824" lon="-1.5475030895336972"><ele>33.0</ele><time>2026-03-31T15:42:57.999Z</time></trkpt><trkpt lat="47.27390861608765" lon="-1.54759654775406"><ele>33.0</ele><time>2026-03-31T15:42:59.999Z</time></trkpt><trkpt lat="47.27397529412738" lon="-1.547684306280266"><ele>33.0</ele><time>2026-03-31T15:43:01.999Z</time></trkpt><trkpt lat="47.274080696559764" lon="-1.5477363578989614"><ele>33.0</ele><time>2026-03-31T15:43:03.999Z</time></trkpt><trkpt lat="47.27416543760083" lon="-1.5477705560639015"><ele>33.0</ele><time>2026-03-31T15:43:05.999Z</time></trkpt><trkpt lat="47.27425432768396" lon="-1.5477506909533847"><ele>33.166666666666664</ele><time>2026-03-31T15:43:07.999Z</time></trkpt><trkpt lat="47.27432821416042" lon="-1.54771381057943"><ele>33.333333333333336</ele><time>2026-03-31T15:43:09.999Z</time></trkpt><trkpt lat="47.27439455692402" lon="-1.5476691350355256"><ele>33.5</ele><time>2026-03-31T15:43:11.999Z</time></trkpt><trkpt lat="47.27447016169063" lon="-1.5475931949927915"><ele>33.66666666666667</ele><time>2026-03-31T15:43:13.999Z</time></trkpt><trkpt lat="47.27454735901884" lon="-1.547524128110658"><ele>33.833333333333336</ele><time>2026-03-31T15:43:15.999Z</time></trkpt><trkpt lat="47.2746505821564" lon="-1.5474949590876208"><ele>34.0</ele><time>2026-03-31T15:43:17.999Z</time></trkpt><trkpt lat="47.274770694828845" lon="-1.547483978794466"><ele>34.66666666666667</ele><time>2026-03-31T15:43:19.999Z</time></trkpt><trkpt lat="47.27485996209762" lon="-1.547493115068923"><ele>35.333333333333336</ele><time>2026-03-31T15:43:21.999Z</time></trkpt><trkpt lat="47.27494616997174" lon="-1.5475045144572364"><ele>36.0</ele><time>2026-03-31T15:43:23.999Z</time></trkpt><trkpt lat="47.27503652688793" lon="-1.5475449990495551"><ele>36.666666666666664</ele><time>2026-03-31T15:43:26.999Z</time></trkpt><trkpt lat="47.275120471648194" lon="-1.5475636906936276"><ele>37.33333333333333</ele><time>2026-03-31T15:43:28.999Z</time></trkpt><trkpt lat="47.27520328485153" lon="-1.547593027354728"><ele>38.0</ele><time>2026-03-31T15:43:30.999Z</time></trkpt><trkpt lat="47.275300053923644" lon="-1.5476090367897857"><ele>38.0</ele><time>2026-03-31T15:43:32.999Z</time></trkpt><trkpt lat="47.275398080281235" lon="-1.5476376190796006"><ele>38.0</ele><time>2026-03-31T15:43:34.999Z</time></trkpt><trkpt lat="47.27549061649225" lon="-1.5476665366455424"><ele>38.0</ele><time>2026-03-31T15:43:36.999Z</time></trkpt><trkpt lat="47.27558340416036" lon="-1.547694029287945"><ele>38.0</ele><time>2026-03-31T15:43:38.999Z</time></trkpt><trkpt lat="47.275682184889234" lon="-1.5477195940926183"><ele>38.0</ele><time>2026-03-31T15:43:40.999Z</time></trkpt><trkpt lat="47.27577287708155" lon="-1.547762760893952"><ele>38.0</ele><time>2026-03-31T15:43:42.999Z</time></trkpt><trkpt lat="47.275844961448826" lon="-1.5478415507837644"><ele>38.0</ele><time>2026-03-31T15:43:44.999Z</time></trkpt><trkpt lat="47.27589516904882" lon="-1.547948000954043"><ele>38.0</ele><time>2026-03-31T15:43:46.999Z</time></trkpt><trkpt lat="47.275915285616435" lon="-1.548048751430165"><ele>38.0</ele><time>2026-03-31T15:43:48.999Z</time></trkpt><trkpt lat="47.275956063575364" lon="-1.5481517650201433"><ele>38.0</ele><time>2026-03-31T15:43:50.999Z</time></trkpt><trkpt lat="47.27604591757736" lon="-1.5482143778368347"><ele>38.0</ele><time>2026-03-31T15:43:52.999Z</time></trkpt><trkpt lat="47.27614608132026" lon="-1.5482569579049463"><ele>38.0</ele><time>2026-03-31T15:43:54.999Z</time></trkpt><trkpt lat="47.27624624506316" lon="-1.5482752304538603"><ele>38.0</ele><time>2026-03-31T15:43:56.999Z</time></trkpt><trkpt lat="47.276326753243126" lon="-1.5482456423356648"><ele>38.0</ele><time>2026-03-31T15:43:58.999Z</time></trkpt><trkpt lat="47.27641836744479" lon="-1.548191327603113"><ele>38.0</ele><time>2026-03-31T15:44:00.999Z</time></trkpt><trkpt lat="47.276507969989694" lon="-1.5481328219189756"><ele>38.0</ele><time>2026-03-31T15:44:02.999Z</time></trkpt><trkpt lat="47.276624729900874" lon="-1.5481130406274908"><ele>38.199999999999996</ele><time>2026-03-31T15:44:04.999Z</time></trkpt><trkpt lat="47.27674274709753" lon="-1.5481199137880914"><ele>38.4</ele><time>2026-03-31T15:44:06.999Z</time></trkpt><trkpt lat="47.276840941093184" lon="-1.548137683422815"><ele>38.599999999999994</ele><time>2026-03-31T15:44:08.999Z</time></trkpt><trkpt lat="47.27696080230854" lon="-1.5481624938562029"><ele>38.8</ele><time>2026-03-31T15:44:10.999Z</time></trkpt><trkpt lat="47.27705476344309" lon="-1.5481963567450159"><ele>39.0</ele><time>2026-03-31T15:44:12.999Z</time></trkpt><trkpt lat="47.27717454083941" lon="-1.5482380986228104"><ele>39.0</ele><time>2026-03-31T15:44:14.999Z</time></trkpt><trkpt lat="47.2772374051132" lon="-1.5482522640391703"><ele>39.0</ele><time>2026-03-31T15:44:15.999Z</time></trkpt><trkpt lat="47.277301987677134" lon="-1.548272045330655"><ele>39.0</ele><time>2026-03-31T15:44:16.999Z</time></trkpt><trkpt lat="47.2773642652177" lon="-1.5482913237079496"><ele>39.0</ele><time>2026-03-31T15:44:17.999Z</time></trkpt><trkpt lat="47.277429350695826" lon="-1.5483158826842423"><ele>39.0</ele><time>2026-03-31T15:44:18.999Z</time></trkpt><trkpt lat="47.27749435235493" lon="-1.5483282040819044"><ele>39.0</ele><time>2026-03-31T15:44:19.999Z</time></trkpt><trkpt lat="47.27755713280968" lon="-1.5483508352204676"><ele>39.0</ele><time>2026-03-31T15:44:20.999Z</time></trkpt><trkpt lat="47.27768541783772" lon="-1.5483841113760586"><ele>38.666666666666664</ele><time>2026-03-31T15:44:22.999Z</time></trkpt><trkpt lat="47.2777495813065" lon="-1.548401964829814"><ele>38.333333333333336</ele><time>2026-03-31T15:44:23.999Z</time></trkpt><trkpt lat="47.27782317441635" lon="-1.5484157111510153"><ele>38.0</ele><time>2026-03-31T15:44:24.999Z</time></trkpt><trkpt lat="47.27790644862436" lon="-1.5484318044051046"><ele>37.66666666666667</ele><time>2026-03-31T15:44:25.999Z</time></trkpt><trkpt lat="47.27800128985874" lon="-1.5484565310194607"><ele>37.333333333333336</ele><time>2026-03-31T15:44:26.999Z</time></trkpt><trkpt lat="47.278086533814" lon="-1.548476815225136"><ele>37.0</ele><time>2026-03-31T15:44:27.999Z</time></trkpt><trkpt lat="47.27817370560698" lon="-1.548503050582063"><ele>36.0</ele><time>2026-03-31T15:44:28.999Z</time></trkpt><trkpt lat="47.2782548843392" lon="-1.5485307946815607"><ele>35.0</ele><time>2026-03-31T15:44:29.999Z</time></trkpt><trkpt lat="47.2783516115018" lon="-1.5485496539636967"><ele>34.0</ele><time>2026-03-31T15:44:30.999Z</time></trkpt><trkpt lat="47.27843056902967" lon="-1.5485722012832281"><ele>33.0</ele><time>2026-03-31T15:44:31.999Z</time></trkpt><trkpt lat="47.27851195730947" lon="-1.548600532115948"><ele>32.0</ele><time>2026-03-31T15:44:32.999Z</time></trkpt><trkpt lat="47.278592130213305" lon="-1.548628779129636"><ele>31.0</ele><time>2026-03-31T15:44:33.999Z</time></trkpt><trkpt lat="47.27867980492048" lon="-1.5486606303616879"><ele>31.0</ele><time>2026-03-31T15:44:34.999Z</time></trkpt><trkpt lat="47.27876651570879" lon="-1.548687703908932"><ele>31.0</ele><time>2026-03-31T15:44:35.999Z</time></trkpt><trkpt lat="47.27885452569209" lon="-1.5487161185606837"><ele>31.0</ele><time>2026-03-31T15:44:36.999Z</time></trkpt><trkpt lat="47.27894002110444" lon="-1.548742856831801"><ele>31.0</ele><time>2026-03-31T15:44:37.999Z</time></trkpt><trkpt lat="47.27903272495352" lon="-1.5487653203323006"><ele>31.0</ele><time>2026-03-31T15:44:38.999Z</time></trkpt><trkpt lat="47.27914026477121" lon="-1.548787029461515"><ele>30.6</ele><time>2026-03-31T15:44:39.999Z</time></trkpt><trkpt lat="47.279240763790234" lon="-1.5488172881319642"><ele>30.200000000000003</ele><time>2026-03-31T15:44:40.999Z</time></trkpt><trkpt lat="47.279335563115104" lon="-1.5488483849927306"><ele>29.799999999999997</ele><time>2026-03-31T15:44:41.999Z</time></trkpt><trkpt lat="47.279426297216936" lon="-1.5488713514074206"><ele>29.4</ele><time>2026-03-31T15:44:42.999Z</time></trkpt><trkpt lat="47.27951728277586" lon="-1.5489006042494893"><ele>29.0</ele><time>2026-03-31T15:44:43.999Z</time></trkpt><trkpt lat="47.279605502306744" lon="-1.5489223133787036"><ele>28.999999999999996</ele><time>2026-03-31T15:44:44.999Z</time></trkpt><trkpt lat="47.27968274154447" lon="-1.5489495545640113"><ele>29.0</ele><time>2026-03-31T15:44:45.999Z</time></trkpt><trkpt lat="47.27977255363695" lon="-1.5489722695216062"><ele>29.0</ele><time>2026-03-31T15:44:46.999Z</time></trkpt><trkpt lat="47.27985674985431" lon="-1.5490043722107532"><ele>29.0</ele><time>2026-03-31T15:44:47.999Z</time></trkpt><trkpt lat="47.2799515910887" lon="-1.549026500435126"><ele>28.999999999999996</ele><time>2026-03-31T15:44:48.999Z</time></trkpt><trkpt lat="47.28003704459153" lon="-1.5490410849466445"><ele>29.0</ele><time>2026-03-31T15:44:49.999Z</time></trkpt><trkpt lat="47.28012618613176" lon="-1.5490669850274446"><ele>28.499999999999996</ele><time>2026-03-31T15:44:50.999Z</time></trkpt><trkpt lat="47.28021075953476" lon="-1.549083329738629"><ele>28.0</ele><time>2026-03-31T15:44:51.999Z</time></trkpt><trkpt lat="47.28028879505329" lon="-1.5491112414761903"><ele>27.5</ele><time>2026-03-31T15:44:52.999Z</time></trkpt><trkpt lat="47.28038983889602" lon="-1.5491684060558202"><ele>27.0</ele><time>2026-03-31T15:44:54.999Z</time></trkpt><trkpt lat="47.28046967652373" lon="-1.5491939708604936"><ele>26.499999999999996</ele><time>2026-03-31T15:44:55.999Z</time></trkpt><trkpt lat="47.280543185814544" lon="-1.5492201223983888"><ele>26.0</ele><time>2026-03-31T15:44:56.999Z</time></trkpt><trkpt lat="47.28061828766696" lon="-1.549238311128271"><ele>26.0</ele><time>2026-03-31T15:44:57.999Z</time></trkpt><trkpt lat="47.28068324741654" lon="-1.549261026085866"><ele>26.0</ele><time>2026-03-31T15:44:58.999Z</time></trkpt><trkpt lat="47.280748458623215" lon="-1.5492858365192537"><ele>26.0</ele><time>2026-03-31T15:44:59.999Z</time></trkpt><trkpt lat="47.280820794447585" lon="-1.5493086352958803"><ele>26.0</ele><time>2026-03-31T15:45:00.999Z</time></trkpt><trkpt lat="47.28089874614708" lon="-1.5493331942721729"><ele>26.0</ele><time>2026-03-31T15:45:01.999Z</time></trkpt><trkpt lat="47.280968902676626" lon="-1.5493497904404525"><ele>26.0</ele><time>2026-03-31T15:45:02.999Z</time></trkpt><trkpt lat="47.28103910111569" lon="-1.549371751026762"><ele>26.0</ele><time>2026-03-31T15:45:03.999Z</time></trkpt><trkpt lat="47.28111013774507" lon="-1.5493883471950416"><ele>26.0</ele><time>2026-03-31T15:45:04.999Z</time></trkpt><trkpt lat="47.28118197065525" lon="-1.5494134090855245"><ele>26.0</ele><time>2026-03-31T15:45:05.999Z</time></trkpt><trkpt lat="47.28131033950232" lon="-1.5494453441366083"><ele>26.0</ele><time>2026-03-31T15:45:07.999Z</time></trkpt><trkpt lat="47.281376640356406" lon="-1.5494694001987106"><ele>26.0</ele><time>2026-03-31T15:45:08.999Z</time></trkpt><trkpt lat="47.28150115352802" lon="-1.549504017458809"><ele>26.0</ele><time>2026-03-31T15:45:10.999Z</time></trkpt><trkpt lat="47.28157357317142" lon="-1.5495204459890253"><ele>26.333333333333332</ele><time>2026-03-31T15:45:11.999Z</time></trkpt><trkpt lat="47.28171489205889" lon="-1.5495507046594745"><ele>26.666666666666664</ele><time>2026-03-31T15:45:13.999Z</time></trkpt><trkpt lat="47.28178068999879" lon="-1.549570318312896"><ele>27.0</ele><time>2026-03-31T15:45:14.999Z</time></trkpt><trkpt lat="47.28185122371398" lon="-1.5495815500631458"><ele>27.333333333333336</ele><time>2026-03-31T15:45:15.999Z</time></trkpt><trkpt lat="47.281924523457214" lon="-1.5495951287462837"><ele>27.666666666666668</ele><time>2026-03-31T15:45:16.999Z</time></trkpt><trkpt lat="47.28198759727858" lon="-1.5496102999910242"><ele>28.0</ele><time>2026-03-31T15:45:17.999Z</time></trkpt><trkpt lat="47.282098028852865" lon="-1.5496375411763317"><ele>28.000000000000004</ele><time>2026-03-31T15:45:19.999Z</time></trkpt><trkpt lat="47.282168353020474" lon="-1.5496384631856805"><ele>28.0</ele><time>2026-03-31T15:45:20.999Z</time></trkpt><trkpt lat="47.28227878459476" lon="-1.5496429894133932"><ele>28.0</ele><time>2026-03-31T15:45:22.999Z</time></trkpt><trkpt lat="47.282342864244505" lon="-1.549651874230755"><ele>28.0</ele><time>2026-03-31T15:45:23.999Z</time></trkpt><trkpt lat="47.282441016330644" lon="-1.5496770199402699"><ele>28.000000000000004</ele><time>2026-03-31T15:45:25.999Z</time></trkpt><trkpt lat="47.28253594138406" lon="-1.5496918559088835"><ele>28.0</ele><time>2026-03-31T15:45:27.999Z</time></trkpt><trkpt lat="47.282636482312604" lon="-1.5496891736998686"><ele>28.2</ele><time>2026-03-31T15:45:29.999Z</time></trkpt><trkpt lat="47.282741800925955" lon="-1.5497274789973625"><ele>28.4</ele><time>2026-03-31T15:45:31.999Z</time></trkpt><trkpt lat="47.28283140347086" lon="-1.5498009044691452"><ele>28.599999999999998</ele><time>2026-03-31T15:45:33.999Z</time></trkpt><trkpt lat="47.28291467767887" lon="-1.5498411376043686"><ele>28.799999999999997</ele><time>2026-03-31T15:45:35.999Z</time></trkpt><trkpt lat="47.283001011281534" lon="-1.5498485974981913"><ele>29.0</ele><time>2026-03-31T15:45:37.999Z</time></trkpt><trkpt lat="47.28310088165782" lon="-1.5497715678080448"><ele>29.0</ele><time>2026-03-31T15:45:39.999Z</time></trkpt><trkpt lat="47.28321311534129" lon="-1.5497177559896835"><ele>29.0</ele><time>2026-03-31T15:45:41.999Z</time></trkpt><trkpt lat="47.28331705094062" lon="-1.549717336894525"><ele>29.0</ele><time>2026-03-31T15:45:43.999Z</time></trkpt><trkpt lat="47.28342081890188" lon="-1.5497351065292486"><ele>29.0</ele><time>2026-03-31T15:45:45.999Z</time></trkpt><trkpt lat="47.283546337901875" lon="-1.5497629344477781"><ele>29.0</ele><time>2026-03-31T15:45:47.999Z</time></trkpt><trkpt lat="47.28366829459302" lon="-1.5497652813806662"><ele>29.0</ele><time>2026-03-31T15:45:49.999Z</time></trkpt><trkpt lat="47.28373191323809" lon="-1.549767963589681"><ele>29.0</ele><time>2026-03-31T15:45:50.999Z</time></trkpt><trkpt lat="47.28385257073425" lon="-1.549766538666142"><ele>29.0</ele><time>2026-03-31T15:45:52.999Z</time></trkpt><trkpt lat="47.28393395901404" lon="-1.5497855655863413"><ele>29.0</ele><time>2026-03-31T15:45:54.999Z</time></trkpt><trkpt lat="47.28400063705377" lon="-1.5497945342227348"><ele>28.799999999999997</ele><time>2026-03-31T15:45:55.999Z</time></trkpt><trkpt lat="47.28412766479634" lon="-1.549828648568643"><ele>28.599999999999998</ele><time>2026-03-31T15:45:57.999Z</time></trkpt><trkpt lat="47.28419949770652" lon="-1.5498355217292437"><ele>28.4</ele><time>2026-03-31T15:45:58.999Z</time></trkpt><trkpt lat="47.28432137057863" lon="-1.5498359408244022"><ele>28.2</ele><time>2026-03-31T15:46:00.999Z</time></trkpt><trkpt lat="47.28443641219966" lon="-1.5498193446561226"><ele>28.0</ele><time>2026-03-31T15:46:02.999Z</time></trkpt><trkpt lat="47.28450744882904" lon="-1.5498169139042028"><ele>28.0</ele><time>2026-03-31T15:46:03.999Z</time></trkpt><trkpt lat="47.28457777299665" lon="-1.5498169977232346"><ele>27.999999999999996</ele><time>2026-03-31T15:46:04.999Z</time></trkpt><trkpt lat="47.28469876576893" lon="-1.5498077776297459"><ele>27.999999999999996</ele><time>2026-03-31T15:46:06.999Z</time></trkpt><trkpt lat="47.28480831724338" lon="-1.5498176682754883"><ele>28.0</ele><time>2026-03-31T15:46:08.999Z</time></trkpt><trkpt lat="47.284947917840704" lon="-1.5498091187342533"><ele>28.0</ele><time>2026-03-31T15:46:10.999Z</time></trkpt><trkpt lat="47.28501581125639" lon="-1.5498010721072086"><ele>27.833333333333336</ele><time>2026-03-31T15:46:11.999Z</time></trkpt><trkpt lat="47.28512808684938" lon="-1.5498381201192268"><ele>27.666666666666668</ele><time>2026-03-31T15:46:13.999Z</time></trkpt><trkpt lat="47.28520197332584" lon="-1.5499372780337464"><ele>27.5</ele><time>2026-03-31T15:46:15.999Z</time></trkpt><trkpt lat="47.28523524948143" lon="-1.5500337537392508"><ele>27.333333333333336</ele><time>2026-03-31T15:46:17.999Z</time></trkpt><trkpt lat="47.285267896994284" lon="-1.5501151420190464"><ele>27.166666666666668</ele><time>2026-03-31T15:46:20.999Z</time></trkpt><trkpt lat="47.28531458419495" lon="-1.5501785930260552"><ele>27.0</ele><time>2026-03-31T15:46:22.999Z</time></trkpt><trkpt lat="47.285376861735514" lon="-1.5502696204944981"><ele>27.200000000000003</ele><time>2026-03-31T15:46:24.999Z</time></trkpt><trkpt lat="47.28544810791247" lon="-1.550386045129551"><ele>27.400000000000002</ele><time>2026-03-31T15:46:26.999Z</time></trkpt><trkpt lat="47.28550812233918" lon="-1.5504651702954904"><ele>27.599999999999998</ele><time>2026-03-31T15:46:28.999Z</time></trkpt><trkpt lat="47.28562915702098" lon="-1.5504598058774606"><ele>27.799999999999997</ele><time>2026-03-31T15:46:30.999Z</time></trkpt><trkpt lat="47.28569583506071" lon="-1.5503318980350627"><ele>28.0</ele><time>2026-03-31T15:46:33.999Z</time></trkpt><trkpt lat="47.28573028468274" lon="-1.550189824776305"><ele>27.5</ele><time>2026-03-31T15:46:35.999Z</time></trkpt><trkpt lat="47.28577869017356" lon="-1.5500550437733065"><ele>27.0</ele><time>2026-03-31T15:46:37.999Z</time></trkpt><trkpt lat="47.28585970126771" lon="-1.549929734320892"><ele>26.5</ele><time>2026-03-31T15:46:39.999Z</time></trkpt><trkpt lat="47.285967702090076" lon="-1.5498331747963556"><ele>26.0</ele><time>2026-03-31T15:46:41.999Z</time></trkpt><trkpt lat="47.28607934904032" lon="-1.5497716516270765"><ele>26.0</ele><time>2026-03-31T15:46:43.999Z</time></trkpt><trkpt lat="47.286189487247995" lon="-1.5497704781606325"><ele>26.0</ele><time>2026-03-31T15:46:45.999Z</time></trkpt><trkpt lat="47.28625700347804" lon="-1.5497492719456085"><ele>26.0</ele><time>2026-03-31T15:46:46.999Z</time></trkpt><trkpt lat="47.286321208856336" lon="-1.549748266117228"><ele>26.0</ele><time>2026-03-31T15:46:47.999Z</time></trkpt><trkpt lat="47.286399412012926" lon="-1.5497413091375956"><ele>26.0</ele><time>2026-03-31T15:46:48.999Z</time></trkpt><trkpt lat="47.286462443924776" lon="-1.549735022710217"><ele>26.0</ele><time>2026-03-31T15:46:49.999Z</time></trkpt><trkpt lat="47.28652564347469" lon="-1.5497272275402674"><ele>26.0</ele><time>2026-03-31T15:46:50.999Z</time></trkpt><trkpt lat="47.28665183302694" lon="-1.54970585368718"><ele>25.833333333333332</ele><time>2026-03-31T15:46:52.999Z</time></trkpt><trkpt lat="47.28672760543161" lon="-1.5496969688698181"><ele>25.666666666666664</ele><time>2026-03-31T15:46:53.999Z</time></trkpt><trkpt lat="47.28679386437618" lon="-1.5496906824424395"><ele>25.5</ele><time>2026-03-31T15:46:54.999Z</time></trkpt><trkpt lat="47.28693572808736" lon="-1.5496499463930256"><ele>25.333333333333336</ele><time>2026-03-31T15:46:56.999Z</time></trkpt><trkpt lat="47.28700077165597" lon="-1.5496410615756637"><ele>25.166666666666668</ele><time>2026-03-31T15:46:57.999Z</time></trkpt><trkpt lat="47.28708819490605" lon="-1.5496374573573"><ele>25.0</ele><time>2026-03-31T15:46:58.999Z</time></trkpt><trkpt lat="47.28715680078351" lon="-1.549622118474496"><ele>25.25</ele><time>2026-03-31T15:46:59.999Z</time></trkpt><trkpt lat="47.28727758400821" lon="-1.5496155805900222"><ele>25.5</ele><time>2026-03-31T15:47:01.999Z</time></trkpt><trkpt lat="47.28739819959485" lon="-1.5495655406280882"><ele>25.75</ele><time>2026-03-31T15:47:03.999Z</time></trkpt><trkpt lat="47.28750846353107" lon="-1.5495350305005438"><ele>26.0</ele><time>2026-03-31T15:47:05.999Z</time></trkpt><trkpt lat="47.287630629769794" lon="-1.5495264809593088"><ele>26.0</ele><time>2026-03-31T15:47:07.999Z</time></trkpt><trkpt lat="47.287701540670625" lon="-1.549512567000044"><ele>26.0</ele><time>2026-03-31T15:47:09Z</time></trkpt><trkpt lat="47.287818510129384" lon="-1.549464873970998"><ele>26.0</ele><time>2026-03-31T15:47:11Z</time></trkpt><trkpt lat="47.287930701903335" lon="-1.5494375489666588"><ele>26.0</ele><time>2026-03-31T15:47:13Z</time></trkpt><trkpt lat="47.288046958900324" lon="-1.5494490321740038"><ele>26.0</ele><time>2026-03-31T15:47:15Z</time></trkpt><trkpt lat="47.288116151511005" lon="-1.5494548995062238"><ele>26.0</ele><time>2026-03-31T15:47:16Z</time></trkpt><trkpt lat="47.28822323032402" lon="-1.549440147356642"><ele>26.0</ele><time>2026-03-31T15:47:18Z</time></trkpt><trkpt lat="47.28831903547727" lon="-1.5494450926795131"><ele>26.0</ele><time>2026-03-31T15:47:20Z</time></trkpt><trkpt lat="47.288410565859905" lon="-1.549412654714239"><ele>26.0</ele><time>2026-03-31T15:47:23Z</time></trkpt><trkpt lat="47.28847146038645" lon="-1.5493835695102338"><ele>26.0</ele><time>2026-03-31T15:47:24Z</time></trkpt><trkpt lat="47.2885973984816" lon="-1.5493652969613199"><ele>25.999999999999996</ele><time>2026-03-31T15:47:26Z</time></trkpt><trkpt lat="47.28866772264921" lon="-1.5493535622968797"><ele>26.0</ele><time>2026-03-31T15:47:27Z</time></trkpt><trkpt lat="47.28874395605855" lon="-1.5493440069272642"><ele>26.0</ele><time>2026-03-31T15:47:28Z</time></trkpt><trkpt lat="47.28880782616072" lon="-1.549332272262824"><ele>26.0</ele><time>2026-03-31T15:47:29Z</time></trkpt><trkpt lat="47.28888460439377" lon="-1.5493146702661638"><ele>25.999999999999996</ele><time>2026-03-31T15:47:30Z</time></trkpt><trkpt lat="47.28897923608058" lon="-1.5492771193399553"><ele>26.0</ele><time>2026-03-31T15:47:31Z</time></trkpt><trkpt lat="47.28904679422014" lon="-1.5492567513152484"><ele>26.4</ele><time>2026-03-31T15:47:32Z</time></trkpt><trkpt lat="47.28915554941379" lon="-1.5492103993907098"><ele>26.8</ele><time>2026-03-31T15:47:34Z</time></trkpt><trkpt lat="47.289281780875555" lon="-1.5492145903422956"><ele>27.199999999999996</ele><time>2026-03-31T15:47:36Z</time></trkpt><trkpt lat="47.28938010059976" lon="-1.5492184460177545"><ele>27.599999999999998</ele><time>2026-03-31T15:47:38Z</time></trkpt><trkpt lat="47.28945796848022" lon="-1.5492120757713441"><ele>28.0</ele><time>2026-03-31T15:47:39Z</time></trkpt><trkpt lat="47.28951911446386" lon="-1.5492466930314426"><ele>28.000000000000004</ele><time>2026-03-31T15:47:40Z</time></trkpt><trkpt lat="47.289585918232135" lon="-1.5492572542294387"><ele>28.0</ele><time>2026-03-31T15:47:41Z</time></trkpt><trkpt lat="47.28965356019073" lon="-1.5492516383543138"><ele>28.0</ele><time>2026-03-31T15:47:42Z</time></trkpt><trkpt lat="47.28972183079206" lon="-1.5492614451810245"><ele>28.0</ele><time>2026-03-31T15:47:43Z</time></trkpt><trkpt lat="47.28979986631059" lon="-1.549238311128271"><ele>28.000000000000004</ele><time>2026-03-31T15:47:44Z</time></trkpt><trkpt lat="47.28987169922077" lon="-1.5492357127382879"><ele>28.0</ele><time>2026-03-31T15:47:45Z</time></trkpt><trkpt lat="47.29000036143445" lon="-1.5492156799897079"><ele>27.500000000000004</ele><time>2026-03-31T15:47:47Z</time></trkpt><trkpt lat="47.2900771396675" lon="-1.5492240618928794"><ele>27.0</ele><time>2026-03-31T15:47:48Z</time></trkpt><trkpt lat="47.29014436253094" lon="-1.5492316056057338"><ele>26.5</ele><time>2026-03-31T15:47:49Z</time></trkpt><trkpt lat="47.29025747631424" lon="-1.549193551765335"><ele>26.0</ele><time>2026-03-31T15:47:51Z</time></trkpt><trkpt lat="47.29032109495931" lon="-1.5491482056691768"><ele>25.500000000000004</ele><time>2026-03-31T15:47:53Z</time></trkpt><trkpt lat="47.29039477188819" lon="-1.5491014346494796"><ele>25.0</ele><time>2026-03-31T15:47:55Z</time></trkpt><trkpt lat="47.29048349433326" lon="-1.5491073019816997"><ele>25.0</ele><time>2026-03-31T15:47:57Z</time></trkpt><trkpt lat="47.29057129476898" lon="-1.5491130016758563"><ele>25.0</ele><time>2026-03-31T15:47:59Z</time></trkpt><trkpt lat="47.29068269026213" lon="-1.5491137560471417"><ele>25.0</ele><time>2026-03-31T15:48:01Z</time></trkpt><trkpt lat="47.29077447210186" lon="-1.5491067152484777"><ele>25.0</ele><time>2026-03-31T15:48:03Z</time></trkpt><trkpt lat="47.290837545923225" lon="-1.5491087269052388"><ele>25.0</ele><time>2026-03-31T15:48:04Z</time></trkpt><trkpt lat="47.29093829639935" lon="-1.5491034463062408"><ele>25.6</ele><time>2026-03-31T15:48:06Z</time></trkpt><trkpt lat="47.291039172604016" lon="-1.5491293463870408"><ele>26.2</ele><time>2026-03-31T15:48:07Z</time></trkpt><trkpt lat="47.29110593446278" lon="-1.5491677355035665"><ele>26.799999999999997</ele><time>2026-03-31T15:48:08Z</time></trkpt><trkpt lat="47.291221101812354" lon="-1.549169914798391"><ele>27.4</ele><time>2026-03-31T15:48:10Z</time></trkpt><trkpt lat="47.29131066244774" lon="-1.5491402428611638"><ele>28.0</ele><time>2026-03-31T15:48:13Z</time></trkpt><trkpt lat="47.29141103573822" lon="-1.5491073858007314"><ele>27.75</ele><time>2026-03-31T15:48:15Z</time></trkpt><trkpt lat="47.29158952836626" lon="-1.5491127502187612"><ele>27.5</ele><time>2026-03-31T15:48:18Z</time></trkpt><trkpt lat="47.29171852585607" lon="-1.5490983333453061"><ele>27.25</ele><time>2026-03-31T15:48:20Z</time></trkpt><trkpt lat="47.29178977203303" lon="-1.549102189020765"><ele>27.0</ele><time>2026-03-31T15:48:21Z</time></trkpt><trkpt lat="47.29186751418494" lon="-1.5490950644030692"><ele>27.0</ele><time>2026-03-31T15:48:22Z</time></trkpt><trkpt lat="47.29198159188711" lon="-1.5491112414761903"><ele>27.000000000000004</ele><time>2026-03-31T15:48:23Z</time></trkpt><trkpt lat="47.292078738144866" lon="-1.5490914601847054"><ele>27.000000000000004</ele><time>2026-03-31T15:48:25Z</time></trkpt><trkpt lat="47.29219608478927" lon="-1.5490900352611663"><ele>27.0</ele><time>2026-03-31T15:48:27Z</time></trkpt><trkpt lat="47.29226519358092" lon="-1.5491199586554887"><ele>27.0</ele><time>2026-03-31T15:48:29Z</time></trkpt><trkpt lat="47.29234050498091" lon="-1.5491600241526486"><ele>27.333333333333332</ele><time>2026-03-31T15:48:31Z</time></trkpt><trkpt lat="47.292393394789926" lon="-1.5492236427977208"><ele>27.666666666666664</ele><time>2026-03-31T15:48:33Z</time></trkpt><trkpt lat="47.29247122076087" lon="-1.5492370538427953"><ele>28.0</ele><time>2026-03-31T15:48:35Z</time></trkpt><trkpt lat="47.29255621325903" lon="-1.5492029394968871"><ele>28.333333333333332</ele><time>2026-03-31T15:48:38Z</time></trkpt><trkpt lat="47.29263466787272" lon="-1.5491926297559862"><ele>28.666666666666664</ele><time>2026-03-31T15:48:40Z</time></trkpt><trkpt lat="47.2927302634784" lon="-1.5491629578187587"><ele>29.0</ele><time>2026-03-31T15:48:42Z</time></trkpt><trkpt lat="47.292836252644" lon="-1.54915667139138"><ele>29.0</ele><time>2026-03-31T15:48:44Z</time></trkpt><trkpt lat="47.29295049798423" lon="-1.549179386348975"><ele>29.0</ele><time>2026-03-31T15:48:46Z</time></trkpt><trkpt lat="47.29303343691611" lon="-1.549184666947973"><ele>29.0</ele><time>2026-03-31T15:48:48Z</time></trkpt><trkpt lat="47.29312127926135" lon="-1.549165807665837"><ele>29.0</ele><time>2026-03-31T15:48:50Z</time></trkpt><trkpt lat="47.29321938943797" lon="-1.5491390693947198"><ele>29.0</ele><time>2026-03-31T15:48:52Z</time></trkpt><trkpt lat="47.29333325759256" lon="-1.5491135045900466"><ele>29.4</ele><time>2026-03-31T15:48:54Z</time></trkpt><trkpt lat="47.293416238433956" lon="-1.549028595910919"><ele>29.799999999999997</ele><time>2026-03-31T15:48:56Z</time></trkpt><trkpt lat="47.29351066057318" lon="-1.548959361390722"><ele>30.200000000000003</ele><time>2026-03-31T15:48:58Z</time></trkpt><trkpt lat="47.293603112965165" lon="-1.5489462018027425"><ele>30.6</ele><time>2026-03-31T15:48:59Z</time></trkpt><trkpt lat="47.293684878430604" lon="-1.5489287674441456"><ele>31.0</ele><time>2026-03-31T15:49:01Z</time></trkpt><trkpt lat="47.293800925880014" lon="-1.5489231515690207"><ele>31.0</ele><time>2026-03-31T15:49:03Z</time></trkpt><trkpt lat="47.29386856783861" lon="-1.5489202179029107"><ele>31.0</ele><time>2026-03-31T15:49:04Z</time></trkpt><trkpt lat="47.29398993779653" lon="-1.548918373884213"><ele>31.0</ele><time>2026-03-31T15:49:06Z</time></trkpt><trkpt lat="47.294110008559464" lon="-1.548914518208754"><ele>31.0</ele><time>2026-03-31T15:49:08Z</time></trkpt><trkpt lat="47.29422626555645" lon="-1.5489346347763657"><ele>31.0</ele><time>2026-03-31T15:49:10Z</time></trkpt><trkpt lat="47.294352203651606" lon="-1.5489258337780356"><ele>31.166666666666668</ele><time>2026-03-31T15:49:12Z</time></trkpt><trkpt lat="47.294416953853606" lon="-1.5488982573166012"><ele>31.333333333333336</ele><time>2026-03-31T15:49:13Z</time></trkpt><trkpt lat="47.294537862806855" lon="-1.5488917194321274"><ele>31.5</ele><time>2026-03-31T15:49:15Z</time></trkpt><trkpt lat="47.29460420557046" lon="-1.5489122550948977"><ele>31.666666666666664</ele><time>2026-03-31T15:49:16Z</time></trkpt><trkpt lat="47.29467260190034" lon="-1.5489232353880524"><ele>31.833333333333332</ele><time>2026-03-31T15:49:17Z</time></trkpt><trkpt lat="47.29475713339382" lon="-1.5489390771850466"><ele>32.0</ele><time>2026-03-31T15:49:18Z</time></trkpt><trkpt lat="47.29488160465592" lon="-1.548929521815431"><ele>31.999999999999996</ele><time>2026-03-31T15:49:20Z</time></trkpt><trkpt lat="47.29495549113238" lon="-1.548926923425448"><ele>32.0</ele><time>2026-03-31T15:49:21Z</time></trkpt><trkpt lat="47.2950319340893" lon="-1.5489123389139294"><ele>32.0</ele><time>2026-03-31T15:49:22Z</time></trkpt><trkpt lat="47.295120530805825" lon="-1.5489109139903903"><ele>32.0</ele><time>2026-03-31T15:49:23Z</time></trkpt><trkpt lat="47.29519781195307" lon="-1.548904795201075"><ele>31.999999999999996</ele><time>2026-03-31T15:49:24Z</time></trkpt><trkpt lat="47.295279786966084" lon="-1.5489110816284537"><ele>32.0</ele><time>2026-03-31T15:49:25Z</time></trkpt><trkpt lat="47.29535610419446" lon="-1.548883337528956"><ele>32.0</ele><time>2026-03-31T15:49:26Z</time></trkpt><trkpt lat="47.295486987612485" lon="-1.5488981734975695"><ele>32.0</ele><time>2026-03-31T15:49:28Z</time></trkpt><trkpt lat="47.295618499673246" lon="-1.5489062201246142"><ele>32.0</ele><time>2026-03-31T15:49:30Z</time></trkpt><trkpt lat="47.29569385298276" lon="-1.548905130477202"><ele>32.0</ele><time>2026-03-31T15:49:31Z</time></trkpt><trkpt lat="47.29577871975237" lon="-1.5488885343089223"><ele>32.0</ele><time>2026-03-31T15:49:32Z</time></trkpt><trkpt lat="47.29585943747991" lon="-1.5488908812418103"><ele>31.833333333333332</ele><time>2026-03-31T15:49:33Z</time></trkpt><trkpt lat="47.29593839500779" lon="-1.548866825179708"><ele>31.666666666666664</ele><time>2026-03-31T15:49:34Z</time></trkpt><trkpt lat="47.29600897063249" lon="-1.5488349739476561"><ele>31.5</ele><time>2026-03-31T15:49:35Z</time></trkpt><trkpt lat="47.29607812133366" lon="-1.5488157793893933"><ele>31.333333333333336</ele><time>2026-03-31T15:49:36Z</time></trkpt><trkpt lat="47.296145218468546" lon="-1.5487841796144366"><ele>31.166666666666668</ele><time>2026-03-31T15:49:37Z</time></trkpt><trkpt lat="47.296226355291246" lon="-1.5487606264665246"><ele>31.0</ele><time>2026-03-31T15:49:38Z</time></trkpt><trkpt lat="47.29630430699074" lon="-1.5487399231656909"><ele>31.0</ele><time>2026-03-31T15:49:39Z</time></trkpt><trkpt lat="47.29638121095234" lon="-1.548735732214105"><ele>31.000000000000004</ele><time>2026-03-31T15:49:40Z</time></trkpt><trkpt lat="47.29645119984382" lon="-1.548725171016109"><ele>31.0</ele><time>2026-03-31T15:49:41Z</time></trkpt><trkpt lat="47.296528313353" lon="-1.5487164538368106"><ele>31.0</ele><time>2026-03-31T15:49:42Z</time></trkpt><trkpt lat="47.296595033302246" lon="-1.5487043000772116"><ele>31.000000000000004</ele><time>2026-03-31T15:49:43Z</time></trkpt><trkpt lat="47.296659993051826" lon="-1.5486908052131054"><ele>31.0</ele><time>2026-03-31T15:49:44Z</time></trkpt><trkpt lat="47.296733963347314" lon="-1.548662642018449"><ele>31.0</ele><time>2026-03-31T15:49:45Z</time></trkpt><trkpt lat="47.29680910710925" lon="-1.5486533381059286"><ele>30.166666666666668</ele><time>2026-03-31T15:49:46Z</time></trkpt><trkpt lat="47.29687356394464" lon="-1.548640010879886"><ele>29.333333333333336</ele><time>2026-03-31T15:49:47Z</time></trkpt><trkpt lat="47.29693755977535" lon="-1.5486183017506716"><ele>28.5</ele><time>2026-03-31T15:49:48Z</time></trkpt><trkpt lat="47.2970404895463" lon="-1.5485871210708735"><ele>27.666666666666664</ele><time>2026-03-31T15:49:50Z</time></trkpt><trkpt lat="47.29715582453394" lon="-1.548597011716616"><ele>26.833333333333332</ele><time>2026-03-31T15:49:52Z</time></trkpt><trkpt lat="47.29723419532859" lon="-1.548594916240823"><ele>26.0</ele><time>2026-03-31T15:49:54Z</time></trkpt><trkpt lat="47.29732497133994" lon="-1.5485572814955828"><ele>25.999999999999996</ele><time>2026-03-31T15:49:56Z</time></trkpt><trkpt lat="47.297445377379" lon="-1.5485313814147827"><ele>26.0</ele><time>2026-03-31T15:49:58Z</time></trkpt><trkpt lat="47.29750706818634" lon="-1.548506570981395"><ele>26.0</ele><time>2026-03-31T15:49:59Z</time></trkpt><trkpt lat="47.29757789526814" lon="-1.548481509090912"><ele>26.0</ele><time>2026-03-31T15:50:00Z</time></trkpt><trkpt lat="47.29764528576964" lon="-1.5484544355436678"><ele>25.999999999999996</ele><time>2026-03-31T15:50:01Z</time></trkpt><trkpt lat="47.29771305345678" lon="-1.548431133852851"><ele>26.0</ele><time>2026-03-31T15:50:02Z</time></trkpt><trkpt lat="47.29779100515628" lon="-1.5483917389079447"><ele>25.999999999999996</ele><time>2026-03-31T15:50:03Z</time></trkpt><trkpt lat="47.29787867986345" lon="-1.5483665093793983"><ele>26.0</ele><time>2026-03-31T15:50:04Z</time></trkpt><trkpt lat="47.29799598459834" lon="-1.5483888052418346"><ele>26.0</ele><time>2026-03-31T15:50:06Z</time></trkpt><trkpt lat="47.2980651352995" lon="-1.5483968518688793"><ele>26.0</ele><time>2026-03-31T15:50:07Z</time></trkpt><trkpt lat="47.29812820912087" lon="-1.5483946725740547"><ele>25.999999999999996</ele><time>2026-03-31T15:50:08Z</time></trkpt><trkpt lat="47.29819312696093" lon="-1.548389894889247"><ele>26.0</ele><time>2026-03-31T15:50:09Z</time></trkpt><trkpt lat="47.298261900476454" lon="-1.548352176324975"><ele>25.666666666666664</ele><time>2026-03-31T15:50:10Z</time></trkpt><trkpt lat="47.298341109461425" lon="-1.5483416989460106"><ele>25.333333333333332</ele><time>2026-03-31T15:50:11Z</time></trkpt><trkpt lat="47.29841277473354" lon="-1.5483340714141245"><ele>25.0</ele><time>2026-03-31T15:50:12Z</time></trkpt><trkpt lat="47.29847920131618" lon="-1.5483178105219717"><ele>24.666666666666664</ele><time>2026-03-31T15:50:13Z</time></trkpt><trkpt lat="47.29854525071317" lon="-1.5483005438014383"><ele>24.333333333333332</ele><time>2026-03-31T15:50:14Z</time></trkpt><trkpt lat="47.29865044359797" lon="-1.548240277917635"><ele>24.0</ele><time>2026-03-31T15:50:16Z</time></trkpt><trkpt lat="47.298718378923176" lon="-1.5482350811376686"><ele>24.0</ele><time>2026-03-31T15:50:17Z</time></trkpt><trkpt lat="47.29878551796758" lon="-1.5482102707042806"><ele>24.0</ele><time>2026-03-31T15:50:18Z</time></trkpt><trkpt lat="47.298859823539196" lon="-1.548190405593764"><ele>24.0</ele><time>2026-03-31T15:50:19Z</time></trkpt><trkpt lat="47.298926920674084" lon="-1.5481776651009433"><ele>24.0</ele><time>2026-03-31T15:50:20Z</time></trkpt><trkpt lat="47.299046907617985" lon="-1.548141539098274"><ele>24.0</ele><time>2026-03-31T15:50:22Z</time></trkpt><trkpt lat="47.299126326150535" lon="-1.5481187403216474"><ele>24.0</ele><time>2026-03-31T15:50:24Z</time></trkpt><trkpt lat="47.29923462033951" lon="-1.5480893198415153"><ele>24.4</ele><time>2026-03-31T15:50:26Z</time></trkpt><trkpt lat="47.29933486790144" lon="-1.5480616595610492"><ele>24.799999999999997</ele><time>2026-03-31T15:50:28Z</time></trkpt><trkpt lat="47.29942849375987" lon="-1.548034921289932"><ele>25.200000000000003</ele><time>2026-03-31T15:50:30Z</time></trkpt><trkpt lat="47.29950963058257" lon="-1.547985384242188"><ele>25.6</ele><time>2026-03-31T15:50:32Z</time></trkpt><trkpt lat="47.29963456284934" lon="-1.5479350928231588"><ele>26.0</ele><time>2026-03-31T15:50:34Z</time></trkpt><trkpt lat="47.29975081984633" lon="-1.5478815324618926"><ele>26.0</ele><time>2026-03-31T15:50:36Z</time></trkpt><trkpt lat="47.29984205686235" lon="-1.5478724800064674"><ele>26.0</ele><time>2026-03-31T15:50:38Z</time></trkpt><trkpt lat="47.299962840087055" lon="-1.5478211827590576"><ele>26.0</ele><time>2026-03-31T15:50:40Z</time></trkpt><trkpt lat="47.30008035436952" lon="-1.547783967108976"><ele>26.0</ele><time>2026-03-31T15:50:42Z</time></trkpt><trkpt lat="47.30019770101392" lon="-1.5477337595089782"><ele>26.0</ele><time>2026-03-31T15:50:44Z</time></trkpt><trkpt lat="47.300289524763166" lon="-1.5476923529073108"><ele>26.0</ele><time>2026-03-31T15:50:46Z</time></trkpt><trkpt lat="47.300420030995554" lon="-1.547649605201136"><ele>26.0</ele><time>2026-03-31T15:50:48Z</time></trkpt><trkpt lat="47.30049513284797" lon="-1.54763367958511"><ele>26.0</ele><time>2026-03-31T15:50:49Z</time></trkpt><trkpt lat="47.30055829048837" lon="-1.5476116351797689"><ele>26.0</ele><time>2026-03-31T15:50:50Z</time></trkpt><trkpt lat="47.30065790940756" lon="-1.5475586615517247"><ele>25.666666666666664</ele><time>2026-03-31T15:50:52Z</time></trkpt><trkpt lat="47.300721528052634" lon="-1.5475359465941299"><ele>25.333333333333332</ele><time>2026-03-31T15:50:53Z</time></trkpt><trkpt lat="47.30079671372408" lon="-1.5474859066321955"><ele>25.0</ele><time>2026-03-31T15:50:55Z</time></trkpt><trkpt lat="47.30087437205697" lon="-1.5474620182081567"><ele>24.666666666666664</ele><time>2026-03-31T15:50:56Z</time></trkpt><trkpt lat="47.30095094074244" lon="-1.5474329330041514"><ele>24.333333333333332</ele><time>2026-03-31T15:50:57Z</time></trkpt><trkpt lat="47.30107059241021" lon="-1.5473727509393798"><ele>24.0</ele><time>2026-03-31T15:50:59Z</time></trkpt><trkpt lat="47.30113898874009" lon="-1.5473454259350405"><ele>24.0</ele><time>2026-03-31T15:51:00Z</time></trkpt><trkpt lat="47.30121823963458" lon="-1.5473176818355427"><ele>24.0</ele><time>2026-03-31T15:51:01Z</time></trkpt><trkpt lat="47.301295772238916" lon="-1.547284908594142"><ele>24.0</ele><time>2026-03-31T15:51:02Z</time></trkpt><trkpt lat="47.301361151083654" lon="-1.5472693182542427"><ele>24.0</ele><time>2026-03-31T15:51:03Z</time></trkpt><trkpt lat="47.301468187987155" lon="-1.54721299186493"><ele>24.0</ele><time>2026-03-31T15:51:05Z</time></trkpt><trkpt lat="47.30153105226094" lon="-1.5471821464612587"><ele>24.0</ele><time>2026-03-31T15:51:06Z</time></trkpt><trkpt lat="47.30164609388197" lon="-1.5470723435297116"><ele>23.799999999999997</ele><time>2026-03-31T15:51:08Z</time></trkpt><trkpt lat="47.30178934060717" lon="-1.5470541547998293"><ele>23.599999999999998</ele><time>2026-03-31T15:51:10Z</time></trkpt><trkpt lat="47.301853462166434" lon="-1.547017944978128"><ele>23.4</ele><time>2026-03-31T15:51:11Z</time></trkpt><trkpt lat="47.301941388330704" lon="-1.5469146799310547"><ele>23.2</ele><time>2026-03-31T15:51:13Z</time></trkpt><trkpt lat="47.30199972637678" lon="-1.5468763746335608"><ele>23.0</ele><time>2026-03-31T15:51:14Z</time></trkpt><trkpt lat="47.302115270912" lon="-1.5468019433333973"><ele>22.75</ele><time>2026-03-31T15:51:17Z</time></trkpt><trkpt lat="47.30218567889864" lon="-1.5467495564385751"><ele>22.5</ele><time>2026-03-31T15:51:18Z</time></trkpt><trkpt lat="47.3022860102796" lon="-1.546727512033234"><ele>22.25</ele><time>2026-03-31T15:51:19Z</time></trkpt><trkpt lat="47.302417606159395" lon="-1.5466531645521024"><ele>22.0</ele><time>2026-03-31T15:51:21Z</time></trkpt><trkpt lat="47.30256776795471" lon="-1.5466493926956753"><ele>21.833333333333332</ele><time>2026-03-31T15:51:23Z</time></trkpt><trkpt lat="47.302618227011806" lon="-1.5465924795731405"><ele>21.666666666666664</ele><time>2026-03-31T15:51:24Z</time></trkpt><trkpt lat="47.30270175267691" lon="-1.5465682558729748"><ele>21.5</ele><time>2026-03-31T15:51:25Z</time></trkpt><trkpt lat="47.302786284170395" lon="-1.5465887077167133"><ele>21.333333333333332</ele><time>2026-03-31T15:51:26Z</time></trkpt><trkpt lat="47.30285040572966" lon="-1.546603795142422"><ele>21.166666666666668</ele><time>2026-03-31T15:51:27Z</time></trkpt><trkpt lat="47.30298736602748" lon="-1.5466716047390798"><ele>21.0</ele><time>2026-03-31T15:51:29Z</time></trkpt><trkpt lat="47.303053876429146" lon="-1.546692727135072"><ele>21.200000000000003</ele><time>2026-03-31T15:51:30Z</time></trkpt><trkpt lat="47.30314377234066" lon="-1.546745784582148"><ele>21.400000000000002</ele><time>2026-03-31T15:51:33Z</time></trkpt><trkpt lat="47.303141215860194" lon="-1.5468694176539284"><ele>21.6</ele><time>2026-03-31T15:51:35Z</time></trkpt><trkpt lat="47.30310261719609" lon="-1.5469935536398989"><ele>21.8</ele><time>2026-03-31T15:51:37Z</time></trkpt><trkpt lat="47.30305240959609" lon="-1.5471319388612612"><ele>22.0</ele><time>2026-03-31T15:51:39Z</time></trkpt><trkpt lat="47.302981037690586" lon="-1.5472857467844592"><ele>22.0</ele><time>2026-03-31T15:51:41Z</time></trkpt><trkpt lat="47.30288711846555" lon="-1.5473911073073254"><ele>22.0</ele><time>2026-03-31T15:51:43Z</time></trkpt><trkpt lat="47.30280405380512" lon="-1.547478111462246"><ele>22.0</ele><time>2026-03-31T15:51:45Z</time></trkpt><trkpt lat="47.302699866748696" lon="-1.54758481308962"><ele>22.0</ele><time>2026-03-31T15:51:47Z</time></trkpt><trkpt lat="47.30262539353902" lon="-1.547675505281936"><ele>22.0</ele><time>2026-03-31T15:51:49Z</time></trkpt><trkpt lat="47.30257241991097" lon="-1.5477290656432021"><ele>22.0</ele><time>2026-03-31T15:51:50Z</time></trkpt><trkpt lat="47.302484284199124" lon="-1.5477952826782575"><ele>22.0</ele><time>2026-03-31T15:51:52Z</time></trkpt><trkpt lat="47.3023983277821" lon="-1.5478815324618926"><ele>22.0</ele><time>2026-03-31T15:51:54Z</time></trkpt><trkpt lat="47.302315011664575" lon="-1.5479582268759122"><ele>22.0</ele><time>2026-03-31T15:51:56Z</time></trkpt><trkpt lat="47.302238526798135" lon="-1.5480479970588796"><ele>22.0</ele><time>2026-03-31T15:51:58Z</time></trkpt><trkpt lat="47.30215064254338" lon="-1.5481560397907608"><ele>22.6</ele><time>2026-03-31T15:52:00Z</time></trkpt><trkpt lat="47.30209452570165" lon="-1.5482021402582042"><ele>23.200000000000003</ele><time>2026-03-31T15:52:01Z</time></trkpt><trkpt lat="47.30203115851367" lon="-1.5483367536231394"><ele>23.8</ele><time>2026-03-31T15:52:03Z</time></trkpt><trkpt lat="47.301948345310336" lon="-1.5484172198935862"><ele>24.4</ele><time>2026-03-31T15:52:05Z</time></trkpt><trkpt lat="47.30184206277812" lon="-1.5484843589379904"><ele>25.0</ele><time>2026-03-31T15:52:07Z</time></trkpt><trkpt lat="47.30171549604023" lon="-1.5485359076424954"><ele>25.0</ele><time>2026-03-31T15:52:09Z</time></trkpt><trkpt lat="47.301631635099" lon="-1.5486257616444943"><ele>25.0</ele><time>2026-03-31T15:52:11Z</time></trkpt><trkpt lat="47.30157166258181" lon="-1.5486636478468296"><ele>25.0</ele><time>2026-03-31T15:52:12Z</time></trkpt><trkpt lat="47.301466050601846" lon="-1.5487295296057582"><ele>25.0</ele><time>2026-03-31T15:52:14Z</time></trkpt><trkpt lat="47.301353858827895" lon="-1.548771690578711"><ele>25.0</ele><time>2026-03-31T15:52:16Z</time></trkpt><trkpt lat="47.30124786966229" lon="-1.5488492231830477"><ele>25.4</ele><time>2026-03-31T15:52:18Z</time></trkpt><trkpt lat="47.30117343836213" lon="-1.5489158593132615"><ele>25.8</ele><time>2026-03-31T15:52:20Z</time></trkpt><trkpt lat="47.30110751469368" lon="-1.5490184538080813"><ele>26.200000000000003</ele><time>2026-03-31T15:52:22Z</time></trkpt><trkpt lat="47.30108236898417" lon="-1.5491551626488091"><ele>26.6</ele><time>2026-03-31T15:52:24Z</time></trkpt><trkpt lat="47.30097969067032" lon="-1.5492220502361183"><ele>27.0</ele><time>2026-03-31T15:52:27Z</time></trkpt><trkpt lat="47.30086192493076" lon="-1.5491908695563201"><ele>27.0</ele><time>2026-03-31T15:52:29Z</time></trkpt><trkpt lat="47.30074747004295" lon="-1.549221547321928"><ele>27.000000000000004</ele><time>2026-03-31T15:52:31Z</time></trkpt><trkpt lat="47.300634104802555" lon="-1.549286590890539"><ele>27.000000000000004</ele><time>2026-03-31T15:52:33Z</time></trkpt><trkpt lat="47.30054127522493" lon="-1.549379127101553"><ele>27.0</ele><time>2026-03-31T15:52:35Z</time></trkpt><trkpt lat="47.300448655194884" lon="-1.5494269877686626"><ele>27.0</ele><time>2026-03-31T15:52:37Z</time></trkpt><trkpt lat="47.300393208905405" lon="-1.5494768600925333"><ele>27.400000000000002</ele><time>2026-03-31T15:52:38Z</time></trkpt><trkpt lat="47.30031358082527" lon="-1.5495918598040468"><ele>27.800000000000004</ele><time>2026-03-31T15:52:40Z</time></trkpt><trkpt lat="47.30024145454848" lon="-1.5496330987676508"><ele>28.2</ele><time>2026-03-31T15:52:42Z</time></trkpt><trkpt lat="47.30014024306768" lon="-1.5496762655689844"><ele>28.6</ele><time>2026-03-31T15:52:44Z</time></trkpt><trkpt lat="47.30003337380224" lon="-1.5497602522387632"><ele>29.0</ele><time>2026-03-31T15:52:46Z</time></trkpt><trkpt lat="47.29994364552879" lon="-1.5498269721880087"><ele>29.0</ele><time>2026-03-31T15:52:48Z</time></trkpt><trkpt lat="47.2998696752333" lon="-1.5498730726554522"><ele>29.0</ele><time>2026-03-31T15:52:50Z</time></trkpt><trkpt lat="47.299792268357514" lon="-1.5499534551068674"><ele>29.0</ele><time>2026-03-31T15:52:52Z</time></trkpt><trkpt lat="47.299728523983894" lon="-1.5500505175455939"><ele>29.0</ele><time>2026-03-31T15:52:54Z</time></trkpt><trkpt lat="47.29962412737989" lon="-1.5501055028303992"><ele>29.0</ele><time>2026-03-31T15:52:56Z</time></trkpt><trkpt lat="47.299517258114456" lon="-1.5501371026053559"><ele>29.25</ele><time>2026-03-31T15:52:58Z</time></trkpt><trkpt lat="47.299408293373226" lon="-1.5501499269172085"><ele>29.5</ele><time>2026-03-31T15:53:00Z</time></trkpt><trkpt lat="47.299292874566554" lon="-1.5501973684891595"><ele>29.75</ele><time>2026-03-31T15:53:02Z</time></trkpt><trkpt lat="47.29918302972549" lon="-1.550245480613364"><ele>30.0</ele><time>2026-03-31T15:53:04Z</time></trkpt><trkpt lat="47.29909510356122" lon="-1.5503463149085177"><ele>30.0</ele><time>2026-03-31T15:53:06Z</time></trkpt><trkpt lat="47.29901208081031" lon="-1.5503661800190343"><ele>30.0</ele><time>2026-03-31T15:53:07Z</time></trkpt><trkpt lat="47.29893194981599" lon="-1.5504253562554255"><ele>30.0</ele><time>2026-03-31T15:53:09Z</time></trkpt><trkpt lat="47.298868750266074" lon="-1.5504492446794644"><ele>30.0</ele><time>2026-03-31T15:53:10Z</time></trkpt><trkpt lat="47.298795785798966" lon="-1.5505555272116796"><ele>30.0</ele><time>2026-03-31T15:53:12Z</time></trkpt><trkpt lat="47.29869616687977" lon="-1.5506224986180204"><ele>30.0</ele><time>2026-03-31T15:53:14Z</time></trkpt><trkpt lat="47.29858724404806" lon="-1.5506690181806224"><ele>30.0</ele><time>2026-03-31T15:53:16Z</time></trkpt><trkpt lat="47.29846704755658" lon="-1.5507226623609203"><ele>30.0</ele><time>2026-03-31T15:53:18Z</time></trkpt><trkpt lat="47.298360932662426" lon="-1.5507814195021528"><ele>30.0</ele><time>2026-03-31T15:53:20Z</time></trkpt><trkpt lat="47.298269695646404" lon="-1.550804302097811"><ele>30.0</ele><time>2026-03-31T15:53:21Z</time></trkpt><trkpt lat="47.298211315690814" lon="-1.5508471336230176"><ele>30.0</ele><time>2026-03-31T15:53:22Z</time></trkpt><trkpt lat="47.29816969954157" lon="-1.5509520750507255"><ele>30.0</ele><time>2026-03-31T15:53:24Z</time></trkpt><trkpt lat="47.298087473071455" lon="-1.5510363969966312"><ele>30.0</ele><time>2026-03-31T15:53:26Z</time></trkpt><trkpt lat="47.297990536361276" lon="-1.5511161088957928"><ele>30.0</ele><time>2026-03-31T15:53:28Z</time></trkpt><trkpt lat="47.29788706176662" lon="-1.551201185212984"><ele>30.0</ele><time>2026-03-31T15:53:30Z</time></trkpt><trkpt lat="47.29779745922172" lon="-1.5512902848436974"><ele>30.6</ele><time>2026-03-31T15:53:32Z</time></trkpt><trkpt lat="47.29771405928516" lon="-1.551365554334178"><ele>31.2</ele><time>2026-03-31T15:53:34Z</time></trkpt><trkpt lat="47.29763363492423" lon="-1.5514546539648915"><ele>31.799999999999997</ele><time>2026-03-31T15:53:36Z</time></trkpt><trkpt lat="47.29754704986447" lon="-1.5515135787441874"><ele>32.4</ele><time>2026-03-31T15:53:38Z</time></trkpt><trkpt lat="47.297449358783005" lon="-1.5515688993051195"><ele>33.0</ele><time>2026-03-31T15:53:40Z</time></trkpt><trkpt lat="47.297360929704546" lon="-1.5516416542246487"><ele>33.0</ele><time>2026-03-31T15:53:42Z</time></trkpt><trkpt lat="47.29727962524378" lon="-1.5517364535495188"><ele>33.0</ele><time>2026-03-31T15:53:44Z</time></trkpt><trkpt lat="47.29718784340405" lon="-1.5518087055548575"><ele>33.0</ele><time>2026-03-31T15:53:46Z</time></trkpt><trkpt lat="47.29712435048753" lon="-1.551946168766871"><ele>33.0</ele><time>2026-03-31T15:53:48Z</time></trkpt><trkpt lat="47.29710352145815" lon="-1.5521174948676975"><ele>33.0</ele><time>2026-03-31T15:53:50Z</time></trkpt><trkpt lat="47.29704271075064" lon="-1.5522211790099294"><ele>33.6</ele><time>2026-03-31T15:53:52Z</time></trkpt><trkpt lat="47.29700696193361" lon="-1.5523235220476541"><ele>34.199999999999996</ele><time>2026-03-31T15:53:54Z</time></trkpt><trkpt lat="47.29694866579705" lon="-1.5524293854847107"><ele>34.8</ele><time>2026-03-31T15:53:56Z</time></trkpt><trkpt lat="47.296896027445136" lon="-1.5525525994613325"><ele>35.4</ele><time>2026-03-31T15:53:58Z</time></trkpt><trkpt lat="47.29684062306517" lon="-1.5526453033104097"><ele>36.0</ele><time>2026-03-31T15:54:00Z</time></trkpt><trkpt lat="47.29678513486618" lon="-1.5527639910593187"><ele>36.0</ele><time>2026-03-31T15:54:02Z</time></trkpt><trkpt lat="47.29673559781843" lon="-1.5528651606305994"><ele>36.0</ele><time>2026-03-31T15:54:04Z</time></trkpt><trkpt lat="47.2966649383747" lon="-1.5529746282860197"><ele>36.0</ele><time>2026-03-31T15:54:06Z</time></trkpt><trkpt lat="47.296581286981045" lon="-1.5530735347434441"><ele>36.0</ele><time>2026-03-31T15:54:08Z</time></trkpt><trkpt lat="47.29650027588689" lon="-1.5531614609077136"><ele>36.0</ele><time>2026-03-31T15:54:10Z</time></trkpt><trkpt lat="47.2964418959313" lon="-1.5532684978112143"><ele>36.4</ele><time>2026-03-31T15:54:12Z</time></trkpt><trkpt lat="47.29638108522379" lon="-1.5533772110953492"><ele>36.8</ele><time>2026-03-31T15:54:14Z</time></trkpt><trkpt lat="47.29633699641311" lon="-1.5535041131093665"><ele>37.199999999999996</ele><time>2026-03-31T15:54:16Z</time></trkpt><trkpt lat="47.29625426702881" lon="-1.5536103956415817"><ele>37.6</ele><time>2026-03-31T15:54:18Z</time></trkpt><trkpt lat="47.29622275107288" lon="-1.5537562407567667"><ele>38.0</ele><time>2026-03-31T15:54:20Z</time></trkpt><trkpt lat="47.29616114408457" lon="-1.5538595896228717"><ele>38.166666666666664</ele><time>2026-03-31T15:54:22Z</time></trkpt><trkpt lat="47.29609622624451" lon="-1.5539509523674415"><ele>38.33333333333333</ele><time>2026-03-31T15:54:24Z</time></trkpt><trkpt lat="47.296059136322974" lon="-1.554054217414515"><ele>38.5</ele><time>2026-03-31T15:54:26Z</time></trkpt><trkpt lat="47.2960058274188" lon="-1.554178856314676"><ele>38.666666666666664</ele><time>2026-03-31T15:54:28Z</time></trkpt><trkpt lat="47.29595344052398" lon="-1.5542489290251902"><ele>38.833333333333336</ele><time>2026-03-31T15:54:29Z</time></trkpt><trkpt lat="47.29589262981647" lon="-1.554368287326353"><ele>39.0</ele><time>2026-03-31T15:54:31Z</time></trkpt><trkpt lat="47.29585143276238" lon="-1.5544795151814395"><ele>38.8</ele><time>2026-03-31T15:54:33Z</time></trkpt><trkpt lat="47.29579523210162" lon="-1.5545802656575614"><ele>38.599999999999994</ele><time>2026-03-31T15:54:35Z</time></trkpt><trkpt lat="47.29573320601815" lon="-1.554684704171079"><ele>38.4</ele><time>2026-03-31T15:54:37Z</time></trkpt><trkpt lat="47.29566204366022" lon="-1.554729463534015"><ele>38.199999999999996</ele><time>2026-03-31T15:54:38Z</time></trkpt><trkpt lat="47.295643813020824" lon="-1.5548748895540412"><ele>38.0</ele><time>2026-03-31T15:54:40Z</time></trkpt><trkpt lat="47.29562005032533" lon="-1.5550201479360042"><ele>38.4</ele><time>2026-03-31T15:54:42Z</time></trkpt><trkpt lat="47.2955361893841" lon="-1.555122658611792"><ele>38.8</ele><time>2026-03-31T15:54:44Z</time></trkpt><trkpt lat="47.295468673154055" lon="-1.5552232414498508"><ele>39.2</ele><time>2026-03-31T15:54:46Z</time></trkpt><trkpt lat="47.295394702858566" lon="-1.5553437732174575"><ele>39.6</ele><time>2026-03-31T15:54:48Z</time></trkpt><trkpt lat="47.295372365086614" lon="-1.5554762911065998"><ele>40.0</ele><time>2026-03-31T15:54:50Z</time></trkpt><trkpt lat="47.29528146334672" lon="-1.5555663127466621"><ele>40.0</ele><time>2026-03-31T15:54:52Z</time></trkpt><trkpt lat="47.29519563265824" lon="-1.555695980788726"><ele>40.0</ele><time>2026-03-31T15:54:54Z</time></trkpt><trkpt lat="47.29513436094606" lon="-1.5558032691493218"><ele>40.0</ele><time>2026-03-31T15:54:56Z</time></trkpt><trkpt lat="47.29507443033838" lon="-1.5559302549823708"><ele>40.0</ele><time>2026-03-31T15:54:58Z</time></trkpt><trkpt lat="47.29500896767461" lon="-1.5560958813890404"><ele>40.0</ele><time>2026-03-31T15:55:01Z</time></trkpt><trkpt lat="47.29492389135742" lon="-1.5561907645329425"><ele>40.0</ele><time>2026-03-31T15:55:03Z</time></trkpt><trkpt lat="47.294879844456254" lon="-1.5562746673836896"><ele>40.0</ele><time>2026-03-31T15:55:04Z</time></trkpt><trkpt lat="47.29482674509966" lon="-1.5563810337349366"><ele>40.0</ele><time>2026-03-31T15:55:06Z</time></trkpt><trkpt lat="47.29478739206427" lon="-1.556488405914564"><ele>40.0</ele><time>2026-03-31T15:55:08Z</time></trkpt><trkpt lat="47.29474116586828" lon="-1.556597454474826"><ele>40.0</ele><time>2026-03-31T15:55:10Z</time></trkpt><trkpt lat="47.29467218280518" lon="-1.5567028149976923"><ele>40.6</ele><time>2026-03-31T15:55:12Z</time></trkpt><trkpt lat="47.29461137209767" lon="-1.5568057447686388"><ele>41.2</ele><time>2026-03-31T15:55:14Z</time></trkpt><trkpt lat="47.29453723416412" lon="-1.5569448843612865"><ele>41.8</ele><time>2026-03-31T15:55:16Z</time></trkpt><trkpt lat="47.2945070593127" lon="-1.557070277632733"><ele>42.4</ele><time>2026-03-31T15:55:18Z</time></trkpt><trkpt lat="47.29441653475845" lon="-1.5571956709041792"><ele>43.0</ele><time>2026-03-31T15:55:20Z</time></trkpt><trkpt lat="47.29434864134276" lon="-1.5573246683939894"><ele>43.4</ele><time>2026-03-31T15:55:22Z</time></trkpt><trkpt lat="47.29429491334343" lon="-1.5574404224767884"><ele>43.8</ele><time>2026-03-31T15:55:24Z</time></trkpt><trkpt lat="47.294217255010544" lon="-1.5575667377575837"><ele>44.2</ele><time>2026-03-31T15:55:26Z</time></trkpt><trkpt lat="47.29416147344494" lon="-1.5576710086330376"><ele>44.6</ele><time>2026-03-31T15:55:28Z</time></trkpt><trkpt lat="47.29411290031606" lon="-1.557800257579943"><ele>45.0</ele><time>2026-03-31T15:55:30Z</time></trkpt><trkpt lat="47.294054646089016" lon="-1.5579052828266824"><ele>45.4</ele><time>2026-03-31T15:55:32Z</time></trkpt><trkpt lat="47.29399844542825" lon="-1.5580178517862764"><ele>45.8</ele><time>2026-03-31T15:55:34Z</time></trkpt><trkpt lat="47.29393319231206" lon="-1.558144921438357"><ele>46.2</ele><time>2026-03-31T15:55:36Z</time></trkpt><trkpt lat="47.29384945709938" lon="-1.5582750085755794"><ele>46.6</ele><time>2026-03-31T15:55:38Z</time></trkpt><trkpt lat="47.29379753120923" lon="-1.5583988931044548"><ele>47.0</ele><time>2026-03-31T15:55:40Z</time></trkpt><trkpt lat="47.29372762613678" lon="-1.558521436528823"><ele>47.0</ele><time>2026-03-31T15:55:42Z</time></trkpt><trkpt lat="47.29367389813745" lon="-1.5586671140059443"><ele>47.0</ele><time>2026-03-31T15:55:44Z</time></trkpt><trkpt lat="47.29359732945198" lon="-1.5587830357268069"><ele>47.0</ele><time>2026-03-31T15:55:46Z</time></trkpt><trkpt lat="47.29354104497218" lon="-1.558898454533479"><ele>47.0</ele><time>2026-03-31T15:55:48Z</time></trkpt><trkpt lat="47.29347201999956" lon="-1.5590143762543416"><ele>47.0</ele><time>2026-03-31T15:55:50Z</time></trkpt><trkpt lat="47.29341799863362" lon="-1.559128537775538"><ele>47.0</ele><time>2026-03-31T15:55:52Z</time></trkpt><trkpt lat="47.293339460200905" lon="-1.5592488180860498"><ele>47.0</ele><time>2026-03-31T15:55:54Z</time></trkpt><trkpt lat="47.29328254707837" lon="-1.5593729540720203"><ele>47.0</ele><time>2026-03-31T15:55:56Z</time></trkpt><trkpt lat="47.293206020302414" lon="-1.5594889596119146"><ele>47.0</ele><time>2026-03-31T15:55:58Z</time></trkpt><trkpt lat="47.293141353919445" lon="-1.559605468065999"><ele>47.0</ele><time>2026-03-31T15:56:00Z</time></trkpt><trkpt lat="47.29307857346469" lon="-1.559744859115742"><ele>46.6</ele><time>2026-03-31T15:56:02Z</time></trkpt><trkpt lat="47.293006195730804" lon="-1.559843765573166"><ele>46.2</ele><time>2026-03-31T15:56:04Z</time></trkpt><trkpt lat="47.29296646550977" lon="-1.559918951244615"><ele>45.8</ele><time>2026-03-31T15:56:05Z</time></trkpt><trkpt lat="47.292894297323464" lon="-1.560051804409884"><ele>45.4</ele><time>2026-03-31T15:56:07Z</time></trkpt><trkpt lat="47.29283302561128" lon="-1.5601812209948527"><ele>45.0</ele><time>2026-03-31T15:56:09Z</time></trkpt><trkpt lat="47.29276379109108" lon="-1.5603072848185526"><ele>44.8</ele><time>2026-03-31T15:56:11Z</time></trkpt><trkpt lat="47.29272188157522" lon="-1.560378447176479"><ele>44.6</ele><time>2026-03-31T15:56:12Z</time></trkpt><trkpt lat="47.29268076834016" lon="-1.5604644455030192"><ele>44.400000000000006</ele><time>2026-03-31T15:56:13Z</time></trkpt><trkpt lat="47.29259669785135" lon="-1.5606071893140305"><ele>44.2</ele><time>2026-03-31T15:56:15Z</time></trkpt><trkpt lat="47.2925474122607" lon="-1.560682207347416"><ele>44.0</ele><time>2026-03-31T15:56:16Z</time></trkpt><trkpt lat="47.292473022870055" lon="-1.5608379431083432"><ele>44.0</ele><time>2026-03-31T15:56:18Z</time></trkpt><trkpt lat="47.29242964652114" lon="-1.5609164815410608"><ele>44.0</ele><time>2026-03-31T15:56:19Z</time></trkpt><trkpt lat="47.29237625379794" lon="-1.5610145498081678"><ele>44.0</ele><time>2026-03-31T15:56:20Z</time></trkpt><trkpt lat="47.29233141061597" lon="-1.5610956866308683"><ele>44.0</ele><time>2026-03-31T15:56:21Z</time></trkpt><trkpt lat="47.29228639979594" lon="-1.5611997060492273"><ele>44.0</ele><time>2026-03-31T15:56:22Z</time></trkpt><trkpt lat="47.2922498127886" lon="-1.5612956788405414"><ele>44.0</ele><time>2026-03-31T15:56:23Z</time></trkpt><trkpt lat="47.29220283222132" lon="-1.5613778214916227"><ele>43.83333333333333</ele><time>2026-03-31T15:56:24Z</time></trkpt><trkpt lat="47.292159288234345" lon="-1.5614715311690806"><ele>43.666666666666664</ele><time>2026-03-31T15:56:25Z</time></trkpt><trkpt lat="47.29211105038159" lon="-1.5615614689901112"><ele>43.5</ele><time>2026-03-31T15:56:26Z</time></trkpt><trkpt lat="47.29207253553652" lon="-1.5616407617941142"><ele>43.333333333333336</ele><time>2026-03-31T15:56:27Z</time></trkpt><trkpt lat="47.29201457467609" lon="-1.5617293585106373"><ele>43.16666666666667</ele><time>2026-03-31T15:56:28Z</time></trkpt><trkpt lat="47.29196323551916" lon="-1.5618234872832537"><ele>43.0</ele><time>2026-03-31T15:56:29Z</time></trkpt><trkpt lat="47.29191248309546" lon="-1.5619193762555363"><ele>42.199999999999996</ele><time>2026-03-31T15:56:30Z</time></trkpt><trkpt lat="47.291844422041706" lon="-1.5620324481293204"><ele>41.4</ele><time>2026-03-31T15:56:31Z</time></trkpt><trkpt lat="47.29179786056959" lon="-1.562141329051519"><ele>40.599999999999994</ele><time>2026-03-31T15:56:32Z</time></trkpt><trkpt lat="47.29175674733453" lon="-1.5622484497740512"><ele>39.8</ele><time>2026-03-31T15:56:33Z</time></trkpt><trkpt lat="47.29173491247677" lon="-1.562385242433811"><ele>39.0</ele><time>2026-03-31T15:56:34Z</time></trkpt><trkpt lat="47.291701971597305" lon="-1.5624991524979122"><ele>39.0</ele><time>2026-03-31T15:56:35Z</time></trkpt><trkpt lat="47.29165805042469" lon="-1.5626292396351347"><ele>39.0</ele><time>2026-03-31T15:56:36Z</time></trkpt><trkpt lat="47.29162645064973" lon="-1.5627792757019054"><ele>39.0</ele><time>2026-03-31T15:56:37Z</time></trkpt><trkpt lat="47.29161186613821" lon="-1.5629018191262734"><ele>39.0</ele><time>2026-03-31T15:56:38Z</time></trkpt><trkpt lat="47.29159045037561" lon="-1.5630326606347813"><ele>39.0</ele><time>2026-03-31T15:56:39Z</time></trkpt><trkpt lat="47.291578254706494" lon="-1.5631400328144087"><ele>38.2</ele><time>2026-03-31T15:56:40Z</time></trkpt><trkpt lat="47.291544433727196" lon="-1.5632667671903626"><ele>37.4</ele><time>2026-03-31T15:56:41Z</time></trkpt><trkpt lat="47.29149489667945" lon="-1.5633957646801726"><ele>36.6</ele><time>2026-03-31T15:56:42Z</time></trkpt><trkpt lat="47.291455124548904" lon="-1.5635251812651414"><ele>35.8</ele><time>2026-03-31T15:56:43Z</time></trkpt><trkpt lat="47.29140967717224" lon="-1.56364465183001"><ele>35.0</ele><time>2026-03-31T15:56:44Z</time></trkpt><trkpt lat="47.29135441495278" lon="-1.5637488036228215"><ele>34.8</ele><time>2026-03-31T15:56:45Z</time></trkpt><trkpt lat="47.291280597536876" lon="-1.563877652285363"><ele>34.6</ele><time>2026-03-31T15:56:46Z</time></trkpt><trkpt lat="47.29121202732389" lon="-1.5639887324601103"><ele>34.4</ele><time>2026-03-31T15:56:47Z</time></trkpt><trkpt lat="47.29113660593646" lon="-1.5641039466145585"><ele>34.2</ele><time>2026-03-31T15:56:48Z</time></trkpt><trkpt lat="47.29105786424809" lon="-1.564195733518865"><ele>34.0</ele><time>2026-03-31T15:56:49Z</time></trkpt><trkpt lat="47.290993155955604" lon="-1.5643037762507463"><ele>34.0</ele><time>2026-03-31T15:56:50Z</time></trkpt><trkpt lat="47.29093293198132" lon="-1.5644015930607582"><ele>34.0</ele><time>2026-03-31T15:56:51Z</time></trkpt><trkpt lat="47.290901726832956" lon="-1.5645330776911028"><ele>34.0</ele><time>2026-03-31T15:56:52Z</time></trkpt><trkpt lat="47.290872236305425" lon="-1.5646586714426935"><ele>34.0</ele><time>2026-03-31T15:56:53Z</time></trkpt><trkpt lat="47.29086296097776" lon="-1.5648134376632263"><ele>34.0</ele><time>2026-03-31T15:56:54Z</time></trkpt><trkpt lat="47.29088964927173" lon="-1.5649617090652237"><ele>32.8</ele><time>2026-03-31T15:56:55Z</time></trkpt><trkpt lat="47.29092480153524" lon="-1.565086897464064"><ele>31.599999999999998</ele><time>2026-03-31T15:56:56Z</time></trkpt><trkpt lat="47.2909632744708" lon="-1.5652130451067958"><ele>30.4</ele><time>2026-03-31T15:56:57Z</time></trkpt><trkpt lat="47.29100673463874" lon="-1.5653339121505294"><ele>29.2</ele><time>2026-03-31T15:56:58Z</time></trkpt><trkpt lat="47.2910927748748" lon="-1.5654620714500225"><ele>28.0</ele><time>2026-03-31T15:56:59Z</time></trkpt><trkpt lat="47.29116448205643" lon="-1.5655836090460098"><ele>27.2</ele><time>2026-03-31T15:57:00Z</time></trkpt><trkpt lat="47.291235267228714" lon="-1.5657226648196259"><ele>26.4</ele><time>2026-03-31T15:57:01Z</time></trkpt><trkpt lat="47.29130026888781" lon="-1.5658411849304714"><ele>25.599999999999998</ele><time>2026-03-31T15:57:02Z</time></trkpt><trkpt lat="47.29137247898363" lon="-1.565946210177211"><ele>24.799999999999997</ele><time>2026-03-31T15:57:03Z</time></trkpt><trkpt lat="47.29144280315124" lon="-1.566068753601579"><ele>24.0</ele><time>2026-03-31T15:57:04Z</time></trkpt><trkpt lat="47.29153032109203" lon="-1.566165793200904"><ele>22.2</ele><time>2026-03-31T15:57:05Z</time></trkpt><trkpt lat="47.29162660423495" lon="-1.5662228350716225"><ele>20.4</ele><time>2026-03-31T15:57:06Z</time></trkpt><trkpt lat="47.29171705282585" lon="-1.5662409129189234"><ele>18.6</ele><time>2026-03-31T15:57:07Z</time></trkpt><trkpt lat="47.291814582466415" lon="-1.5662408340736909"><ele>16.8</ele><time>2026-03-31T15:57:08Z</time></trkpt><trkpt lat="47.291915039575926" lon="-1.5662253275528235"><ele>15.0</ele><time>2026-03-31T15:57:09Z</time></trkpt><trkpt lat="47.292016418694786" lon="-1.5661953203394694"><ele>15.0</ele><time>2026-03-31T15:57:10Z</time></trkpt><trkpt lat="47.292110715105466" lon="-1.5662011038526578"><ele>15.0</ele><time>2026-03-31T15:57:11Z</time></trkpt><trkpt lat="47.29219579142266" lon="-1.5662138443454785"><ele>15.0</ele><time>2026-03-31T15:57:12Z</time></trkpt><trkpt lat="47.292304462797276" lon="-1.566266734154491"><ele>15.0</ele><time>2026-03-31T15:57:13Z</time></trkpt><trkpt lat="47.29236837480896" lon="-1.5663691610112473"><ele>15.0</ele><time>2026-03-31T15:57:14Z</time></trkpt><trkpt lat="47.292438321790925" lon="-1.5664666425451323"><ele>15.2</ele><time>2026-03-31T15:57:15Z</time></trkpt><trkpt lat="47.29248886466705" lon="-1.566588347779183"><ele>15.4</ele><time>2026-03-31T15:57:16Z</time></trkpt><trkpt lat="47.29252729569309" lon="-1.5667199436589765"><ele>15.600000000000001</ele><time>2026-03-31T15:57:17Z</time></trkpt><trkpt lat="47.29255554270678" lon="-1.566865621136098"><ele>15.8</ele><time>2026-03-31T15:57:18Z</time></trkpt><trkpt lat="47.29256434370511" lon="-1.5670325048282434"><ele>16.0</ele><time>2026-03-31T15:57:19Z</time></trkpt><trkpt lat="47.29258839976721" lon="-1.5672078542425922"><ele>15.600000000000001</ele><time>2026-03-31T15:57:20Z</time></trkpt><trkpt lat="47.29261145000093" lon="-1.5673685353263909"><ele>15.200000000000001</ele><time>2026-03-31T15:57:21Z</time></trkpt><trkpt lat="47.29263496123933" lon="-1.5675274562105233"><ele>14.799999999999999</ele><time>2026-03-31T15:57:22Z</time></trkpt><trkpt lat="47.292649168565205" lon="-1.5676793362959918"><ele>14.399999999999999</ele><time>2026-03-31T15:57:23Z</time></trkpt><trkpt lat="47.292675487741164" lon="-1.567804226653248"><ele>14.0</ele><time>2026-03-31T15:57:24Z</time></trkpt><trkpt lat="47.292713206305436" lon="-1.5678970981403886"><ele>15.6</ele><time>2026-03-31T15:57:25Z</time></trkpt><trkpt lat="47.2927413695001" lon="-1.5680093318238555"><ele>17.2</ele><time>2026-03-31T15:57:26Z</time></trkpt><trkpt lat="47.292751679241" lon="-1.5681204758599103"><ele>18.8</ele><time>2026-03-31T15:57:27Z</time></trkpt><trkpt lat="47.29278872725302" lon="-1.5682906284942928"><ele>20.400000000000002</ele><time>2026-03-31T15:57:29Z</time></trkpt><trkpt lat="47.29281513024801" lon="-1.568487267942697"><ele>22.0</ele><time>2026-03-31T15:57:31Z</time></trkpt><trkpt lat="47.29282564953649" lon="-1.5686214622124737"><ele>22.8</ele><time>2026-03-31T15:57:33Z</time></trkpt><trkpt lat="47.29283574972981" lon="-1.568733276800782"><ele>23.6</ele><time>2026-03-31T15:57:35Z</time></trkpt><trkpt lat="47.29286651131445" lon="-1.5688728354885884"><ele>24.400000000000002</ele><time>2026-03-31T15:57:37Z</time></trkpt><trkpt lat="47.29288226929241" lon="-1.5690196026131222"><ele>25.200000000000003</ele><time>2026-03-31T15:57:39Z</time></trkpt><trkpt lat="47.292912402234315" lon="-1.569171901793749"><ele>26.0</ele><time>2026-03-31T15:57:42Z</time></trkpt><trkpt lat="47.292895806066035" lon="-1.569349262864859"><ele>26.0</ele><time>2026-03-31T15:57:45Z</time></trkpt><trkpt lat="47.29288310748273" lon="-1.5694687049850538"><ele>26.0</ele><time>2026-03-31T15:57:46Z</time></trkpt><trkpt lat="47.292889435819625" lon="-1.569620585070522"><ele>26.0</ele><time>2026-03-31T15:57:48Z</time></trkpt><trkpt lat="47.29288411331111" lon="-1.5697724651559906"><ele>26.0</ele><time>2026-03-31T15:57:50Z</time></trkpt><trkpt lat="47.292866972319125" lon="-1.5699038095786886"><ele>26.0</ele><time>2026-03-31T15:57:51Z</time></trkpt><trkpt lat="47.29283973113382" lon="-1.57000062056032"><ele>25.999999999999996</ele><time>2026-03-31T15:57:52Z</time></trkpt><trkpt lat="47.29280641306871" lon="-1.5700828470304329"><ele>26.0</ele><time>2026-03-31T15:57:53Z</time></trkpt><trkpt lat="47.292763874910115" lon="-1.5701855253442845"><ele>26.0</ele><time>2026-03-31T15:57:54Z</time></trkpt><trkpt lat="47.292707338973216" lon="-1.57031821087149"><ele>26.0</ele><time>2026-03-31T15:57:56Z</time></trkpt><trkpt lat="47.292671087242" lon="-1.5703985095038733"><ele>25.999999999999996</ele><time>2026-03-31T15:57:58Z</time></trkpt><trkpt lat="47.29259506338023" lon="-1.570434886963638"><ele>26.0</ele><time>2026-03-31T15:58:00Z</time></trkpt><trkpt lat="47.29252905589276" lon="-1.5704859327539527"><ele>26.333333333333332</ele><time>2026-03-31T15:58:02Z</time></trkpt><trkpt lat="47.292445907413295" lon="-1.5704804006978594"><ele>26.666666666666664</ele><time>2026-03-31T15:58:04Z</time></trkpt><trkpt lat="47.29236095682465" lon="-1.5704936441048705"><ele>27.0</ele><time>2026-03-31T15:58:06Z</time></trkpt><trkpt lat="47.292277850254706" lon="-1.5705122519299113"><ele>27.333333333333336</ele><time>2026-03-31T15:58:08Z</time></trkpt><trkpt lat="47.292199647098116" lon="-1.570526501165303"><ele>27.666666666666668</ele><time>2026-03-31T15:58:10Z</time></trkpt><trkpt lat="47.29210568596356" lon="-1.57052440568951"><ele>28.0</ele><time>2026-03-31T15:58:12Z</time></trkpt><trkpt lat="47.292016418694786" lon="-1.5705243218704783"><ele>28.000000000000004</ele><time>2026-03-31T15:58:14Z</time></trkpt><trkpt lat="47.291927193335525" lon="-1.5705223940327488"><ele>28.0</ele><time>2026-03-31T15:58:16Z</time></trkpt><trkpt lat="47.291856659620336" lon="-1.5705325361355864"><ele>28.0</ele><time>2026-03-31T15:58:18Z</time></trkpt><trkpt lat="47.291785455352894" lon="-1.5705460309996926"><ele>28.0</ele><time>2026-03-31T15:58:20Z</time></trkpt><trkpt lat="47.29170649782502" lon="-1.5705435164287411"><ele>28.000000000000004</ele><time>2026-03-31T15:58:22Z</time></trkpt><trkpt lat="47.291619242213" lon="-1.570538822562965"><ele>28.0</ele><time>2026-03-31T15:58:24Z</time></trkpt><trkpt lat="47.29153668046676" lon="-1.5705499704941832"><ele>28.000000000000004</ele><time>2026-03-31T15:58:26Z</time></trkpt><trkpt lat="47.29144577872687" lon="-1.5705663152053677"><ele>28.0</ele><time>2026-03-31T15:58:28Z</time></trkpt><trkpt lat="47.29137495164507" lon="-1.5705787204220616"><ele>28.0</ele><time>2026-03-31T15:58:30Z</time></trkpt><trkpt lat="47.29129922114991" lon="-1.5705867670491063"><ele>28.0</ele><time>2026-03-31T15:58:32Z</time></trkpt><trkpt lat="47.291207229762605" lon="-1.570560364054116"><ele>28.000000000000004</ele><time>2026-03-31T15:58:34Z</time></trkpt><trkpt lat="47.2911348101192" lon="-1.5705353859826647"><ele>28.0</ele><time>2026-03-31T15:58:36Z</time></trkpt><trkpt lat="47.29104977571153" lon="-1.5705507248654687"><ele>28.833333333333336</ele><time>2026-03-31T15:58:38Z</time></trkpt><trkpt lat="47.29096536994659" lon="-1.5705568436547839"><ele>29.666666666666668</ele><time>2026-03-31T15:58:40Z</time></trkpt><trkpt lat="47.29087803051554" lon="-1.570566818119558"><ele>30.5</ele><time>2026-03-31T15:58:42Z</time></trkpt><trkpt lat="47.29079270274126" lon="-1.5705845877542817"><ele>31.333333333333336</ele><time>2026-03-31T15:58:44Z</time></trkpt><trkpt lat="47.290702890648774" lon="-1.5706138405963503"><ele>32.166666666666664</ele><time>2026-03-31T15:58:46Z</time></trkpt><trkpt lat="47.29061735332691" lon="-1.570647871123227"><ele>33.0</ele><time>2026-03-31T15:58:48Z</time></trkpt><trkpt lat="47.29053244464778" lon="-1.5707010962083663"><ele>33.666666666666664</ele><time>2026-03-31T15:58:50Z</time></trkpt><trkpt lat="47.29045512159102" lon="-1.5707746054991807"><ele>34.333333333333336</ele><time>2026-03-31T15:58:52Z</time></trkpt><trkpt lat="47.29039498143577" lon="-1.5708606038257207"><ele>35.0</ele><time>2026-03-31T15:58:54Z</time></trkpt><trkpt lat="47.29034892287784" lon="-1.5709928702577678"><ele>35.66666666666667</ele><time>2026-03-31T15:58:56Z</time></trkpt><trkpt lat="47.29030278050088" lon="-1.571065876634392"><ele>36.333333333333336</ele><time>2026-03-31T15:58:58Z</time></trkpt><trkpt lat="47.290252237624756" lon="-1.571167549119863"><ele>37.0</ele><time>2026-03-31T15:59:00Z</time></trkpt><trkpt lat="47.29020173665815" lon="-1.5712419804200262"><ele>37.16666666666667</ele><time>2026-03-31T15:59:02Z</time></trkpt><trkpt lat="47.29012701199137" lon="-1.5713069401696056"><ele>37.333333333333336</ele><time>2026-03-31T15:59:04Z</time></trkpt><trkpt lat="47.29006733284079" lon="-1.571391094477448"><ele>37.5</ele><time>2026-03-31T15:59:06Z</time></trkpt><trkpt lat="47.28998711802744" lon="-1.5714710578337046"><ele>37.666666666666664</ele><time>2026-03-31T15:59:08Z</time></trkpt><trkpt lat="47.289927690333954" lon="-1.571559570731196"><ele>37.83333333333333</ele><time>2026-03-31T15:59:10Z</time></trkpt><trkpt lat="47.28987844665282" lon="-1.5716397855445479"><ele>38.0</ele><time>2026-03-31T15:59:12Z</time></trkpt><trkpt lat="47.28982358709656" lon="-1.5717101935311888"><ele>38.0</ele><time>2026-03-31T15:59:14Z</time></trkpt><trkpt lat="47.289764494679204" lon="-1.5718008019044731"><ele>38.0</ele><time>2026-03-31T15:59:16Z</time></trkpt><trkpt lat="47.28970255241477" lon="-1.571899875999961"><ele>38.0</ele><time>2026-03-31T15:59:18Z</time></trkpt><trkpt lat="47.28964857295834" lon="-1.571988807992611"><ele>38.0</ele><time>2026-03-31T15:59:20Z</time></trkpt><trkpt lat="47.289571333720616" lon="-1.5721156261875966"><ele>38.0</ele><time>2026-03-31T15:59:22Z</time></trkpt><trkpt lat="47.28952959184282" lon="-1.572193242610965"><ele>38.0</ele><time>2026-03-31T15:59:23Z</time></trkpt><trkpt lat="47.289469661235145" lon="-1.572282761336837"><ele>38.666666666666664</ele><time>2026-03-31T15:59:25Z</time></trkpt><trkpt lat="47.28942062710159" lon="-1.5723471343531947"><ele>39.33333333333333</ele><time>2026-03-31T15:59:27Z</time></trkpt><trkpt lat="47.289364049255184" lon="-1.572426008062039"><ele>40.0</ele><time>2026-03-31T15:59:29Z</time></trkpt><trkpt lat="47.289323774210445" lon="-1.5725337155177932"><ele>40.666666666666664</ele><time>2026-03-31T15:59:31Z</time></trkpt><trkpt lat="47.28926757354968" lon="-1.5726252459004266"><ele>41.333333333333336</ele><time>2026-03-31T15:59:33Z</time></trkpt><trkpt lat="47.28921728213065" lon="-1.5727094840273006"><ele>42.0</ele><time>2026-03-31T15:59:35Z</time></trkpt><trkpt lat="47.289161081469885" lon="-1.5727994218483314"><ele>42.0</ele><time>2026-03-31T15:59:37Z</time></trkpt><trkpt lat="47.28909012865954" lon="-1.572910314427291"><ele>42.0</ele><time>2026-03-31T15:59:40Z</time></trkpt><trkpt lat="47.28904000487857" lon="-1.5730085503324613"><ele>42.0</ele><time>2026-03-31T15:59:42Z</time></trkpt><trkpt lat="47.28896729186856" lon="-1.5731111448272812"><ele>42.0</ele><time>2026-03-31T15:59:44Z</time></trkpt><trkpt lat="47.288887915245525" lon="-1.573208123446976"><ele>42.0</ele><time>2026-03-31T15:59:46Z</time></trkpt><trkpt lat="47.28883766573601" lon="-1.5733117237701764"><ele>42.0</ele><time>2026-03-31T15:59:48Z</time></trkpt><trkpt lat="47.28877584920012" lon="-1.5734168328359475"><ele>42.0</ele><time>2026-03-31T15:59:50Z</time></trkpt><trkpt lat="47.28869089861148" lon="-1.5735483448967091"><ele>42.0</ele><time>2026-03-31T15:59:52Z</time></trkpt><trkpt lat="47.28862531021916" lon="-1.5736676193788401"><ele>42.0</ele><time>2026-03-31T15:59:54Z</time></trkpt><trkpt lat="47.28855335158043" lon="-1.573778176681673"><ele>42.0</ele><time>2026-03-31T15:59:56Z</time></trkpt><trkpt lat="47.288477537266246" lon="-1.5738820284619683"><ele>42.0</ele><time>2026-03-31T15:59:58Z</time></trkpt><trkpt lat="47.288410356312326" lon="-1.574006499724066"><ele>42.0</ele><time>2026-03-31T16:00:00Z</time></trkpt><trkpt lat="47.28832410652869" lon="-1.5741200745120403"><ele>42.0</ele><time>2026-03-31T16:00:02Z</time></trkpt><trkpt lat="47.28823253423654" lon="-1.5742317214622854"><ele>42.0</ele><time>2026-03-31T16:00:04Z</time></trkpt><trkpt lat="47.288159150674275" lon="-1.5743276104345678"><ele>42.0</ele><time>2026-03-31T16:00:06Z</time></trkpt><trkpt lat="47.288096328310004" lon="-1.5744307916626095"><ele>42.0</ele><time>2026-03-31T16:00:08Z</time></trkpt><trkpt lat="47.28802789007061" lon="-1.5745295304819704"><ele>42.0</ele><time>2026-03-31T16:00:10Z</time></trkpt><trkpt lat="47.2879861062833" lon="-1.5746091585621"><ele>42.0</ele><time>2026-03-31T16:00:11Z</time></trkpt><trkpt lat="47.28789688092404" lon="-1.574689876289642"><ele>42.0</ele><time>2026-03-31T16:00:13Z</time></trkpt><trkpt lat="47.2878296580606" lon="-1.5747546684011582"><ele>42.0</ele><time>2026-03-31T16:00:15Z</time></trkpt><trkpt lat="47.28778133638882" lon="-1.5748142637327078"><ele>42.0</ele><time>2026-03-31T16:00:16Z</time></trkpt><trkpt lat="47.287699529013864" lon="-1.5748989209547404"><ele>42.0</ele><time>2026-03-31T16:00:18Z</time></trkpt><trkpt lat="47.287612315311364" lon="-1.574986260385788"><ele>42.0</ele><time>2026-03-31T16:00:20Z</time></trkpt><trkpt lat="47.28750624232673" lon="-1.5750592667624121"><ele>42.0</ele><time>2026-03-31T16:00:22Z</time></trkpt><trkpt lat="47.28741274219685" lon="-1.5751404035851126"><ele>42.0</ele><time>2026-03-31T16:00:24Z</time></trkpt><trkpt lat="47.28730620820754" lon="-1.5752288326635726"><ele>42.2</ele><time>2026-03-31T16:00:26Z</time></trkpt><trkpt lat="47.28725319266998" lon="-1.5752860810622342"><ele>42.400000000000006</ele><time>2026-03-31T16:00:27Z</time></trkpt><trkpt lat="47.287140330343775" lon="-1.575375096873916"><ele>42.599999999999994</ele><time>2026-03-31T16:00:29Z</time></trkpt><trkpt lat="47.28706447412007" lon="-1.5754557307824264"><ele>42.8</ele><time>2026-03-31T16:00:31Z</time></trkpt><trkpt lat="47.28697235700422" lon="-1.5755447465941081"><ele>43.0</ele><time>2026-03-31T16:00:33Z</time></trkpt><trkpt lat="47.286874037280015" lon="-1.5756270568832527"><ele>43.0</ele><time>2026-03-31T16:00:35Z</time></trkpt><trkpt lat="47.286825254603556" lon="-1.5757010690882576"><ele>43.0</ele><time>2026-03-31T16:00:36Z</time></trkpt><trkpt lat="47.2867368255251" lon="-1.5757953654989374"><ele>43.0</ele><time>2026-03-31T16:00:38Z</time></trkpt><trkpt lat="47.286635153039626" lon="-1.5758750773980987"><ele>43.0</ele><time>2026-03-31T16:00:40Z</time></trkpt><trkpt lat="47.286531762264005" lon="-1.575961327181734"><ele>43.0</ele><time>2026-03-31T16:00:42Z</time></trkpt><trkpt lat="47.286438681229285" lon="-1.576055288316287"><ele>43.0</ele><time>2026-03-31T16:00:44Z</time></trkpt><trkpt lat="47.28632498071276" lon="-1.5761088486775532"><ele>43.0</ele><time>2026-03-31T16:00:46Z</time></trkpt><trkpt lat="47.28623508480125" lon="-1.5762487426414864"><ele>43.0</ele><time>2026-03-31T16:00:48Z</time></trkpt><trkpt lat="47.286139908290735" lon="-1.5763300471022503"><ele>43.0</ele><time>2026-03-31T16:00:50Z</time></trkpt><trkpt lat="47.28602708787405" lon="-1.5764017123743672"><ele>43.2</ele><time>2026-03-31T16:00:52Z</time></trkpt><trkpt lat="47.285992302975885" lon="-1.5764914825573344"><ele>43.4</ele><time>2026-03-31T16:00:53Z</time></trkpt><trkpt lat="47.28590542454951" lon="-1.576556107030787"><ele>43.6</ele><time>2026-03-31T16:00:55Z</time></trkpt><trkpt lat="47.285802704326144" lon="-1.5766414348050735"><ele>43.800000000000004</ele><time>2026-03-31T16:00:57Z</time></trkpt><trkpt lat="47.285705851435" lon="-1.5767374075963876"><ele>44.0</ele><time>2026-03-31T16:00:59Z</time></trkpt><trkpt lat="47.28563816756689" lon="-1.5767898783102414"><ele>43.800000000000004</ele><time>2026-03-31T16:01:00Z</time></trkpt><trkpt lat="47.28554311678492" lon="-1.5768840909018897"><ele>43.6</ele><time>2026-03-31T16:01:02Z</time></trkpt><trkpt lat="47.28549089752816" lon="-1.5769366454347753"><ele>43.4</ele><time>2026-03-31T16:01:03Z</time></trkpt><trkpt lat="47.285393457903794" lon="-1.577015686781683"><ele>43.2</ele><time>2026-03-31T16:01:05Z</time></trkpt><trkpt lat="47.2853051964634" lon="-1.5771131683155681"><ele>43.0</ele><time>2026-03-31T16:01:07Z</time></trkpt><trkpt lat="47.28520532608711" lon="-1.5771782118841793"><ele>43.0</ele><time>2026-03-31T16:01:09Z</time></trkpt><trkpt lat="47.285100342749885" lon="-1.5772914513960268"><ele>43.0</ele><time>2026-03-31T16:01:11Z</time></trkpt><trkpt lat="47.285014176785275" lon="-1.5774218738093762"><ele>43.0</ele><time>2026-03-31T16:01:13Z</time></trkpt><trkpt lat="47.284965310289785" lon="-1.5774912759676365"><ele>43.0</ele><time>2026-03-31T16:01:14Z</time></trkpt><trkpt lat="47.2848797310584" lon="-1.577581632883826"><ele>43.0</ele><time>2026-03-31T16:01:16Z</time></trkpt><trkpt lat="47.28480249182068" lon="-1.5776895079776436"><ele>43.0</ele><time>2026-03-31T16:01:18Z</time></trkpt><trkpt lat="47.2847182536938" lon="-1.5777770988657862"><ele>43.0</ele><time>2026-03-31T16:01:20Z</time></trkpt><trkpt lat="47.28464545686476" lon="-1.5779180824771317"><ele>43.0</ele><time>2026-03-31T16:01:22Z</time></trkpt><trkpt lat="47.28456746325575" lon="-1.5780521929278766"><ele>43.0</ele><time>2026-03-31T16:01:24Z</time></trkpt><trkpt lat="47.284490601203665" lon="-1.5781776700183545"><ele>42.8</ele><time>2026-03-31T16:01:26Z</time></trkpt><trkpt lat="47.28444278244607" lon="-1.578251430766264"><ele>42.599999999999994</ele><time>2026-03-31T16:01:27Z</time></trkpt><trkpt lat="47.28436323818497" lon="-1.5783854573979772"><ele>42.400000000000006</ele><time>2026-03-31T16:01:29Z</time></trkpt><trkpt lat="47.28430657651953" lon="-1.5784549433752693"><ele>42.2</ele><time>2026-03-31T16:01:30Z</time></trkpt><trkpt lat="47.28421957236461" lon="-1.5785809233799377"><ele>42.0</ele><time>2026-03-31T16:01:32Z</time></trkpt><trkpt lat="47.284142961769625" lon="-1.5786766447141567"><ele>42.5</ele><time>2026-03-31T16:01:34Z</time></trkpt><trkpt lat="47.28403437421404" lon="-1.578826261685769"><ele>43.0</ele><time>2026-03-31T16:01:36Z</time></trkpt><trkpt lat="47.2839930514314" lon="-1.5789018664523762"><ele>43.5</ele><time>2026-03-31T16:01:37Z</time></trkpt><trkpt lat="47.28390022185378" lon="-1.5790401678547068"><ele>44.0</ele><time>2026-03-31T16:01:39Z</time></trkpt><trkpt lat="47.28383019105278" lon="-1.5791613701745673"><ele>44.0</ele><time>2026-03-31T16:01:41Z</time></trkpt><trkpt lat="47.283758190504535" lon="-1.5792768728002713"><ele>44.0</ele><time>2026-03-31T16:01:43Z</time></trkpt><trkpt lat="47.28371066511355" lon="-1.5793393179788993"><ele>44.0</ele><time>2026-03-31T16:01:44Z</time></trkpt><trkpt lat="47.28363480888985" lon="-1.5794532280430005"><ele>44.0</ele><time>2026-03-31T16:01:46Z</time></trkpt><trkpt lat="47.28359855715863" lon="-1.5795369632556844"><ele>44.0</ele><time>2026-03-31T16:01:47Z</time></trkpt><trkpt lat="47.2835432365977" lon="-1.5797019191101003"><ele>44.0</ele><time>2026-03-31T16:01:49Z</time></trkpt><trkpt lat="47.28351410948418" lon="-1.5797911863788774"><ele>44.0</ele><time>2026-03-31T16:01:50Z</time></trkpt><trkpt lat="47.283490179150625" lon="-1.5799722354873829"><ele>44.0</ele><time>2026-03-31T16:01:52Z</time></trkpt><trkpt lat="47.283458621285185" lon="-1.580085307361167"><ele>44.0</ele><time>2026-03-31T16:01:53Z</time></trkpt><trkpt lat="47.28344998792492" lon="-1.5802655182793552"><ele>44.0</ele><time>2026-03-31T16:01:55Z</time></trkpt><trkpt lat="47.2834552266144" lon="-1.5804456453785118"><ele>43.800000000000004</ele><time>2026-03-31T16:01:57Z</time></trkpt><trkpt lat="47.2834613034942" lon="-1.580617306755465"><ele>43.6</ele><time>2026-03-31T16:01:59Z</time></trkpt><trkpt lat="47.28344843727283" lon="-1.580724259839934"><ele>43.4</ele><time>2026-03-31T16:02:00Z</time></trkpt><trkpt lat="47.28343900763176" lon="-1.5808836836382567"><ele>43.2</ele><time>2026-03-31T16:02:02Z</time></trkpt><trkpt lat="47.283411975994035" lon="-1.5810740366592826"><ele>43.0</ele><time>2026-03-31T16:02:04Z</time></trkpt><trkpt lat="47.28340330072425" lon="-1.5811695065364066"><ele>43.4</ele><time>2026-03-31T16:02:05Z</time></trkpt><trkpt lat="47.28339890022509" lon="-1.5813390724375669"><ele>43.8</ele><time>2026-03-31T16:02:07Z</time></trkpt><trkpt lat="47.28339181751691" lon="-1.5815068781390613"><ele>44.2</ele><time>2026-03-31T16:02:09Z</time></trkpt><trkpt lat="47.28338812947951" lon="-1.5816259011640974"><ele>44.6</ele><time>2026-03-31T16:02:10Z</time></trkpt><trkpt lat="47.283410048156306" lon="-1.5817384701236912"><ele>45.0</ele><time>2026-03-31T16:02:11Z</time></trkpt><trkpt lat="47.28340493519537" lon="-1.5818349458291956"><ele>45.0</ele><time>2026-03-31T16:02:12Z</time></trkpt><trkpt lat="47.28334039454095" lon="-1.5817798767253586"><ele>45.0</ele><time>2026-03-31T16:02:13Z</time></trkpt><trkpt lat="47.28333117444746" lon="-1.5818775258973072"><ele>45.0</ele><time>2026-03-31T16:02:14Z</time></trkpt><trkpt lat="47.28332564239137" lon="-1.5819960460081528"><ele>45.0</ele><time>2026-03-31T16:02:15Z</time></trkpt><trkpt lat="47.28332761213861" lon="-1.5821008197977973"><ele>45.0</ele><time>2026-03-31T16:02:16Z</time></trkpt><trkpt lat="47.28332723495297" lon="-1.5822100359961224"><ele>45.0</ele><time>2026-03-31T16:02:17Z</time></trkpt><trkpt lat="47.28332174480639" lon="-1.5823146421477032"><ele>45.0</ele><time>2026-03-31T16:02:18Z</time></trkpt><trkpt lat="47.28332761213861" lon="-1.5824214275941089"><ele>45.0</ele><time>2026-03-31T16:02:19Z</time></trkpt><trkpt lat="47.28333016861908" lon="-1.5826212521657186"><ele>45.0</ele><time>2026-03-31T16:02:21Z</time></trkpt><trkpt lat="47.28332119998269" lon="-1.5827264450505214"><ele>45.0</ele><time>2026-03-31T16:02:22Z</time></trkpt><trkpt lat="47.283316170840784" lon="-1.5828318055733879"><ele>45.0</ele><time>2026-03-31T16:02:23Z</time></trkpt><trkpt lat="47.28330950722776" lon="-1.582954600454851"><ele>45.0</ele><time>2026-03-31T16:02:24Z</time></trkpt><trkpt lat="47.283309800594374" lon="-1.5830628946438274"><ele>45.0</ele><time>2026-03-31T16:02:25Z</time></trkpt><trkpt lat="47.28330678310923" lon="-1.5831685904428205"><ele>45.0</ele><time>2026-03-31T16:02:26Z</time></trkpt><trkpt lat="47.28330896240406" lon="-1.5833400003626787"><ele>45.0</ele><time>2026-03-31T16:02:28Z</time></trkpt><trkpt lat="47.28331826631658" lon="-1.5834495518371308"><ele>45.0</ele><time>2026-03-31T16:02:29Z</time></trkpt><trkpt lat="47.283313446722254" lon="-1.5835456084474768"><ele>45.0</ele><time>2026-03-31T16:02:30Z</time></trkpt><trkpt lat="47.28331076451324" lon="-1.5836829878404584"><ele>45.0</ele><time>2026-03-31T16:02:31Z</time></trkpt><trkpt lat="47.28333004289053" lon="-1.5837989933803527"><ele>45.0</ele><time>2026-03-31T16:02:33Z</time></trkpt><trkpt lat="47.283334778665825" lon="-1.5838922001436202"><ele>44.833333333333336</ele><time>2026-03-31T16:02:34Z</time></trkpt><trkpt lat="47.28333955635063" lon="-1.584047852085516"><ele>44.666666666666664</ele><time>2026-03-31T16:02:36Z</time></trkpt><trkpt lat="47.283323253548964" lon="-1.5841723233476133"><ele>44.5</ele><time>2026-03-31T16:02:37Z</time></trkpt><trkpt lat="47.28329747919671" lon="-1.5842859819546196"><ele>44.33333333333333</ele><time>2026-03-31T16:02:38Z</time></trkpt><trkpt lat="47.28329760492526" lon="-1.5843959525242302"><ele>44.166666666666664</ele><time>2026-03-31T16:02:39Z</time></trkpt><trkpt lat="47.28329224050723" lon="-1.5844995528474306"><ele>44.0</ele><time>2026-03-31T16:02:40Z</time></trkpt><trkpt lat="47.28328042202376" lon="-1.584597202019379"><ele>43.83333333333333</ele><time>2026-03-31T16:02:41Z</time></trkpt><trkpt lat="47.283277320719584" lon="-1.5846925042584394"><ele>43.666666666666664</ele><time>2026-03-31T16:02:42Z</time></trkpt><trkpt lat="47.28327136956833" lon="-1.5847921650871493"><ele>43.5</ele><time>2026-03-31T16:02:43Z</time></trkpt><trkpt lat="47.283227322667166" lon="-1.584868524225042"><ele>43.333333333333336</ele><time>2026-03-31T16:02:44Z</time></trkpt><trkpt lat="47.283237255222424" lon="-1.584964329378293"><ele>43.16666666666667</ele><time>2026-03-31T16:02:45Z</time></trkpt><trkpt lat="47.28323750667952" lon="-1.5851267706617573"><ele>43.0</ele><time>2026-03-31T16:02:47Z</time></trkpt><trkpt lat="47.28322019804947" lon="-1.5852904692306977"><ele>43.0</ele><time>2026-03-31T16:02:49Z</time></trkpt><trkpt lat="47.28321877312593" lon="-1.58539172262101"><ele>43.0</ele><time>2026-03-31T16:02:50Z</time></trkpt><trkpt lat="47.28321638428353" lon="-1.5855792257949575"><ele>43.0</ele><time>2026-03-31T16:02:52Z</time></trkpt><trkpt lat="47.28321692910723" lon="-1.5856768749669061"><ele>43.0</ele><time>2026-03-31T16:02:53Z</time></trkpt><trkpt lat="47.28320615836166" lon="-1.585842417554544"><ele>43.0</ele><time>2026-03-31T16:02:55Z</time></trkpt><trkpt lat="47.283201632133945" lon="-1.5860155876740683"><ele>43.2</ele><time>2026-03-31T16:02:57Z</time></trkpt><trkpt lat="47.28319744118236" lon="-1.5861845668420067"><ele>43.4</ele><time>2026-03-31T16:02:59Z</time></trkpt><trkpt lat="47.28319366932593" lon="-1.586321108044671"><ele>43.6</ele><time>2026-03-31T16:03:01Z</time></trkpt><trkpt lat="47.283170158087536" lon="-1.5865007322296374"><ele>43.800000000000004</ele><time>2026-03-31T16:03:03Z</time></trkpt><trkpt lat="47.28314492855899" lon="-1.586641380564856"><ele>44.0</ele><time>2026-03-31T16:03:05Z</time></trkpt><trkpt lat="47.283101258843466" lon="-1.586782447995233"><ele>44.75</ele><time>2026-03-31T16:03:07Z</time></trkpt><trkpt lat="47.28304631546818" lon="-1.5869401954129216"><ele>45.5</ele><time>2026-03-31T16:03:09Z</time></trkpt><trkpt lat="47.28299003098838" lon="-1.5870953444406268"><ele>46.25</ele><time>2026-03-31T16:03:11Z</time></trkpt><trkpt lat="47.28293709926985" lon="-1.5872371662422895"><ele>47.0</ele><time>2026-03-31T16:03:13Z</time></trkpt><trkpt lat="47.28290675678037" lon="-1.5873994398876907"><ele>47.0</ele><time>2026-03-31T16:03:15Z</time></trkpt><trkpt lat="47.282862500331625" lon="-1.5875193849220754"><ele>47.0</ele><time>2026-03-31T16:03:17Z</time></trkpt><trkpt lat="47.28283048146151" lon="-1.5876313671484474"><ele>47.0</ele><time>2026-03-31T16:03:19Z</time></trkpt><trkpt lat="47.282785805917605" lon="-1.5877598617240671"><ele>47.0</ele><time>2026-03-31T16:03:21Z</time></trkpt><trkpt lat="47.28275558915667" lon="-1.5878750290736443"><ele>47.0</ele><time>2026-03-31T16:03:23Z</time></trkpt><trkpt lat="47.28268145122312" lon="-1.5879937168225533"><ele>47.166666666666664</ele><time>2026-03-31T16:03:25Z</time></trkpt><trkpt lat="47.282633129551336" lon="-1.5881155896946677"><ele>47.33333333333333</ele><time>2026-03-31T16:03:27Z</time></trkpt><trkpt lat="47.28258371823214" lon="-1.5882370434716233"><ele>47.5</ele><time>2026-03-31T16:03:29Z</time></trkpt><trkpt lat="47.28252948731862" lon="-1.5883270651116859"><ele>47.666666666666664</ele><time>2026-03-31T16:03:30Z</time></trkpt><trkpt lat="47.28251117286019" lon="-1.588415997104336"><ele>47.833333333333336</ele><time>2026-03-31T16:03:31Z</time></trkpt><trkpt lat="47.28245832496069" lon="-1.5885386243477357"><ele>48.0</ele><time>2026-03-31T16:03:33Z</time></trkpt><trkpt lat="47.28238104381345" lon="-1.588680194692303"><ele>48.2</ele><time>2026-03-31T16:03:35Z</time></trkpt><trkpt lat="47.28233146485619" lon="-1.588816652075936"><ele>48.4</ele><time>2026-03-31T16:03:37Z</time></trkpt><trkpt lat="47.28227509655736" lon="-1.5889555402114883"><ele>48.6</ele><time>2026-03-31T16:03:39Z</time></trkpt><trkpt lat="47.28221332193099" lon="-1.589073808865239"><ele>48.800000000000004</ele><time>2026-03-31T16:03:41Z</time></trkpt><trkpt lat="47.2821538942375" lon="-1.5891738049700754"><ele>49.0</ele><time>2026-03-31T16:03:43Z</time></trkpt><trkpt lat="47.28210695557974" lon="-1.5892905648812552"><ele>49.400000000000006</ele><time>2026-03-31T16:03:45Z</time></trkpt><trkpt lat="47.282059472098275" lon="-1.5893913991764088"><ele>49.8</ele><time>2026-03-31T16:03:47Z</time></trkpt><trkpt lat="47.28200700138442" lon="-1.5895210672184727"><ele>50.2</ele><time>2026-03-31T16:03:49Z</time></trkpt><trkpt lat="47.281941412992104" lon="-1.5896395873293183"><ele>50.599999999999994</ele><time>2026-03-31T16:03:51Z</time></trkpt><trkpt lat="47.281891331120654" lon="-1.58977403305619"><ele>51.0</ele><time>2026-03-31T16:03:53Z</time></trkpt><trkpt lat="47.28183135860346" lon="-1.5898901224151158"><ele>51.199999999999996</ele><time>2026-03-31T16:03:55Z</time></trkpt><trkpt lat="47.28176509965889" lon="-1.5899977460518386"><ele>51.4</ele><time>2026-03-31T16:03:57Z</time></trkpt><trkpt lat="47.281693434386774" lon="-1.5901353769019153"><ele>51.6</ele><time>2026-03-31T16:03:59Z</time></trkpt><trkpt lat="47.2816237388619" lon="-1.5902494546040802"><ele>51.8</ele><time>2026-03-31T16:04:01Z</time></trkpt><trkpt lat="47.28156305388294" lon="-1.5903544798508196"><ele>52.0</ele><time>2026-03-31T16:04:03Z</time></trkpt><trkpt lat="47.28150358427994" lon="-1.590465456248811"><ele>52.2</ele><time>2026-03-31T16:04:05Z</time></trkpt><trkpt lat="47.281430284536704" lon="-1.5905946213766844"><ele>52.400000000000006</ele><time>2026-03-31T16:04:07Z</time></trkpt><trkpt lat="47.28135082409464" lon="-1.5907047595843586"><ele>52.599999999999994</ele><time>2026-03-31T16:04:09Z</time></trkpt><trkpt lat="47.28127161510967" lon="-1.5908075217172417"><ele>52.8</ele><time>2026-03-31T16:04:11Z</time></trkpt><trkpt lat="47.28119114883922" lon="-1.5909055899843487"><ele>53.0</ele><time>2026-03-31T16:04:13Z</time></trkpt><trkpt lat="47.281122710599824" lon="-1.591021008791021"><ele>53.0</ele><time>2026-03-31T16:04:15Z</time></trkpt><trkpt lat="47.28105083578013" lon="-1.5911225136384284"><ele>53.0</ele><time>2026-03-31T16:04:17Z</time></trkpt><trkpt lat="47.28097380608998" lon="-1.5912395250067033"><ele>53.0</ele><time>2026-03-31T16:04:19Z</time></trkpt><trkpt lat="47.28089937478982" lon="-1.5913595538601197"><ele>53.0</ele><time>2026-03-31T16:04:21Z</time></trkpt><trkpt lat="47.2808409110152" lon="-1.5915027167662898"><ele>53.0</ele><time>2026-03-31T16:04:23Z</time></trkpt><trkpt lat="47.280803485817536" lon="-1.591586032883815"><ele>53.0</ele><time>2026-03-31T16:04:24Z</time></trkpt><trkpt lat="47.280725701756104" lon="-1.5916998591288847"><ele>53.0</ele><time>2026-03-31T16:04:26Z</time></trkpt><trkpt lat="47.280630189969465" lon="-1.5917998552337211"><ele>53.0</ele><time>2026-03-31T16:04:28Z</time></trkpt><trkpt lat="47.28054850832306" lon="-1.5919203031822964"><ele>53.0</ele><time>2026-03-31T16:04:30Z</time></trkpt><trkpt lat="47.28050643116914" lon="-1.591994902120523"><ele>53.0</ele><time>2026-03-31T16:04:31Z</time></trkpt><trkpt lat="47.28042324078016" lon="-1.5921229776009844"><ele>53.2</ele><time>2026-03-31T16:04:33Z</time></trkpt><trkpt lat="47.28037923578851" lon="-1.592191122473769"><ele>53.4</ele><time>2026-03-31T16:04:34Z</time></trkpt><trkpt lat="47.28029625494711" lon="-1.5923159290119933"><ele>53.60000000000001</ele><time>2026-03-31T16:04:36Z</time></trkpt><trkpt lat="47.280211430087014" lon="-1.592427995057397"><ele>53.800000000000004</ele><time>2026-03-31T16:04:38Z</time></trkpt><trkpt lat="47.28016918529503" lon="-1.5925035160049725"><ele>54.0</ele><time>2026-03-31T16:04:39Z</time></trkpt><trkpt lat="47.280080798126086" lon="-1.592614743860059"><ele>54.0</ele><time>2026-03-31T16:04:41Z</time></trkpt><trkpt lat="47.280003516978844" lon="-1.592732258142524"><ele>54.00000000000001</ele><time>2026-03-31T16:04:43Z</time></trkpt><trkpt lat="47.27992740929805" lon="-1.5928530413672262"><ele>54.00000000000001</ele><time>2026-03-31T16:04:45Z</time></trkpt><trkpt lat="47.27989199575715" lon="-1.592936441303783"><ele>54.0</ele><time>2026-03-31T16:04:46Z</time></trkpt><trkpt lat="47.279843045442625" lon="-1.59300860949009"><ele>54.0</ele><time>2026-03-31T16:04:47Z</time></trkpt><trkpt lat="47.27975960359655" lon="-1.5931371040657099"><ele>53.400000000000006</ele><time>2026-03-31T16:04:49Z</time></trkpt><trkpt lat="47.279677125669345" lon="-1.5932687837645347"><ele>52.800000000000004</ele><time>2026-03-31T16:04:51Z</time></trkpt><trkpt lat="47.279587481214925" lon="-1.5933987032636938"><ele>52.2</ele><time>2026-03-31T16:04:53Z</time></trkpt><trkpt lat="47.27954544597052" lon="-1.5934774931535063"><ele>51.599999999999994</ele><time>2026-03-31T16:04:54Z</time></trkpt><trkpt lat="47.27948107295416" lon="-1.5936015453204453"><ele>51.0</ele><time>2026-03-31T16:04:56Z</time></trkpt><trkpt lat="47.279412341348156" lon="-1.5937461331501543"><ele>50.833333333333336</ele><time>2026-03-31T16:04:58Z</time></trkpt><trkpt lat="47.27937143766068" lon="-1.5938830096289458"><ele>50.66666666666667</ele><time>2026-03-31T16:05:00Z</time></trkpt><trkpt lat="47.27936322339557" lon="-1.5939775574967208"><ele>50.5</ele><time>2026-03-31T16:05:02Z</time></trkpt><trkpt lat="47.27936527696185" lon="-1.5940823312863652"><ele>50.333333333333336</ele><time>2026-03-31T16:05:04Z</time></trkpt><trkpt lat="47.279374203688725" lon="-1.594199929387862"><ele>50.16666666666667</ele><time>2026-03-31T16:05:06Z</time></trkpt><trkpt lat="47.279362678571864" lon="-1.5943414997324294"><ele>50.0</ele><time>2026-03-31T16:05:08Z</time></trkpt><trkpt lat="47.279299646660014" lon="-1.5944649651661462"><ele>50.0</ele><time>2026-03-31T16:05:10Z</time></trkpt><trkpt lat="47.27919814181261" lon="-1.5945347026005336"><ele>50.0</ele><time>2026-03-31T16:05:12Z</time></trkpt><trkpt lat="47.27913439743899" lon="-1.5945486165597984"><ele>50.0</ele><time>2026-03-31T16:05:13Z</time></trkpt><trkpt lat="47.2790345270627" lon="-1.594593208284671"><ele>50.0</ele><time>2026-03-31T16:05:15Z</time></trkpt><trkpt lat="47.2789436253228" lon="-1.5946890972569534"><ele>50.0</ele><time>2026-03-31T16:05:17Z</time></trkpt><trkpt lat="47.27888972968541" lon="-1.5947586670532774"><ele>50.0</ele><time>2026-03-31T16:05:18Z</time></trkpt><trkpt lat="47.27883114018224" lon="-1.594911050052936"><ele>50.0</ele><time>2026-03-31T16:05:20Z</time></trkpt><trkpt lat="47.27876333058558" lon="-1.5950451605036808"><ele>50.0</ele><time>2026-03-31T16:05:22Z</time></trkpt><trkpt lat="47.278705956458374" lon="-1.5951992198839737"><ele>50.0</ele><time>2026-03-31T16:05:24Z</time></trkpt><trkpt lat="47.2786396975138" lon="-1.5953406225904778"><ele>50.0</ele><time>2026-03-31T16:05:26Z</time></trkpt><trkpt lat="47.27858270057224" lon="-1.5954830311253625"><ele>50.0</ele><time>2026-03-31T16:05:28Z</time></trkpt><trkpt lat="47.27852721237324" lon="-1.59563633613437"><ele>50.0</ele><time>2026-03-31T16:05:30Z</time></trkpt><trkpt lat="47.27849808525972" lon="-1.595728537069257"><ele>50.0</ele><time>2026-03-31T16:05:31Z</time></trkpt><trkpt lat="47.27846166589044" lon="-1.5958109311774333"><ele>50.0</ele><time>2026-03-31T16:05:32Z</time></trkpt><trkpt lat="47.27841393095188" lon="-1.595965409652885"><ele>50.0</ele><time>2026-03-31T16:05:34Z</time></trkpt><trkpt lat="47.278366112194284" lon="-1.5961086563780866"><ele>50.0</ele><time>2026-03-31T16:05:36Z</time></trkpt><trkpt lat="47.278322191021665" lon="-1.5962467901423538"><ele>50.0</ele><time>2026-03-31T16:05:38Z</time></trkpt><trkpt lat="47.27830228400163" lon="-1.5963641367867554"><ele>50.0</ele><time>2026-03-31T16:05:40Z</time></trkpt><trkpt lat="47.27827319879763" lon="-1.596470922233161"><ele>50.0</ele><time>2026-03-31T16:05:43Z</time></trkpt><trkpt lat="47.27828044914387" lon="-1.5966024342939225"><ele>50.0</ele><time>2026-03-31T16:05:46Z</time></trkpt><trkpt lat="47.27831577886574" lon="-1.5967180207386582"><ele>50.0</ele><time>2026-03-31T16:05:48Z</time></trkpt><trkpt lat="47.27833711080931" lon="-1.5968655422344773"><ele>50.0</ele><time>2026-03-31T16:05:50Z</time></trkpt><trkpt lat="47.278316533237025" lon="-1.597026810051498"><ele>50.0</ele><time>2026-03-31T16:05:52Z</time></trkpt><trkpt lat="47.27826741528444" lon="-1.5971377864494893"><ele>50.0</ele><time>2026-03-31T16:05:54Z</time></trkpt><trkpt lat="47.27822894234888" lon="-1.5972184203579995"><ele>50.16666666666667</ele><time>2026-03-31T16:05:55Z</time></trkpt><trkpt lat="47.2781769326397" lon="-1.5972832962885473"><ele>50.333333333333336</ele><time>2026-03-31T16:05:56Z</time></trkpt><trkpt lat="47.27807324849747" lon="-1.5973640140160894"><ele>50.5</ele><time>2026-03-31T16:05:58Z</time></trkpt><trkpt lat="47.27801113859497" lon="-1.5973879024401283"><ele>50.66666666666667</ele><time>2026-03-31T16:05:59Z</time></trkpt><trkpt lat="47.27796315219931" lon="-1.5974481683239317"><ele>50.833333333333336</ele><time>2026-03-31T16:06:00Z</time></trkpt><trkpt lat="47.27786814332686" lon="-1.597552020104227"><ele>51.0</ele><time>2026-03-31T16:06:02Z</time></trkpt><trkpt lat="47.27779270619832" lon="-1.5976733062431194"><ele>50.666666666666664</ele><time>2026-03-31T16:06:04Z</time></trkpt><trkpt lat="47.27772422604941" lon="-1.5977749787285902"><ele>50.33333333333333</ele><time>2026-03-31T16:06:06Z</time></trkpt><trkpt lat="47.27765448861502" lon="-1.5979079995319228"><ele>50.0</ele><time>2026-03-31T16:06:08Z</time></trkpt><trkpt lat="47.277636928527876" lon="-1.598004810513554"><ele>49.666666666666664</ele><time>2026-03-31T16:06:09Z</time></trkpt><trkpt lat="47.27761748251252" lon="-1.5981019567713124"><ele>49.33333333333333</ele><time>2026-03-31T16:06:10Z</time></trkpt><trkpt lat="47.27761299819432" lon="-1.598196001724897"><ele>49.0</ele><time>2026-03-31T16:06:11Z</time></trkpt><trkpt lat="47.27757305842571" lon="-1.5983326267465934"><ele>49.0</ele><time>2026-03-31T16:06:13Z</time></trkpt><trkpt lat="47.277540327093824" lon="-1.5984158590450868"><ele>49.0</ele><time>2026-03-31T16:06:14Z</time></trkpt><trkpt lat="47.27749112532221" lon="-1.5985704213395702"><ele>49.0</ele><time>2026-03-31T16:06:16Z</time></trkpt><trkpt lat="47.27743132044307" lon="-1.5987383946791278"><ele>49.0</ele><time>2026-03-31T16:06:18Z</time></trkpt><trkpt lat="47.277388488917865" lon="-1.5989005006864656"><ele>49.0</ele><time>2026-03-31T16:06:20Z</time></trkpt><trkpt lat="47.277332623533226" lon="-1.5990645345315329"><ele>49.0</ele><time>2026-03-31T16:06:22Z</time></trkpt><trkpt lat="47.27731049530885" lon="-1.5991514548674217"><ele>49.0</ele><time>2026-03-31T16:06:23Z</time></trkpt><trkpt lat="47.277291049293495" lon="-1.599240889774262"><ele>49.0</ele><time>2026-03-31T16:06:24Z</time></trkpt><trkpt lat="47.27723405235193" lon="-1.5994075220093125"><ele>49.0</ele><time>2026-03-31T16:06:26Z</time></trkpt><trkpt lat="47.27718464103273" lon="-1.5995739866062995"><ele>49.0</ele><time>2026-03-31T16:06:28Z</time></trkpt><trkpt lat="47.277140300764955" lon="-1.5997219271972771"><ele>49.166666666666664</ele><time>2026-03-31T16:06:30Z</time></trkpt><trkpt lat="47.277114191136576" lon="-1.5998073387905953"><ele>49.33333333333333</ele><time>2026-03-31T16:06:31Z</time></trkpt><trkpt lat="47.27707844231955" lon="-1.5998964384213088"><ele>49.5</ele><time>2026-03-31T16:06:32Z</time></trkpt><trkpt lat="47.277023457034744" lon="-1.6000443790122867"><ele>49.66666666666667</ele><time>2026-03-31T16:06:34Z</time></trkpt><trkpt lat="47.27695623417131" lon="-1.6001954209074378"><ele>49.833333333333336</ele><time>2026-03-31T16:06:36Z</time></trkpt><trkpt lat="47.27692727469585" lon="-1.6002786532059314"><ele>50.0</ele><time>2026-03-31T16:06:37Z</time></trkpt><trkpt lat="47.27690087170086" lon="-1.6003893781468275"><ele>50.00000000000001</ele><time>2026-03-31T16:06:38Z</time></trkpt><trkpt lat="47.27685213093392" lon="-1.6005518194302921"><ele>50.0</ele><time>2026-03-31T16:06:40Z</time></trkpt><trkpt lat="47.27682572793893" lon="-1.6006407514229422"><ele>50.0</ele><time>2026-03-31T16:06:41Z</time></trkpt><trkpt lat="47.27677288003943" lon="-1.6007425077274449"><ele>50.0</ele><time>2026-03-31T16:06:42Z</time></trkpt><trkpt lat="47.27676357612691" lon="-1.6008484549835331"><ele>50.00000000000001</ele><time>2026-03-31T16:06:43Z</time></trkpt><trkpt lat="47.27673574820838" lon="-1.6009642090663323"><ele>50.0</ele><time>2026-03-31T16:06:44Z</time></trkpt><trkpt lat="47.27670574099503" lon="-1.601134529338778"><ele>49.833333333333336</ele><time>2026-03-31T16:06:46Z</time></trkpt><trkpt lat="47.27667414122007" lon="-1.60122647881657"><ele>49.66666666666667</ele><time>2026-03-31T16:06:47Z</time></trkpt><trkpt lat="47.27664032024077" lon="-1.601408282296361"><ele>49.5</ele><time>2026-03-31T16:06:49Z</time></trkpt><trkpt lat="47.27661869493059" lon="-1.6015074402108802"><ele>49.33333333333333</ele><time>2026-03-31T16:06:50Z</time></trkpt><trkpt lat="47.27660494860939" lon="-1.6016095317915096"><ele>49.166666666666664</ele><time>2026-03-31T16:06:51Z</time></trkpt><trkpt lat="47.27658893917433" lon="-1.6017117910102026"><ele>49.0</ele><time>2026-03-31T16:06:52Z</time></trkpt><trkpt lat="47.27657875516198" lon="-1.6018087696298973"><ele>49.0</ele><time>2026-03-31T16:06:53Z</time></trkpt><trkpt lat="47.276576450138606" lon="-1.601915806533398"><ele>49.0</ele><time>2026-03-31T16:06:54Z</time></trkpt><trkpt lat="47.27656609848819" lon="-1.6020077560111898"><ele>49.0</ele><time>2026-03-31T16:06:55Z</time></trkpt><trkpt lat="47.276553986638106" lon="-1.602114625276627"><ele>49.0</ele><time>2026-03-31T16:06:56Z</time></trkpt><trkpt lat="47.27654543709687" lon="-1.602224260570111"><ele>49.0</ele><time>2026-03-31T16:06:57Z</time></trkpt><trkpt lat="47.27654040795497" lon="-1.6023247595891377"><ele>49.0</ele><time>2026-03-31T16:06:58Z</time></trkpt><trkpt lat="47.276541455692865" lon="-1.602424839513006"><ele>49.0</ele><time>2026-03-31T16:06:59Z</time></trkpt><trkpt lat="47.276548035486854" lon="-1.6025286074742697"><ele>48.99999999999999</ele><time>2026-03-31T16:07:00Z</time></trkpt><trkpt lat="47.27655629166148" lon="-1.6026302799597407"><ele>49.0</ele><time>2026-03-31T16:07:01Z</time></trkpt><trkpt lat="47.27656211708418" lon="-1.6027339641019727"><ele>49.0</ele><time>2026-03-31T16:07:02Z</time></trkpt><trkpt lat="47.27657276210121" lon="-1.6028340440258408"><ele>49.0</ele><time>2026-03-31T16:07:03Z</time></trkpt><trkpt lat="47.27661513262174" lon="-1.6030004248037961"><ele>48.99999999999999</ele><time>2026-03-31T16:07:05Z</time></trkpt><trkpt lat="47.27661412679336" lon="-1.6031303443029552"><ele>49.0</ele><time>2026-03-31T16:07:06Z</time></trkpt><trkpt lat="47.27662804075263" lon="-1.6032286640271574"><ele>49.0</ele><time>2026-03-31T16:07:07Z</time></trkpt><trkpt lat="47.27666349620304" lon="-1.6033093817546993"><ele>49.0</ele><time>2026-03-31T16:07:08Z</time></trkpt><trkpt lat="47.27667057891122" lon="-1.6034153290107878"><ele>49.0</ele><time>2026-03-31T16:07:09Z</time></trkpt><trkpt lat="47.276683906137265" lon="-1.6035191807910831"><ele>49.0</ele><time>2026-03-31T16:07:10Z</time></trkpt><trkpt lat="47.27670134049586" lon="-1.6036175843343172"><ele>49.0</ele><time>2026-03-31T16:07:11Z</time></trkpt><trkpt lat="47.27671978068284" lon="-1.603715149687234"><ele>49.0</ele><time>2026-03-31T16:07:12Z</time></trkpt><trkpt lat="47.27673243735663" lon="-1.6038085240885651"><ele>49.0</ele><time>2026-03-31T16:07:13Z</time></trkpt><trkpt lat="47.27673629303209" lon="-1.6039062570795453"><ele>48.99999999999999</ele><time>2026-03-31T16:07:14Z</time></trkpt><trkpt lat="47.27675393693826" lon="-1.6040186584010756"><ele>49.0</ele><time>2026-03-31T16:07:15Z</time></trkpt><trkpt lat="47.27676236075095" lon="-1.60413173027486"><ele>49.0</ele><time>2026-03-31T16:07:16Z</time></trkpt><trkpt lat="47.27678096857599" lon="-1.604232145474855"><ele>49.0</ele><time>2026-03-31T16:07:17Z</time></trkpt><trkpt lat="47.27679739710621" lon="-1.6043606400504749"><ele>48.99999999999999</ele><time>2026-03-31T16:07:18Z</time></trkpt><trkpt lat="47.27681474764577" lon="-1.6044603846982162"><ele>49.0</ele><time>2026-03-31T16:07:19Z</time></trkpt><trkpt lat="47.27683033798567" lon="-1.604557363317911"><ele>48.49999999999999</ele><time>2026-03-31T16:07:20Z</time></trkpt><trkpt lat="47.27683431938968" lon="-1.6046635620310945"><ele>48.0</ele><time>2026-03-31T16:07:21Z</time></trkpt><trkpt lat="47.27685967464677" lon="-1.6047560982421085"><ele>47.5</ele><time>2026-03-31T16:07:22Z</time></trkpt><trkpt lat="47.27688000076196" lon="-1.604851987214391"><ele>47.0</ele><time>2026-03-31T16:07:23Z</time></trkpt><trkpt lat="47.27689680647782" lon="-1.6049583535656378"><ele>46.5</ele><time>2026-03-31T16:07:24Z</time></trkpt><trkpt lat="47.276864242784" lon="-1.6051368881031918"><ele>46.0</ele><time>2026-03-31T16:07:25Z</time></trkpt><trkpt lat="47.276876228905536" lon="-1.6052409075215508"><ele>46.8</ele><time>2026-03-31T16:07:26Z</time></trkpt><trkpt lat="47.27689140015028" lon="-1.6054051090046813"><ele>47.599999999999994</ele><time>2026-03-31T16:07:28Z</time></trkpt><trkpt lat="47.276886161460794" lon="-1.6055282391622714"><ele>48.4</ele><time>2026-03-31T16:07:29Z</time></trkpt><trkpt lat="47.27687589362941" lon="-1.6056278161719493"><ele>49.2</ele><time>2026-03-31T16:07:30Z</time></trkpt><trkpt lat="47.276851753748275" lon="-1.6057953704163486"><ele>50.0</ele><time>2026-03-31T16:07:32Z</time></trkpt><trkpt lat="47.276798235296525" lon="-1.6058716457352096"><ele>50.00000000000001</ele><time>2026-03-31T16:07:33Z</time></trkpt><trkpt lat="47.27670548953793" lon="-1.606023861096805"><ele>50.0</ele><time>2026-03-31T16:07:35Z</time></trkpt><trkpt lat="47.27667062082074" lon="-1.6061318200096544"><ele>50.0</ele><time>2026-03-31T16:07:36Z</time></trkpt><trkpt lat="47.276633111804045" lon="-1.6062284633532224"><ele>50.0</ele><time>2026-03-31T16:07:37Z</time></trkpt><trkpt lat="47.27658902299336" lon="-1.6063025593772589"><ele>50.00000000000001</ele><time>2026-03-31T16:07:38Z</time></trkpt><trkpt lat="47.27653039158068" lon="-1.6063895635321794"><ele>50.0</ele><time>2026-03-31T16:07:39Z</time></trkpt><trkpt lat="47.2764844587513" lon="-1.6064804233625591"><ele>49.66666666666667</ele><time>2026-03-31T16:07:40Z</time></trkpt><trkpt lat="47.276441082402386" lon="-1.606564410032338"><ele>49.333333333333336</ele><time>2026-03-31T16:07:41Z</time></trkpt><trkpt lat="47.2763903718882" lon="-1.606648983435339"><ele>49.0</ele><time>2026-03-31T16:07:42Z</time></trkpt><trkpt lat="47.27634754036299" lon="-1.606738837437338"><ele>48.66666666666667</ele><time>2026-03-31T16:07:43Z</time></trkpt><trkpt lat="47.27631045044146" lon="-1.6068510711208048"><ele>48.333333333333336</ele><time>2026-03-31T16:07:44Z</time></trkpt><trkpt lat="47.27627428252927" lon="-1.606950312854356"><ele>48.0</ele><time>2026-03-31T16:07:45Z</time></trkpt><trkpt lat="47.27624838244847" lon="-1.6070470400169556"><ele>47.5</ele><time>2026-03-31T16:07:46Z</time></trkpt><trkpt lat="47.27622118317268" lon="-1.6071555856630273"><ele>47.0</ele><time>2026-03-31T16:07:47Z</time></trkpt><trkpt lat="47.27616955064914" lon="-1.6073554102346368"><ele>46.5</ele><time>2026-03-31T16:07:49Z</time></trkpt><trkpt lat="47.276143943934954" lon="-1.6074554063394735"><ele>46.0</ele><time>2026-03-31T16:07:50Z</time></trkpt><trkpt lat="47.27612034887753" lon="-1.607565376909084"><ele>45.5</ele><time>2026-03-31T16:07:51Z</time></trkpt><trkpt lat="47.27610056758604" lon="-1.607667636127777"><ele>45.0</ele><time>2026-03-31T16:07:52Z</time></trkpt><trkpt lat="47.27607114710591" lon="-1.6077637765571546"><ele>45.333333333333336</ele><time>2026-03-31T16:07:53Z</time></trkpt><trkpt lat="47.27605027616701" lon="-1.607877099888034"><ele>45.666666666666664</ele><time>2026-03-31T16:07:54Z</time></trkpt><trkpt lat="47.27603171025149" lon="-1.6079756710693314"><ele>46.0</ele><time>2026-03-31T16:07:55Z</time></trkpt><trkpt lat="47.27601306051693" lon="-1.6080672014519646"><ele>46.33333333333333</ele><time>2026-03-31T16:07:56Z</time></trkpt><trkpt lat="47.27599038746885" lon="-1.6081547085210757"><ele>46.666666666666664</ele><time>2026-03-31T16:07:57Z</time></trkpt><trkpt lat="47.275942191525615" lon="-1.6082702949658112"><ele>47.0</ele><time>2026-03-31T16:07:58Z</time></trkpt><trkpt lat="47.27589588151059" lon="-1.6083940118566233"><ele>47.0</ele><time>2026-03-31T16:08:00Z</time></trkpt><trkpt lat="47.27581939664415" lon="-1.6085447184756476"><ele>47.0</ele><time>2026-03-31T16:08:02Z</time></trkpt><trkpt lat="47.275778409137644" lon="-1.608629459516712"><ele>47.0</ele><time>2026-03-31T16:08:03Z</time></trkpt><trkpt lat="47.275717095515944" lon="-1.6087149549290618"><ele>47.0</ele><time>2026-03-31T16:08:04Z</time></trkpt><trkpt lat="47.27567070168189" lon="-1.6087904758766374"><ele>47.0</ele><time>2026-03-31T16:08:05Z</time></trkpt><trkpt lat="47.275637257888235" lon="-1.6088773962125265"><ele>47.0</ele><time>2026-03-31T16:08:06Z</time></trkpt><trkpt lat="47.27558327843181" lon="-1.6089628916248762"><ele>47.33333333333333</ele><time>2026-03-31T16:08:07Z</time></trkpt><trkpt lat="47.27553411856971" lon="-1.6090415976956571"><ele>47.666666666666664</ele><time>2026-03-31T16:08:08Z</time></trkpt><trkpt lat="47.27545277219943" lon="-1.6091545019313778"><ele>48.0</ele><time>2026-03-31T16:08:10Z</time></trkpt><trkpt lat="47.27541392207823" lon="-1.609251061455914"><ele>48.33333333333333</ele><time>2026-03-31T16:08:11Z</time></trkpt><trkpt lat="47.275353572375394" lon="-1.6093110758826223"><ele>48.666666666666664</ele><time>2026-03-31T16:08:12Z</time></trkpt><trkpt lat="47.27531149522147" lon="-1.6093808133170096"><ele>49.0</ele><time>2026-03-31T16:08:13Z</time></trkpt><trkpt lat="47.275265855758704" lon="-1.6094534844175068"><ele>49.0</ele><time>2026-03-31T16:08:14Z</time></trkpt><trkpt lat="47.27518098898909" lon="-1.6095867566779345"><ele>49.0</ele><time>2026-03-31T16:08:16Z</time></trkpt><trkpt lat="47.2751226090335" lon="-1.6096504591420382"><ele>49.0</ele><time>2026-03-31T16:08:17Z</time></trkpt><trkpt lat="47.27501255464486" lon="-1.6097605135306807"><ele>49.0</ele><time>2026-03-31T16:08:19Z</time></trkpt><trkpt lat="47.27495970674536" lon="-1.6098551452174874"><ele>49.0</ele><time>2026-03-31T16:08:20Z</time></trkpt><trkpt lat="47.27490824185989" lon="-1.6099302470699044"><ele>49.0</ele><time>2026-03-31T16:08:21Z</time></trkpt><trkpt lat="47.27485635787926" lon="-1.6100333444789146"><ele>49.0</ele><time>2026-03-31T16:08:22Z</time></trkpt><trkpt lat="47.27473293435506" lon="-1.6101376991734002"><ele>49.0</ele><time>2026-03-31T16:08:24Z</time></trkpt><trkpt lat="47.27462128740481" lon="-1.6102392040208078"><ele>49.0</ele><time>2026-03-31T16:08:26Z</time></trkpt><trkpt lat="47.27451571733437" lon="-1.6103293932989335"><ele>48.33333333333333</ele><time>2026-03-31T16:08:28Z</time></trkpt><trkpt lat="47.274458971849896" lon="-1.6103948559627033"><ele>47.666666666666664</ele><time>2026-03-31T16:08:29Z</time></trkpt><trkpt lat="47.274401807270266" lon="-1.6104503441616989"><ele>47.0</ele><time>2026-03-31T16:08:30Z</time></trkpt><trkpt lat="47.274303068450905" lon="-1.6105813533082702"><ele>46.33333333333333</ele><time>2026-03-31T16:08:32Z</time></trkpt><trkpt lat="47.274252274117686" lon="-1.610636170955012"><ele>45.666666666666664</ele><time>2026-03-31T16:08:33Z</time></trkpt><trkpt lat="47.274190248034216" lon="-1.6106792539373138"><ele>45.0</ele><time>2026-03-31T16:08:34Z</time></trkpt><trkpt lat="47.274086773439564" lon="-1.6107642464354734"><ele>45.0</ele><time>2026-03-31T16:08:36Z</time></trkpt><trkpt lat="47.2740200115808" lon="-1.6108048148468237"><ele>45.0</ele><time>2026-03-31T16:08:37Z</time></trkpt><trkpt lat="47.27396607403389" lon="-1.6108577884748678"><ele>45.0</ele><time>2026-03-31T16:08:38Z</time></trkpt><trkpt lat="47.273913938596166" lon="-1.6109112650171022"><ele>45.0</ele><time>2026-03-31T16:08:39Z</time></trkpt><trkpt lat="47.27385723502121" lon="-1.6109643224641783"><ele>45.0</ele><time>2026-03-31T16:08:40Z</time></trkpt><trkpt lat="47.273811763196505" lon="-1.6110467165723545"><ele>45.0</ele><time>2026-03-31T16:08:41Z</time></trkpt><trkpt lat="47.27375292223624" lon="-1.6111023724094136"><ele>45.0</ele><time>2026-03-31T16:08:42Z</time></trkpt><trkpt lat="47.27370556448332" lon="-1.6111705172821982"><ele>45.166666666666664</ele><time>2026-03-31T16:08:43Z</time></trkpt><trkpt lat="47.27366579235277" lon="-1.6112540848568186"><ele>45.333333333333336</ele><time>2026-03-31T16:08:44Z</time></trkpt><trkpt lat="47.2736256849461" lon="-1.6113342158511386"><ele>45.5</ele><time>2026-03-31T16:08:45Z</time></trkpt><trkpt lat="47.27356441323391" lon="-1.6113990917816863"><ele>45.66666666666667</ele><time>2026-03-31T16:08:46Z</time></trkpt><trkpt lat="47.27351923477582" lon="-1.6114785522237527"><ele>45.833333333333336</ele><time>2026-03-31T16:08:47Z</time></trkpt><trkpt lat="47.27347481068901" lon="-1.6115575097516286"><ele>46.0</ele><time>2026-03-31T16:08:48Z</time></trkpt><trkpt lat="47.27340117566965" lon="-1.6117228008821716"><ele>46.0</ele><time>2026-03-31T16:08:50Z</time></trkpt><trkpt lat="47.273341622247614" lon="-1.611851966010045"><ele>46.0</ele><time>2026-03-31T16:08:52Z</time></trkpt><trkpt lat="47.27330046710304" lon="-1.6119653731599561"><ele>46.0</ele><time>2026-03-31T16:08:53Z</time></trkpt><trkpt lat="47.273260862610556" lon="-1.612044079230737"><ele>46.0</ele><time>2026-03-31T16:08:54Z</time></trkpt><trkpt lat="47.27321660616181" lon="-1.612141309307527"><ele>46.0</ele><time>2026-03-31T16:08:55Z</time></trkpt><trkpt lat="47.27316895504228" lon="-1.612281790004682"><ele>46.0</ele><time>2026-03-31T16:08:57Z</time></trkpt><trkpt lat="47.273155041083015" lon="-1.612381115557265"><ele>46.0</ele><time>2026-03-31T16:08:58Z</time></trkpt><trkpt lat="47.27312922482125" lon="-1.6124664433315512"><ele>46.0</ele><time>2026-03-31T16:08:59Z</time></trkpt><trkpt lat="47.273106467954136" lon="-1.612578425557923"><ele>46.0</ele><time>2026-03-31T16:09:00Z</time></trkpt><trkpt lat="47.273088572590865" lon="-1.6127002984300374"><ele>46.0</ele><time>2026-03-31T16:09:01Z</time></trkpt><trkpt lat="47.27305131503127" lon="-1.6128066647812842"><ele>46.0</ele><time>2026-03-31T16:09:02Z</time></trkpt><trkpt lat="47.273014602295376" lon="-1.6129047330483914"><ele>46.0</ele><time>2026-03-31T16:09:03Z</time></trkpt><trkpt lat="47.27297487207434" lon="-1.61301705055089"><ele>45.833333333333336</ele><time>2026-03-31T16:09:04Z</time></trkpt><trkpt lat="47.27295798253945" lon="-1.6131268534824375"><ele>45.66666666666667</ele><time>2026-03-31T16:09:05Z</time></trkpt><trkpt lat="47.27293702778152" lon="-1.613237746061397"><ele>45.5</ele><time>2026-03-31T16:09:06Z</time></trkpt><trkpt lat="47.27291640829972" lon="-1.6133512370303398"><ele>45.333333333333336</ele><time>2026-03-31T16:09:07Z</time></trkpt><trkpt lat="47.27289972831241" lon="-1.6134572681054598"><ele>45.166666666666664</ele><time>2026-03-31T16:09:08Z</time></trkpt><trkpt lat="47.27286414713345" lon="-1.6135612875238186"><ele>45.0</ele><time>2026-03-31T16:09:09Z</time></trkpt><trkpt lat="47.27284600031308" lon="-1.6136532370016106"><ele>45.0</ele><time>2026-03-31T16:09:10Z</time></trkpt><trkpt lat="47.27281343661926" lon="-1.6137512214496859"><ele>45.0</ele><time>2026-03-31T16:09:11Z</time></trkpt><trkpt lat="47.27276708469472" lon="-1.613911734895421"><ele>45.0</ele><time>2026-03-31T16:09:13Z</time></trkpt><trkpt lat="47.27274491456083" lon="-1.614079959692074"><ele>45.0</ele><time>2026-03-31T16:09:15Z</time></trkpt><trkpt lat="47.27272471417419" lon="-1.6141696460560095"><ele>45.0</ele><time>2026-03-31T16:09:16Z</time></trkpt><trkpt lat="47.272698939821936" lon="-1.614258158953501"><ele>45.0</ele><time>2026-03-31T16:09:17Z</time></trkpt><trkpt lat="47.27267827843062" lon="-1.6143500246122613"><ele>45.0</ele><time>2026-03-31T16:09:18Z</time></trkpt><trkpt lat="47.272652210711755" lon="-1.6144436504706874"><ele>45.0</ele><time>2026-03-31T16:09:19Z</time></trkpt><trkpt lat="47.27263150741092" lon="-1.614538365976526"><ele>45.0</ele><time>2026-03-31T16:09:20Z</time></trkpt><trkpt lat="47.27259248965166" lon="-1.6147174872473018"><ele>45.0</ele><time>2026-03-31T16:09:22Z</time></trkpt><trkpt lat="47.27257132534615" lon="-1.61490306258352"><ele>45.0</ele><time>2026-03-31T16:09:24Z</time></trkpt><trkpt lat="47.27253561843864" lon="-1.6150116920486233"><ele>45.166666666666664</ele><time>2026-03-31T16:09:25Z</time></trkpt><trkpt lat="47.27252602115951" lon="-1.6151093412205717"><ele>45.333333333333336</ele><time>2026-03-31T16:09:26Z</time></trkpt><trkpt lat="47.272505904591895" lon="-1.6152038890883467"><ele>45.5</ele><time>2026-03-31T16:09:27Z</time></trkpt><trkpt lat="47.27247958541594" lon="-1.615366414190843"><ele>45.66666666666667</ele><time>2026-03-31T16:09:29Z</time></trkpt><trkpt lat="47.27245779246769" lon="-1.6154578607544445"><ele>45.833333333333336</ele><time>2026-03-31T16:09:30Z</time></trkpt><trkpt lat="47.2724409029328" lon="-1.6155477147564437"><ele>46.0</ele><time>2026-03-31T16:09:31Z</time></trkpt><trkpt lat="47.27242137309841" lon="-1.615716693924382"><ele>46.199999999999996</ele><time>2026-03-31T16:09:33Z</time></trkpt><trkpt lat="47.27241651159457" lon="-1.6158795543030051"><ele>46.4</ele><time>2026-03-31T16:09:35Z</time></trkpt><trkpt lat="47.27239111442796" lon="-1.61605666391702"><ele>46.6</ele><time>2026-03-31T16:09:37Z</time></trkpt><trkpt lat="47.272407165772535" lon="-1.6162099689260276"><ele>46.8</ele><time>2026-03-31T16:09:39Z</time></trkpt><trkpt lat="47.27240599230609" lon="-1.6163567360505613"><ele>47.0</ele><time>2026-03-31T16:09:41Z</time></trkpt><trkpt lat="47.272417978427626" lon="-1.6165070235744272"><ele>47.0</ele><time>2026-03-31T16:09:43Z</time></trkpt><trkpt lat="47.27242652796886" lon="-1.6166792716846026"><ele>47.0</ele><time>2026-03-31T16:09:45Z</time></trkpt><trkpt lat="47.272452805235304" lon="-1.6168350912645615"><ele>47.0</ele><time>2026-03-31T16:09:47Z</time></trkpt><trkpt lat="47.27248532701961" lon="-1.6170021425947705"><ele>47.0</ele><time>2026-03-31T16:09:49Z</time></trkpt><trkpt lat="47.272491655356504" lon="-1.6170961875483552"><ele>47.0</ele><time>2026-03-31T16:09:50Z</time></trkpt><trkpt lat="47.27251960900358" lon="-1.617272710429148"><ele>46.8</ele><time>2026-03-31T16:09:52Z</time></trkpt><trkpt lat="47.27253863592378" lon="-1.6173665039256375"><ele>46.6</ele><time>2026-03-31T16:09:53Z</time></trkpt><trkpt lat="47.27258125790141" lon="-1.617496926338987"><ele>46.4</ele><time>2026-03-31T16:09:55Z</time></trkpt><trkpt lat="47.27262056902728" lon="-1.6176375746742055"><ele>46.199999999999996</ele><time>2026-03-31T16:09:57Z</time></trkpt><trkpt lat="47.27266675331376" lon="-1.617837734521942"><ele>46.0</ele><time>2026-03-31T16:09:59Z</time></trkpt><trkpt lat="47.27270241831175" lon="-1.6180014330908823"><ele>46.0</ele><time>2026-03-31T16:10:01Z</time></trkpt><trkpt lat="47.272700658112086" lon="-1.6181095596417954"><ele>46.0</ele><time>2026-03-31T16:10:02Z</time></trkpt><trkpt lat="47.27273058150641" lon="-1.6182502079770138"><ele>46.0</ele><time>2026-03-31T16:10:04Z</time></trkpt><trkpt lat="47.27275543384931" lon="-1.6183501202628188"><ele>46.0</ele><time>2026-03-31T16:10:06Z</time></trkpt><trkpt lat="47.2726652864807" lon="-1.6185792814955289"><ele>46.0</ele><time>2026-03-31T16:10:08Z</time></trkpt><trkpt lat="47.2727025440403" lon="-1.6186761762961919"><ele>46.0</ele><time>2026-03-31T16:10:09Z</time></trkpt><trkpt lat="47.27267048326067" lon="-1.618857057766634"><ele>46.0</ele><time>2026-03-31T16:10:11Z</time></trkpt><trkpt lat="47.27262232922695" lon="-1.618977505715209"><ele>46.0</ele><time>2026-03-31T16:10:13Z</time></trkpt><trkpt lat="47.2725859936767" lon="-1.6191394440844833"><ele>46.0</ele><time>2026-03-31T16:10:15Z</time></trkpt><trkpt lat="47.27256109942428" lon="-1.6192279569819747"><ele>46.0</ele><time>2026-03-31T16:10:16Z</time></trkpt><trkpt lat="47.27251273584298" lon="-1.6194082517191948"><ele>45.66666666666667</ele><time>2026-03-31T16:10:18Z</time></trkpt><trkpt lat="47.272479753054" lon="-1.6195048950627626"><ele>45.333333333333336</ele><time>2026-03-31T16:10:19Z</time></trkpt><trkpt lat="47.27242833007804" lon="-1.6196929011509005"><ele>45.0</ele><time>2026-03-31T16:10:21Z</time></trkpt><trkpt lat="47.27239895150743" lon="-1.6197910532370394"><ele>44.666666666666664</ele><time>2026-03-31T16:10:22Z</time></trkpt><trkpt lat="47.27235846691511" lon="-1.6198935639128274"><ele>44.33333333333333</ele><time>2026-03-31T16:10:23Z</time></trkpt><trkpt lat="47.27233336311511" lon="-1.6199918836370295"><ele>44.0</ele><time>2026-03-31T16:10:24Z</time></trkpt><trkpt lat="47.2723026853495" lon="-1.620090790094454"><ele>42.83333333333333</ele><time>2026-03-31T16:10:25Z</time></trkpt><trkpt lat="47.272263793318785" lon="-1.6201725974694081"><ele>41.666666666666664</ele><time>2026-03-31T16:10:26Z</time></trkpt><trkpt lat="47.272237683690406" lon="-1.6202842444196532"><ele>40.5</ele><time>2026-03-31T16:10:27Z</time></trkpt><trkpt lat="47.272209562405266" lon="-1.620380636306126"><ele>39.333333333333336</ele><time>2026-03-31T16:10:28Z</time></trkpt><trkpt lat="47.27217037700794" lon="-1.6204904392376733"><ele>38.16666666666667</ele><time>2026-03-31T16:10:29Z</time></trkpt><trkpt lat="47.272101016759194" lon="-1.6206314228490186"><ele>37.0</ele><time>2026-03-31T16:10:31Z</time></trkpt><trkpt lat="47.27207918190143" lon="-1.6207638569191292"><ele>36.6</ele><time>2026-03-31T16:10:33Z</time></trkpt><trkpt lat="47.27200684607706" lon="-1.6208615899101093"><ele>36.2</ele><time>2026-03-31T16:10:35Z</time></trkpt><trkpt lat="47.27191213057122" lon="-1.6208589915201261"><ele>35.8</ele><time>2026-03-31T16:10:37Z</time></trkpt><trkpt lat="47.271880153610624" lon="-1.6207097936436725"><ele>35.4</ele><time>2026-03-31T16:10:39Z</time></trkpt><trkpt lat="47.271864353723146" lon="-1.6206105519101215"><ele>35.0</ele><time>2026-03-31T16:10:41Z</time></trkpt><trkpt lat="47.27182043255053" lon="-1.620503515006621"><ele>35.0</ele><time>2026-03-31T16:10:43Z</time></trkpt><trkpt lat="47.27177152414552" lon="-1.6204257309451888"><ele>35.0</ele><time>2026-03-31T16:10:46Z</time></trkpt><trkpt lat="47.27171205454252" lon="-1.6203539818540404"><ele>35.0</ele><time>2026-03-31T16:10:50Z</time></trkpt><trkpt lat="47.27166247558526" lon="-1.6202635411188195"><ele>35.0</ele><time>2026-03-31T16:10:52Z</time></trkpt><trkpt lat="47.27161423773251" lon="-1.6201904509231635"><ele>35.0</ele><time>2026-03-31T16:10:53Z</time></trkpt><trkpt lat="47.27155250501565" lon="-1.6200787201538869"><ele>35.0</ele><time>2026-03-31T16:10:55Z</time></trkpt><trkpt lat="47.27148280949078" lon="-1.619931366296131"><ele>35.0</ele><time>2026-03-31T16:10:56Z</time></trkpt><trkpt lat="47.2713996191018" lon="-1.6197980102166718"><ele>35.0</ele><time>2026-03-31T16:10:58Z</time></trkpt><trkpt lat="47.2713425383412" lon="-1.61970362998696"><ele>35.0</ele><time>2026-03-31T16:10:59Z</time></trkpt><trkpt lat="47.271273597187616" lon="-1.619555521757919"><ele>35.0</ele><time>2026-03-31T16:11:01Z</time></trkpt><trkpt lat="47.271202770105816" lon="-1.619492741303164"><ele>35.0</ele><time>2026-03-31T16:11:02Z</time></trkpt><trkpt lat="47.27113198493353" lon="-1.6193815134480776"><ele>36.6</ele><time>2026-03-31T16:11:04Z</time></trkpt><trkpt lat="47.27109347008846" lon="-1.6192581318333923"><ele>38.2</ele><time>2026-03-31T16:11:06Z</time></trkpt><trkpt lat="47.27102658250115" lon="-1.6190883982941686"><ele>39.8</ele><time>2026-03-31T16:11:09Z</time></trkpt><trkpt lat="47.27100340653888" lon="-1.6189469117686328"><ele>41.4</ele><time>2026-03-31T16:11:11Z</time></trkpt><trkpt lat="47.270986768461086" lon="-1.6187878232464368"><ele>43.0</ele><time>2026-03-31T16:11:13Z</time></trkpt><trkpt lat="47.27098500826142" lon="-1.6186906769886786"><ele>43.16666666666667</ele><time>2026-03-31T16:11:15Z</time></trkpt><trkpt lat="47.27094091945074" lon="-1.6186017449960286"><ele>43.333333333333336</ele><time>2026-03-31T16:11:18Z</time></trkpt><trkpt lat="47.27084871851585" lon="-1.6186086181566293"><ele>43.5</ele><time>2026-03-31T16:11:20Z</time></trkpt><trkpt lat="47.27075492501936" lon="-1.6185922734454448"><ele>43.666666666666664</ele><time>2026-03-31T16:11:22Z</time></trkpt><trkpt lat="47.270665238655425" lon="-1.6185740847155625"><ele>43.83333333333333</ele><time>2026-03-31T16:11:25Z</time></trkpt><trkpt lat="47.2706035897576" lon="-1.618537958712893"><ele>44.0</ele><time>2026-03-31T16:11:27Z</time></trkpt><trkpt lat="47.27054923311553" lon="-1.6184740886107258"><ele>44.0</ele><time>2026-03-31T16:11:29Z</time></trkpt><trkpt lat="47.27049613375894" lon="-1.6183909401312642"><ele>44.0</ele><time>2026-03-31T16:11:31Z</time></trkpt><trkpt lat="47.27044512987814" lon="-1.6182967275396158"><ele>44.0</ele><time>2026-03-31T16:11:33Z</time></trkpt><trkpt lat="47.27037560199133" lon="-1.618216261269169"><ele>44.0</ele><time>2026-03-31T16:11:36Z</time></trkpt><trkpt lat="47.27029932667247" lon="-1.618126742543297"><ele>44.0</ele><time>2026-03-31T16:11:39Z</time></trkpt><trkpt lat="47.27024467666379" lon="-1.6180484555676746"><ele>44.0</ele><time>2026-03-31T16:11:41Z</time></trkpt><trkpt lat="47.270189817107536" lon="-1.6179850883796978"><ele>44.0</ele><time>2026-03-31T16:11:43Z</time></trkpt><trkpt lat="47.27012959313325" lon="-1.6179043706521559"><ele>44.0</ele><time>2026-03-31T16:11:45Z</time></trkpt><trkpt lat="47.27007536221973" lon="-1.6177995968625114"><ele>44.0</ele><time>2026-03-31T16:11:47Z</time></trkpt><trkpt lat="47.27002574135295" lon="-1.6176872793600128"><ele>44.0</ele><time>2026-03-31T16:11:49Z</time></trkpt><trkpt lat="47.26997813214294" lon="-1.6175582818702026"><ele>44.0</ele><time>2026-03-31T16:11:51Z</time></trkpt><trkpt lat="47.2699352167987" lon="-1.6174224950388236"><ele>44.800000000000004</ele><time>2026-03-31T16:11:53Z</time></trkpt><trkpt lat="47.269886392212726" lon="-1.6172511689379971"><ele>45.6</ele><time>2026-03-31T16:11:54Z</time></trkpt><trkpt lat="47.26986208469353" lon="-1.6171292960658827"><ele>46.4</ele><time>2026-03-31T16:11:56Z</time></trkpt><trkpt lat="47.26984121375463" lon="-1.6170226782575408"><ele>47.2</ele><time>2026-03-31T16:11:58Z</time></trkpt><trkpt lat="47.2698303172805" lon="-1.6168981231764115"><ele>48.0</ele><time>2026-03-31T16:12:00Z</time></trkpt><trkpt lat="47.269819253168315" lon="-1.616769293324665"><ele>48.0</ele><time>2026-03-31T16:12:02Z</time></trkpt><trkpt lat="47.2698086500608" lon="-1.6166180837914501"><ele>48.0</ele><time>2026-03-31T16:12:04Z</time></trkpt><trkpt lat="47.26979637057266" lon="-1.6164918523296867"><ele>48.0</ele><time>2026-03-31T16:12:06Z</time></trkpt><trkpt lat="47.269784761636764" lon="-1.616366542877272"><ele>48.0</ele><time>2026-03-31T16:12:08Z</time></trkpt><trkpt lat="47.26976891983977" lon="-1.6162386350348743"><ele>48.0</ele><time>2026-03-31T16:12:10Z</time></trkpt><trkpt lat="47.269748216538936" lon="-1.6161151696011573"><ele>48.333333333333336</ele><time>2026-03-31T16:12:12Z</time></trkpt><trkpt lat="47.269727387509555" lon="-1.6159933805480748"><ele>48.66666666666667</ele><time>2026-03-31T16:12:14Z</time></trkpt><trkpt lat="47.26970932450822" lon="-1.615878129379466"><ele>49.0</ele><time>2026-03-31T16:12:16Z</time></trkpt><trkpt lat="47.26968941748819" lon="-1.6157639678582696"><ele>49.333333333333336</ele><time>2026-03-31T16:12:18Z</time></trkpt><trkpt lat="47.26966603197834" lon="-1.615644525738075"><ele>49.66666666666667</ele><time>2026-03-31T16:12:20Z</time></trkpt><trkpt lat="47.269646963148624" lon="-1.615516366438582"><ele>50.0</ele><time>2026-03-31T16:12:22Z</time></trkpt><trkpt lat="47.26963179190388" lon="-1.6153935715571188"><ele>50.6</ele><time>2026-03-31T16:12:24Z</time></trkpt><trkpt lat="47.26960073695263" lon="-1.6152438707664751"><ele>51.2</ele><time>2026-03-31T16:12:26Z</time></trkpt><trkpt lat="47.26958430842242" lon="-1.6150985285654804"><ele>51.8</ele><time>2026-03-31T16:12:28Z</time></trkpt><trkpt lat="47.26957445968619" lon="-1.6149824392065544"><ele>52.4</ele><time>2026-03-31T16:12:30Z</time></trkpt><trkpt lat="47.269562557383686" lon="-1.614832319320752"><ele>53.0</ele><time>2026-03-31T16:12:33Z</time></trkpt><trkpt lat="47.26956930481574" lon="-1.6146943531945483"><ele>53.00000000000001</ele><time>2026-03-31T16:12:35Z</time></trkpt><trkpt lat="47.26959436670622" lon="-1.6145573928967254"><ele>53.0</ele><time>2026-03-31T16:12:37Z</time></trkpt><trkpt lat="47.26964264646849" lon="-1.6144356038436427"><ele>53.0</ele><time>2026-03-31T16:12:39Z</time></trkpt><trkpt lat="47.26971012078902" lon="-1.6143791098162665"><ele>53.0</ele><time>2026-03-31T16:12:41Z</time></trkpt><trkpt lat="47.269782330884844" lon="-1.6143075283631816"><ele>53.00000000000001</ele><time>2026-03-31T16:12:43Z</time></trkpt><trkpt lat="47.269832496575326" lon="-1.6142051015064252"><ele>53.0</ele><time>2026-03-31T16:12:45Z</time></trkpt><trkpt lat="47.2698284732618" lon="-1.6140657942757142"><ele>53.2</ele><time>2026-03-31T16:12:48Z</time></trkpt><trkpt lat="47.269780696413726" lon="-1.6139578353628645"><ele>53.4</ele><time>2026-03-31T16:12:50Z</time></trkpt><trkpt lat="47.26971967615864" lon="-1.6138676460847388"><ele>53.60000000000001</ele><time>2026-03-31T16:12:52Z</time></trkpt><trkpt lat="47.269623871005386" lon="-1.6138347890243063"><ele>53.800000000000004</ele><time>2026-03-31T16:12:54Z</time></trkpt><trkpt lat="47.26952328816733" lon="-1.6138339508339892"><ele>54.0</ele><time>2026-03-31T16:12:56Z</time></trkpt><trkpt lat="47.269448437772006" lon="-1.613719956950856"><ele>54.2</ele><time>2026-03-31T16:12:58Z</time></trkpt><trkpt lat="47.26940124765715" lon="-1.613542009146524"><ele>54.400000000000006</ele><time>2026-03-31T16:13:00Z</time></trkpt><trkpt lat="47.2693786584281" lon="-1.6134493891164785"><ele>54.6</ele><time>2026-03-31T16:13:01Z</time></trkpt><trkpt lat="47.26935422518036" lon="-1.6132640652373555"><ele>54.8</ele><time>2026-03-31T16:13:03.001Z</time></trkpt><trkpt lat="47.26934047885916" lon="-1.613141437993956"><ele>55.0</ele><time>2026-03-31T16:13:04.001Z</time></trkpt><trkpt lat="47.26931663234463" lon="-1.6130418609842778"><ele>54.99999999999999</ele><time>2026-03-31T16:13:05.001Z</time></trkpt><trkpt lat="47.26930552632293" lon="-1.6129342373475553"><ele>55.0</ele><time>2026-03-31T16:13:06.001Z</time></trkpt><trkpt lat="47.269282434179694" lon="-1.6128225903973101"><ele>55.0</ele><time>2026-03-31T16:13:07.001Z</time></trkpt><trkpt lat="47.26927053187719" lon="-1.6127286292627572"><ele>55.0</ele><time>2026-03-31T16:13:08.001Z</time></trkpt><trkpt lat="47.26925137922844" lon="-1.6126307286337136"><ele>55.0</ele><time>2026-03-31T16:13:09.001Z</time></trkpt><trkpt lat="47.269233651503235" lon="-1.6125303134337183"><ele>54.99999999999999</ele><time>2026-03-31T16:13:10.001Z</time></trkpt><trkpt lat="47.26921470840207" lon="-1.6124319098904845"><ele>55.0</ele><time>2026-03-31T16:13:11.001Z</time></trkpt><trkpt lat="47.26920628458938" lon="-1.6123348474517578"><ele>54.666666666666664</ele><time>2026-03-31T16:13:12.001Z</time></trkpt><trkpt lat="47.269183360084206" lon="-1.612148350106191"><ele>54.33333333333333</ele><time>2026-03-31T16:13:14.001Z</time></trkpt><trkpt lat="47.26918088742277" lon="-1.6120486054584495"><ele>54.0</ele><time>2026-03-31T16:13:15.001Z</time></trkpt><trkpt lat="47.26916927848688" lon="-1.6118839010611286"><ele>53.66666666666667</ele><time>2026-03-31T16:13:17.001Z</time></trkpt><trkpt lat="47.269148659005076" lon="-1.6117922868594636"><ele>53.333333333333336</ele><time>2026-03-31T16:13:18.001Z</time></trkpt><trkpt lat="47.26913231429389" lon="-1.6116931289449443"><ele>53.0</ele><time>2026-03-31T16:13:19.001Z</time></trkpt><trkpt lat="47.269141282930285" lon="-1.611506128685187"><ele>52.85714285714286</ele><time>2026-03-31T16:13:21.001Z</time></trkpt><trkpt lat="47.269138642630786" lon="-1.6114037018284306"><ele>52.71428571428571</ele><time>2026-03-31T16:13:22.001Z</time></trkpt><trkpt lat="47.26910130125216" lon="-1.6112964972868666"><ele>52.57142857142857</ele><time>2026-03-31T16:13:23.001Z</time></trkpt><trkpt lat="47.26908667483112" lon="-1.6111959144488082"><ele>52.42857142857143</ele><time>2026-03-31T16:13:24.001Z</time></trkpt><trkpt lat="47.26905247666618" lon="-1.6110905539259417"><ele>52.28571428571429</ele><time>2026-03-31T16:13:25.001Z</time></trkpt><trkpt lat="47.269042041196734" lon="-1.6109901387259467"><ele>52.14285714285714</ele><time>2026-03-31T16:13:26.001Z</time></trkpt><trkpt lat="47.269041328734964" lon="-1.6108972672388058"><ele>52.0</ele><time>2026-03-31T16:13:27.001Z</time></trkpt><trkpt lat="47.26902653467587" lon="-1.6107832733556728"><ele>51.99999999999999</ele><time>2026-03-31T16:13:29.001Z</time></trkpt><trkpt lat="47.2689436376535" lon="-1.6107271984234552"><ele>52.0</ele><time>2026-03-31T16:13:32.001Z</time></trkpt><trkpt lat="47.26888831709257" lon="-1.6106396075353124"><ele>52.0</ele><time>2026-03-31T16:13:34.001Z</time></trkpt><trkpt lat="47.26885935761711" lon="-1.6105291340515115"><ele>52.0</ele><time>2026-03-31T16:13:36.001Z</time></trkpt><trkpt lat="47.268806300170034" lon="-1.610381696374724"><ele>51.99999999999999</ele><time>2026-03-31T16:13:38.001Z</time></trkpt><trkpt lat="47.26878144782713" lon="-1.610284214840839"><ele>52.0</ele><time>2026-03-31T16:13:39.001Z</time></trkpt><trkpt lat="47.26877579004249" lon="-1.6100899223253224"><ele>51.8</ele><time>2026-03-31T16:13:41.001Z</time></trkpt><trkpt lat="47.268786476969034" lon="-1.6099077835694047"><ele>51.6</ele><time>2026-03-31T16:13:43.001Z</time></trkpt><trkpt lat="47.268791128925294" lon="-1.6098127327874394"><ele>51.4</ele><time>2026-03-31T16:13:44.001Z</time></trkpt><trkpt lat="47.26876833014867" lon="-1.6096726711854428"><ele>51.199999999999996</ele><time>2026-03-31T16:13:46.001Z</time></trkpt><trkpt lat="47.26875240453264" lon="-1.6094829887166706"><ele>51.0</ele><time>2026-03-31T16:13:47.705Z</time></trkpt><trkpt lat="47.26873295851728" lon="-1.6093873512014834"><ele>51.5</ele><time>2026-03-31T16:13:48.705Z</time></trkpt><trkpt lat="47.26872264877638" lon="-1.6092698369190181"><ele>52.0</ele><time>2026-03-31T16:13:49.705Z</time></trkpt><trkpt lat="47.26870538205585" lon="-1.6091586928829635"><ele>52.5</ele><time>2026-03-31T16:13:50.705Z</time></trkpt><trkpt lat="47.26869456940076" lon="-1.609065486119696"><ele>53.0</ele><time>2026-03-31T16:13:51.705Z</time></trkpt><trkpt lat="47.26867524911395" lon="-1.6089321300402366"><ele>53.5</ele><time>2026-03-31T16:13:53.705Z</time></trkpt><trkpt lat="47.26865307898006" lon="-1.6088264342412435"><ele>54.0</ele><time>2026-03-31T16:13:54.705Z</time></trkpt><trkpt lat="47.26863484834066" lon="-1.6086428705617866"><ele>54.0</ele><time>2026-03-31T16:13:56.705Z</time></trkpt><trkpt lat="47.26862713698974" lon="-1.6085409466192204"><ele>54.0</ele><time>2026-03-31T16:13:57.705Z</time></trkpt><trkpt lat="47.26858841259709" lon="-1.6083925031140525"><ele>54.0</ele><time>2026-03-31T16:13:59.705Z</time></trkpt><trkpt lat="47.26856674537739" lon="-1.608298625798531"><ele>54.0</ele><time>2026-03-31T16:14:00.705Z</time></trkpt><trkpt lat="47.26856071040711" lon="-1.608169041575499"><ele>54.0</ele><time>2026-03-31T16:14:01.705Z</time></trkpt><trkpt lat="47.26854335986754" lon="-1.6080754157170727"><ele>54.0</ele><time>2026-03-31T16:14:02.705Z</time></trkpt><trkpt lat="47.26852697324684" lon="-1.607961086557813"><ele>54.0</ele><time>2026-03-31T16:14:03.705Z</time></trkpt><trkpt lat="47.26851821415803" lon="-1.6078577376917078"><ele>54.00000000000001</ele><time>2026-03-31T16:14:04.705Z</time></trkpt><trkpt lat="47.268501366532654" lon="-1.607693284751482"><ele>54.00000000000001</ele><time>2026-03-31T16:14:06.705Z</time></trkpt><trkpt lat="47.26848493800244" lon="-1.607485581190891"><ele>54.0</ele><time>2026-03-31T16:14:08.705Z</time></trkpt><trkpt lat="47.26847462826154" lon="-1.6073891054853866"><ele>54.0</ele><time>2026-03-31T16:14:09.705Z</time></trkpt><trkpt lat="47.26845786445519" lon="-1.607261113823957"><ele>53.833333333333336</ele><time>2026-03-31T16:14:10.705Z</time></trkpt><trkpt lat="47.268436197235495" lon="-1.6071331221625276"><ele>53.66666666666667</ele><time>2026-03-31T16:14:11.705Z</time></trkpt><trkpt lat="47.268419810614795" lon="-1.6069993469879096"><ele>53.5</ele><time>2026-03-31T16:14:12.705Z</time></trkpt><trkpt lat="47.26839831103316" lon="-1.6068954952076142"><ele>53.333333333333336</ele><time>2026-03-31T16:14:13.705Z</time></trkpt><trkpt lat="47.26838322360745" lon="-1.6067827586099568"><ele>53.16666666666667</ele><time>2026-03-31T16:14:14.705Z</time></trkpt><trkpt lat="47.268374380699605" lon="-1.6066514980062905"><ele>53.0</ele><time>2026-03-31T16:14:15.705Z</time></trkpt><trkpt lat="47.26836381950161" lon="-1.6065314691528738"><ele>53.2</ele><time>2026-03-31T16:14:16.705Z</time></trkpt><trkpt lat="47.268367800905615" lon="-1.6064033936724125"><ele>53.4</ele><time>2026-03-31T16:14:17.705Z</time></trkpt><trkpt lat="47.26833963771096" lon="-1.6062909085318504"><ele>53.60000000000001</ele><time>2026-03-31T16:14:18.705Z</time></trkpt><trkpt lat="47.26833029188892" lon="-1.6061795968577324"><ele>53.800000000000004</ele><time>2026-03-31T16:14:19.705Z</time></trkpt><trkpt lat="47.26828326941213" lon="-1.6060725599542316"><ele>54.0</ele><time>2026-03-31T16:14:20.705Z</time></trkpt><trkpt lat="47.26826353003016" lon="-1.6058922652170116"><ele>54.0</ele><time>2026-03-31T16:14:21.705Z</time></trkpt><trkpt lat="47.26822417699477" lon="-1.605738708750909"><ele>54.00000000000001</ele><time>2026-03-31T16:14:23.705Z</time></trkpt><trkpt lat="47.26820841901681" lon="-1.6056030057385615"><ele>54.00000000000001</ele><time>2026-03-31T16:14:25.705Z</time></trkpt><trkpt lat="47.26818331521681" lon="-1.605499489234393"><ele>54.0</ele><time>2026-03-31T16:14:26.705Z</time></trkpt><trkpt lat="47.26816562940112" lon="-1.6053949669018437"><ele>54.0</ele><time>2026-03-31T16:14:27.705Z</time></trkpt><trkpt lat="47.26813595746389" lon="-1.605226406829064"><ele>53.0</ele><time>2026-03-31T16:14:29.705Z</time></trkpt><trkpt lat="47.26811579898676" lon="-1.605121800677483"><ele>52.00000000000001</ele><time>2026-03-31T16:14:30.705Z</time></trkpt><trkpt lat="47.26807544012299" lon="-1.6049154382213995"><ele>51.0</ele><time>2026-03-31T16:14:32.705Z</time></trkpt><trkpt lat="47.26805540737441" lon="-1.6048070602133915"><ele>50.0</ele><time>2026-03-31T16:14:33.705Z</time></trkpt><trkpt lat="47.26804015231064" lon="-1.604675799609725"><ele>49.0</ele><time>2026-03-31T16:14:34.705Z</time></trkpt><trkpt lat="47.268012575849205" lon="-1.6045854426935358"><ele>49.400000000000006</ele><time>2026-03-31T16:14:35.705Z</time></trkpt><trkpt lat="47.26801559333435" lon="-1.6044859495028894"><ele>49.8</ele><time>2026-03-31T16:14:36.705Z</time></trkpt><trkpt lat="47.267967355481595" lon="-1.6043022181853692"><ele>50.2</ele><time>2026-03-31T16:14:38.705Z</time></trkpt><trkpt lat="47.26795645900747" lon="-1.6041914094254413"><ele>50.599999999999994</ele><time>2026-03-31T16:14:39.705Z</time></trkpt><trkpt lat="47.26793806073001" lon="-1.6040987893953957"><ele>51.0</ele><time>2026-03-31T16:14:40.705Z</time></trkpt><trkpt lat="47.267886512025505" lon="-1.6039078496411479"><ele>51.0</ele><time>2026-03-31T16:14:42.705Z</time></trkpt><trkpt lat="47.26786660500547" lon="-1.6037886589780486"><ele>51.0</ele><time>2026-03-31T16:14:43.705Z</time></trkpt><trkpt lat="47.26785185285589" lon="-1.6036847233787213"><ele>51.0</ele><time>2026-03-31T16:14:44.705Z</time></trkpt><trkpt lat="47.26784426723352" lon="-1.6035249643042715"><ele>51.0</ele><time>2026-03-31T16:14:46.705Z</time></trkpt><trkpt lat="47.26783718452534" lon="-1.603427315132323"><ele>51.0</ele><time>2026-03-31T16:14:47.705Z</time></trkpt><trkpt lat="47.26781798996708" lon="-1.6033355332925947"><ele>51.0</ele><time>2026-03-31T16:14:48.705Z</time></trkpt><trkpt lat="47.267792634709984" lon="-1.6032311785981088"><ele>51.0</ele><time>2026-03-31T16:14:49.705Z</time></trkpt><trkpt lat="47.26778035522184" lon="-1.603135708720985"><ele>51.0</ele><time>2026-03-31T16:14:50.705Z</time></trkpt><trkpt lat="47.26774875544688" lon="-1.6030310187503722"><ele>51.0</ele><time>2026-03-31T16:14:51.705Z</time></trkpt><trkpt lat="47.26773459003052" lon="-1.6029342915877727"><ele>51.0</ele><time>2026-03-31T16:14:52.705Z</time></trkpt><trkpt lat="47.26770630110732" lon="-1.602848209442201"><ele>51.0</ele><time>2026-03-31T16:14:53.705Z</time></trkpt><trkpt lat="47.267680233388454" lon="-1.602759193630519"><ele>51.0</ele><time>2026-03-31T16:14:54.705Z</time></trkpt><trkpt lat="47.267640251710326" lon="-1.6025289427503966"><ele>50.5</ele><time>2026-03-31T16:14:56.705Z</time></trkpt><trkpt lat="47.26761196278712" lon="-1.6024365741774462"><ele>50.0</ele><time>2026-03-31T16:14:57.705Z</time></trkpt><trkpt lat="47.267576716884285" lon="-1.6023477260038277"><ele>49.5</ele><time>2026-03-31T16:14:58.705Z</time></trkpt><trkpt lat="47.26753841158679" lon="-1.6022084187731167"><ele>49.0</ele><time>2026-03-31T16:14:59.705Z</time></trkpt><trkpt lat="47.26751079321584" lon="-1.6021206602469107"><ele>48.5</ele><time>2026-03-31T16:15:00.705Z</time></trkpt><trkpt lat="47.267477265603155" lon="-1.6020196583136934"><ele>48.0</ele><time>2026-03-31T16:15:01.705Z</time></trkpt><trkpt lat="47.26744482763788" lon="-1.6019282955691236"><ele>47.42857142857142</ele><time>2026-03-31T16:15:02.705Z</time></trkpt><trkpt lat="47.267406941435546" lon="-1.6018228512272255"><ele>46.857142857142854</ele><time>2026-03-31T16:15:03.705Z</time></trkpt><trkpt lat="47.2673642775484" lon="-1.6017231065794841"><ele>46.285714285714285</ele><time>2026-03-31T16:15:04.705Z</time></trkpt><trkpt lat="47.26731717125258" lon="-1.6016554646208898"><ele>45.71428571428571</ele><time>2026-03-31T16:15:05.705Z</time></trkpt><trkpt lat="47.26727090314707" lon="-1.6015885770335807"><ele>45.14285714285714</ele><time>2026-03-31T16:15:06.705Z</time></trkpt><trkpt lat="47.267222707203835" lon="-1.6015280596926822"><ele>44.57142857142857</ele><time>2026-03-31T16:15:07.705Z</time></trkpt><trkpt lat="47.267155316702336" lon="-1.6014381218716516"><ele>44.0</ele><time>2026-03-31T16:15:09.705Z</time></trkpt><trkpt lat="47.26718855094841" lon="-1.6013308335110557"><ele>43.33333333333333</ele><time>2026-03-31T16:15:12.705Z</time></trkpt><trkpt lat="47.26726285652003" lon="-1.6012496128693234"><ele>42.666666666666664</ele><time>2026-03-31T16:15:15.705Z</time></trkpt><trkpt lat="47.267267843752414" lon="-1.6011303383871922"><ele>42.0</ele><time>2026-03-31T16:15:17.705Z</time></trkpt><trkpt lat="47.267250535122365" lon="-1.6009891871377835"><ele>41.333333333333336</ele><time>2026-03-31T16:15:19.705Z</time></trkpt><trkpt lat="47.26723783653906" lon="-1.6008409950897105"><ele>40.66666666666667</ele><time>2026-03-31T16:15:21.705Z</time></trkpt><trkpt lat="47.26719420873305" lon="-1.6007662285134203"><ele>40.0</ele><time>2026-03-31T16:15:23.705Z</time></trkpt><trkpt lat="47.26713654123923" lon="-1.600694479422272"><ele>40.0</ele><time>2026-03-31T16:15:25.705Z</time></trkpt><trkpt lat="47.26705444049767" lon="-1.6006359737381344"><ele>40.0</ele><time>2026-03-31T16:15:27.705Z</time></trkpt><trkpt lat="47.26696953181854" lon="-1.6005311999484901"><ele>40.0</ele><time>2026-03-31T16:15:29.705Z</time></trkpt><trkpt lat="47.26689019710502" lon="-1.600434556604922"><ele>40.0</ele><time>2026-03-31T16:15:31.705Z</time></trkpt><trkpt lat="47.26678609386763" lon="-1.6002880409374836"><ele>40.0</ele><time>2026-03-31T16:15:33.705Z</time></trkpt><trkpt lat="47.26672955793074" lon="-1.6002063173815608"><ele>40.0</ele><time>2026-03-31T16:15:34.705Z</time></trkpt><trkpt lat="47.266611917919725" lon="-1.6000860370710492"><ele>40.0</ele><time>2026-03-31T16:15:36.705Z</time></trkpt><trkpt lat="47.2665460361608" lon="-1.6000150423511863"><ele>40.0</ele><time>2026-03-31T16:15:37.705Z</time></trkpt><trkpt lat="47.26649017077616" lon="-1.5999271161869166"><ele>40.0</ele><time>2026-03-31T16:15:38.705Z</time></trkpt><trkpt lat="47.26642386992207" lon="-1.599830389024317"><ele>40.0</ele><time>2026-03-31T16:15:39.705Z</time></trkpt><trkpt lat="47.26635145027867" lon="-1.5997277107104655"><ele>39.833333333333336</ele><time>2026-03-31T16:15:40.705Z</time></trkpt><trkpt lat="47.26629164539954" lon="-1.5996329113855954"><ele>39.66666666666667</ele><time>2026-03-31T16:15:41.705Z</time></trkpt><trkpt lat="47.26622538645497" lon="-1.5995344240233298"><ele>39.5</ele><time>2026-03-31T16:15:42.705Z</time></trkpt><trkpt lat="47.26617668759754" lon="-1.5994422230884426"><ele>39.333333333333336</ele><time>2026-03-31T16:15:43.705Z</time></trkpt><trkpt lat="47.266124468340784" lon="-1.599366450683772"><ele>39.166666666666664</ele><time>2026-03-31T16:15:44.705Z</time></trkpt><trkpt lat="47.26606621411374" lon="-1.5992738306537264"><ele>39.0</ele><time>2026-03-31T16:15:45.705Z</time></trkpt><trkpt lat="47.26599622522226" lon="-1.5991962980493895"><ele>39.0</ele><time>2026-03-31T16:15:46.705Z</time></trkpt><trkpt lat="47.265913202471346" lon="-1.5990948770210138"><ele>39.0</ele><time>2026-03-31T16:15:47.705Z</time></trkpt><trkpt lat="47.26585021246901" lon="-1.5990185178831209"><ele>39.0</ele><time>2026-03-31T16:15:48.705Z</time></trkpt><trkpt lat="47.265770961574525" lon="-1.598979290576278"><ele>39.0</ele><time>2026-03-31T16:15:49.705Z</time></trkpt><trkpt lat="47.26568852555683" lon="-1.5988708287492384"><ele>39.0</ele><time>2026-03-31T16:15:50.705Z</time></trkpt><trkpt lat="47.26560713727704" lon="-1.598781393842398"><ele>38.166666666666664</ele><time>2026-03-31T16:15:51.705Z</time></trkpt><trkpt lat="47.265538363761515" lon="-1.5986867621555911"><ele>37.333333333333336</ele><time>2026-03-31T16:15:52.705Z</time></trkpt><trkpt lat="47.26548233073881" lon="-1.5986404940500842"><ele>36.5</ele><time>2026-03-31T16:15:53.705Z</time></trkpt><trkpt lat="47.2654016968303" lon="-1.598572265358268"><ele>35.66666666666667</ele><time>2026-03-31T16:15:54.705Z</time></trkpt><trkpt lat="47.265331875576884" lon="-1.5984923020020112"><ele>34.833333333333336</ele><time>2026-03-31T16:15:55.705Z</time></trkpt><trkpt lat="47.26524826609275" lon="-1.5984154399499282"><ele>34.0</ele><time>2026-03-31T16:15:56.705Z</time></trkpt><trkpt lat="47.26516893137923" lon="-1.5983229037389144"><ele>33.6</ele><time>2026-03-31T16:15:57.705Z</time></trkpt><trkpt lat="47.26510313343933" lon="-1.5982597880080325"><ele>33.2</ele><time>2026-03-31T16:15:58.705Z</time></trkpt><trkpt lat="47.26504043680361" lon="-1.5981766395285708"><ele>32.800000000000004</ele><time>2026-03-31T16:15:59.705Z</time></trkpt><trkpt lat="47.264971076554865" lon="-1.5980512462571244"><ele>32.4</ele><time>2026-03-31T16:16:00.705Z</time></trkpt><trkpt lat="47.26490397941998" lon="-1.5979334805175642"><ele>32.0</ele><time>2026-03-31T16:16:01.705Z</time></trkpt><trkpt lat="47.264835499271065" lon="-1.5978324785843472"><ele>31.166666666666664</ele><time>2026-03-31T16:16:02.705Z</time></trkpt><trkpt lat="47.26477255117825" lon="-1.5977337397649862"><ele>30.333333333333332</ele><time>2026-03-31T16:16:03.705Z</time></trkpt><trkpt lat="47.2647127043896" lon="-1.5976279601469614"><ele>29.5</ele><time>2026-03-31T16:16:04.705Z</time></trkpt><trkpt lat="47.26466186814687" lon="-1.597524611280856"><ele>28.666666666666664</ele><time>2026-03-31T16:16:05.705Z</time></trkpt><trkpt lat="47.2646178212457" lon="-1.5974319074317789"><ele>27.833333333333332</ele><time>2026-03-31T16:16:06.705Z</time></trkpt><trkpt lat="47.26459179543635" lon="-1.5973255410805318"><ele>27.0</ele><time>2026-03-31T16:16:07.705Z</time></trkpt><trkpt lat="47.26456145294687" lon="-1.5972349327072475"><ele>27.0</ele><time>2026-03-31T16:16:08.705Z</time></trkpt><trkpt lat="47.26451267027041" lon="-1.5971495211139295"><ele>27.0</ele><time>2026-03-31T16:16:09.705Z</time></trkpt><trkpt lat="47.264458942271084" lon="-1.5970672108247848"><ele>27.0</ele><time>2026-03-31T16:16:10.705Z</time></trkpt><trkpt lat="47.26440144241533" lon="-1.5969795361176105"><ele>27.0</ele><time>2026-03-31T16:16:11.705Z</time></trkpt><trkpt lat="47.2643363569372" lon="-1.5969530493035884"><ele>27.0</ele><time>2026-03-31T16:16:13.705Z</time></trkpt><trkpt lat="47.264277935072094" lon="-1.596764875577387"><ele>27.0</ele><time>2026-03-31T16:16:15.705Z</time></trkpt><trkpt lat="47.26417123344472" lon="-1.5966534800842374"><ele>27.0</ele><time>2026-03-31T16:16:17.705Z</time></trkpt><trkpt lat="47.264100867367596" lon="-1.5965664759293166"><ele>27.0</ele><time>2026-03-31T16:16:18.705Z</time></trkpt><trkpt lat="47.264051204591304" lon="-1.5965082217022744"><ele>27.0</ele><time>2026-03-31T16:16:19.705Z</time></trkpt><trkpt lat="47.263971073596984" lon="-1.5963768772795761"><ele>27.0</ele><time>2026-03-31T16:16:21.705Z</time></trkpt><trkpt lat="47.26391768087378" lon="-1.596307726578411"><ele>27.0</ele><time>2026-03-31T16:16:22.705Z</time></trkpt><trkpt lat="47.263856744437724" lon="-1.5962150227293337"><ele>27.0</ele><time>2026-03-31T16:16:24.705Z</time></trkpt><trkpt lat="47.26379455071619" lon="-1.5960985980942808"><ele>27.0</ele><time>2026-03-31T16:16:26.705Z</time></trkpt><trkpt lat="47.263697991191655" lon="-1.5958224143847783"><ele>27.0</ele><time>2026-03-31T16:16:28.705Z</time></trkpt><trkpt lat="47.26363898259333" lon="-1.5957240108415445"><ele>27.0</ele><time>2026-03-31T16:16:29.705Z</time></trkpt><trkpt lat="47.26358018354258" lon="-1.5956194885089952"><ele>27.0</ele><time>2026-03-31T16:16:31.705Z</time></trkpt><trkpt lat="47.26350600369951" lon="-1.5954870544388848"><ele>27.0</ele><time>2026-03-31T16:16:33.705Z</time></trkpt><trkpt lat="47.263429476923555" lon="-1.595361493529375"><ele>27.000000000000004</ele><time>2026-03-31T16:16:35.705Z</time></trkpt><trkpt lat="47.26338853132656" lon="-1.595286056400831"><ele>27.000000000000004</ele><time>2026-03-31T16:16:36.705Z</time></trkpt><trkpt lat="47.263331743932575" lon="-1.5951924305424048"><ele>27.0</ele><time>2026-03-31T16:16:38.705Z</time></trkpt><trkpt lat="47.263259491927236" lon="-1.5950829628869845"><ele>27.0</ele><time>2026-03-31T16:16:40.705Z</time></trkpt><trkpt lat="47.26318732374093" lon="-1.5949713997557713"><ele>27.0</ele><time>2026-03-31T16:16:42.705Z</time></trkpt><trkpt lat="47.263126052028746" lon="-1.5948648657664608"><ele>27.000000000000004</ele><time>2026-03-31T16:16:44.705Z</time></trkpt><trkpt lat="47.26306549277833" lon="-1.59475732594877"><ele>27.000000000000004</ele><time>2026-03-31T16:16:46.705Z</time></trkpt><trkpt lat="47.262998563281506" lon="-1.5945829823628017"><ele>27.0</ele><time>2026-03-31T16:16:48.705Z</time></trkpt><trkpt lat="47.26294311699203" lon="-1.5944545716062135"><ele>27.0</ele><time>2026-03-31T16:16:50.705Z</time></trkpt><trkpt lat="47.26286231544545" lon="-1.5943181142225809"><ele>27.333333333333332</ele><time>2026-03-31T16:16:52.705Z</time></trkpt><trkpt lat="47.26281952582976" lon="-1.5941819921150748"><ele>27.666666666666664</ele><time>2026-03-31T16:16:54.705Z</time></trkpt><trkpt lat="47.262775981842786" lon="-1.5940680820509736"><ele>28.0</ele><time>2026-03-31T16:16:55.705Z</time></trkpt><trkpt lat="47.26275955331257" lon="-1.593923913316423"><ele>28.333333333333332</ele><time>2026-03-31T16:16:57.705Z</time></trkpt><trkpt lat="47.26274547171524" lon="-1.5938291978105845"><ele>28.666666666666664</ele><time>2026-03-31T16:16:59.705Z</time></trkpt><trkpt lat="47.26269652140072" lon="-1.593722077088052"><ele>29.0</ele><time>2026-03-31T16:17:02.705Z</time></trkpt><trkpt lat="47.26262791552326" lon="-1.59365845844298"><ele>28.833333333333332</ele><time>2026-03-31T16:17:04.705Z</time></trkpt><trkpt lat="47.262556334070176" lon="-1.5936615597471535"><ele>28.666666666666664</ele><time>2026-03-31T16:17:06.705Z</time></trkpt><trkpt lat="47.26248408206484" lon="-1.5936513338252842"><ele>28.5</ele><time>2026-03-31T16:17:08.705Z</time></trkpt><trkpt lat="47.262427043213755" lon="-1.5935884695514977"><ele>28.333333333333336</ele><time>2026-03-31T16:17:10.705Z</time></trkpt><trkpt lat="47.26238098465583" lon="-1.5934984479114351"><ele>28.166666666666668</ele><time>2026-03-31T16:17:12.705Z</time></trkpt><trkpt lat="47.26233765021643" lon="-1.5934240166112719"><ele>28.0</ele><time>2026-03-31T16:17:14.705Z</time></trkpt><trkpt lat="47.26226715841076" lon="-1.593304993586236"><ele>28.0</ele><time>2026-03-31T16:17:17.705Z</time></trkpt><trkpt lat="47.26221795663914" lon="-1.5931101143374975"><ele>27.999999999999996</ele><time>2026-03-31T16:17:18.705Z</time></trkpt><trkpt lat="47.26217298772862" lon="-1.5929875709131294"><ele>27.999999999999996</ele><time>2026-03-31T16:17:20.705Z</time></trkpt><trkpt lat="47.262130533389055" lon="-1.592894615606957"><ele>28.0</ele><time>2026-03-31T16:17:22.705Z</time></trkpt><trkpt lat="47.26207869131794" lon="-1.592735191808634"><ele>28.0</ele><time>2026-03-31T16:17:24.705Z</time></trkpt><trkpt lat="47.2620529588752" lon="-1.592638297007971"><ele>28.166666666666668</ele><time>2026-03-31T16:17:25.705Z</time></trkpt><trkpt lat="47.26203212984582" lon="-1.5925403963789273"><ele>28.333333333333336</ele><time>2026-03-31T16:17:26.705Z</time></trkpt><trkpt lat="47.262003463736974" lon="-1.5923560783281852"><ele>28.5</ele><time>2026-03-31T16:17:28.705Z</time></trkpt><trkpt lat="47.261983724355005" lon="-1.5922088921084927"><ele>28.666666666666664</ele><time>2026-03-31T16:17:29.705Z</time></trkpt><trkpt lat="47.26196482316335" lon="-1.5921091474607514"><ele>28.833333333333332</ele><time>2026-03-31T16:17:32.705Z</time></trkpt><trkpt lat="47.26192831997504" lon="-1.592008480803661"><ele>29.0</ele><time>2026-03-31T16:17:34.705Z</time></trkpt><trkpt lat="47.26187170021912" lon="-1.5919233206674381"><ele>29.5</ele><time>2026-03-31T16:17:36.706Z</time></trkpt><trkpt lat="47.26178423505952" lon="-1.59177781082838"><ele>30.0</ele><time>2026-03-31T16:17:38.706Z</time></trkpt><trkpt lat="47.26170037411829" lon="-1.5916628949358982"><ele>30.5</ele><time>2026-03-31T16:17:40.706Z</time></trkpt><trkpt lat="47.26166751705786" lon="-1.591551247985653"><ele>31.0</ele><time>2026-03-31T16:17:41.706Z</time></trkpt><trkpt lat="47.2616100172021" lon="-1.5913908183589498"><ele>31.0</ele><time>2026-03-31T16:17:43.706Z</time></trkpt><trkpt lat="47.26156743713399" lon="-1.5912442188724794"><ele>31.0</ele><time>2026-03-31T16:17:45.706Z</time></trkpt><trkpt lat="47.26153923202982" lon="-1.59103366546481"><ele>31.0</ele><time>2026-03-31T16:17:47.706Z</time></trkpt><trkpt lat="47.26146111269226" lon="-1.590917073191694"><ele>31.0</ele><time>2026-03-31T16:17:49.706Z</time></trkpt><trkpt lat="47.26144543853333" lon="-1.5907879080638203"><ele>31.000000000000004</ele><time>2026-03-31T16:17:50.706Z</time></trkpt><trkpt lat="47.261443049690925" lon="-1.590693192557982"><ele>31.0</ele><time>2026-03-31T16:17:52.706Z</time></trkpt><trkpt lat="47.2614149703153" lon="-1.5905145742013962"><ele>31.0</ele><time>2026-03-31T16:17:54.706Z</time></trkpt><trkpt lat="47.261395691938006" lon="-1.590405860917261"><ele>31.0</ele><time>2026-03-31T16:17:55.706Z</time></trkpt><trkpt lat="47.261390830434166" lon="-1.590266302229455"><ele>31.000000000000004</ele><time>2026-03-31T16:17:56.706Z</time></trkpt><trkpt lat="47.26135793146422" lon="-1.590159935878208"><ele>31.0</ele><time>2026-03-31T16:17:57.706Z</time></trkpt><trkpt lat="47.26133643188258" lon="-1.590051222594073"><ele>31.200000000000003</ele><time>2026-03-31T16:17:58.706Z</time></trkpt><trkpt lat="47.26129238498142" lon="-1.589879477398088"><ele>31.400000000000002</ele><time>2026-03-31T16:18:00.706Z</time></trkpt><trkpt lat="47.261278429112636" lon="-1.5897364821299815"><ele>31.6</ele><time>2026-03-31T16:18:01.706Z</time></trkpt><trkpt lat="47.261263760782086" lon="-1.5896303672358296"><ele>31.8</ele><time>2026-03-31T16:18:02.706Z</time></trkpt><trkpt lat="47.261265185705625" lon="-1.5894648246481915"><ele>32.0</ele><time>2026-03-31T16:18:04.706Z</time></trkpt><trkpt lat="47.261240794367396" lon="-1.5893512498602171"><ele>32.6</ele><time>2026-03-31T16:18:05.706Z</time></trkpt><trkpt lat="47.26122964643618" lon="-1.5892532654121418"><ele>33.2</ele><time>2026-03-31T16:18:06.706Z</time></trkpt><trkpt lat="47.26119896867057" lon="-1.5890750661507147"><ele>33.8</ele><time>2026-03-31T16:18:08.706Z</time></trkpt><trkpt lat="47.261184845163726" lon="-1.5889392793193355"><ele>34.4</ele><time>2026-03-31T16:18:10.706Z</time></trkpt><trkpt lat="47.26116506387224" lon="-1.5888174064472214"><ele>35.0</ele><time>2026-03-31T16:18:12.706Z</time></trkpt><trkpt lat="47.26114679132333" lon="-1.5886699687704338"><ele>35.666666666666664</ele><time>2026-03-31T16:18:14.706Z</time></trkpt><trkpt lat="47.261122525713645" lon="-1.5885443240418924"><ele>36.33333333333333</ele><time>2026-03-31T16:18:16.706Z</time></trkpt><trkpt lat="47.26110488180747" lon="-1.5884308330729495"><ele>37.0</ele><time>2026-03-31T16:18:18.706Z</time></trkpt><trkpt lat="47.26109012965789" lon="-1.5883071161821376"><ele>37.666666666666664</ele><time>2026-03-31T16:18:20.706Z</time></trkpt><trkpt lat="47.26104151461949" lon="-1.588209467010189"><ele>38.333333333333336</ele><time>2026-03-31T16:18:22.706Z</time></trkpt><trkpt lat="47.26102634337475" lon="-1.5880986582502612"><ele>39.0</ele><time>2026-03-31T16:18:24.706Z</time></trkpt><trkpt lat="47.260996168523334" lon="-1.587954070420552"><ele>38.833333333333336</ele><time>2026-03-31T16:18:26.706Z</time></trkpt><trkpt lat="47.260967837690615" lon="-1.5878252405688054"><ele>38.666666666666664</ele><time>2026-03-31T16:18:28.706Z</time></trkpt><trkpt lat="47.260947385846876" lon="-1.5877070557340864"><ele>38.5</ele><time>2026-03-31T16:18:30.706Z</time></trkpt><trkpt lat="47.26092944857409" lon="-1.5875877812519554"><ele>38.33333333333333</ele><time>2026-03-31T16:18:32.706Z</time></trkpt><trkpt lat="47.26090711080214" lon="-1.5874690096840145"><ele>38.166666666666664</ele><time>2026-03-31T16:18:34.706Z</time></trkpt><trkpt lat="47.26090128537943" lon="-1.5873587876573088"><ele>38.0</ele><time>2026-03-31T16:18:36.706Z</time></trkpt><trkpt lat="47.26089939945122" lon="-1.5872478112593174"><ele>38.0</ele><time>2026-03-31T16:18:38.706Z</time></trkpt><trkpt lat="47.26088858679613" lon="-1.5871361643090725"><ele>38.0</ele><time>2026-03-31T16:18:40.706Z</time></trkpt><trkpt lat="47.26086046551099" lon="-1.5870126150563237"><ele>38.0</ele><time>2026-03-31T16:18:42.706Z</time></trkpt><trkpt lat="47.2608633991771" lon="-1.5868556220099206"><ele>38.0</ele><time>2026-03-31T16:18:44.706Z</time></trkpt><trkpt lat="47.26085526873102" lon="-1.586706172676372"><ele>38.0</ele><time>2026-03-31T16:18:46.706Z</time></trkpt><trkpt lat="47.26085120350798" lon="-1.5865739900633566"><ele>38.199999999999996</ele><time>2026-03-31T16:18:48.706Z</time></trkpt><trkpt lat="47.26085824430665" lon="-1.586444573478388"><ele>38.4</ele><time>2026-03-31T16:18:50.706Z</time></trkpt><trkpt lat="47.26085568782618" lon="-1.5863451641067734"><ele>38.599999999999994</ele><time>2026-03-31T16:18:52.706Z</time></trkpt><trkpt lat="47.26088879634371" lon="-1.5862035099431744"><ele>38.8</ele><time>2026-03-31T16:18:54.706Z</time></trkpt><trkpt lat="47.260934561535024" lon="-1.5860756859198082"><ele>39.0</ele><time>2026-03-31T16:18:56.706Z</time></trkpt><trkpt lat="47.26099478550931" lon="-1.5859426651164759"><ele>39.0</ele><time>2026-03-31T16:18:58.706Z</time></trkpt><trkpt lat="47.2610740364038" lon="-1.5858179423972831"><ele>39.0</ele><time>2026-03-31T16:19:00.706Z</time></trkpt><trkpt lat="47.26114809051832" lon="-1.585694560782598"><ele>39.0</ele><time>2026-03-31T16:19:02.706Z</time></trkpt><trkpt lat="47.26122185126623" lon="-1.5855974145248397"><ele>39.0</ele><time>2026-03-31T16:19:04.706Z</time></trkpt><trkpt lat="47.261316273405455" lon="-1.5856078080847724"><ele>39.0</ele><time>2026-03-31T16:19:06.706Z</time></trkpt><trkpt lat="47.26139141716739" lon="-1.5856297686710819"><ele>39.0</ele><time>2026-03-31T16:19:08.706Z</time></trkpt><trkpt lat="47.26142733362248" lon="-1.5855419263258441"><ele>39.0</ele><time>2026-03-31T16:19:10.706Z</time></trkpt><trkpt lat="47.261412204287254" lon="-1.58544301986842"><ele>39.0</ele><time>2026-03-31T16:19:12.706Z</time></trkpt><trkpt lat="47.261344813785755" lon="-1.5853188000634175"><ele>39.0</ele><time>2026-03-31T16:19:14.706Z</time></trkpt><trkpt lat="47.26129829422315" lon="-1.585220312701152"><ele>39.0</ele><time>2026-03-31T16:19:16.706Z</time></trkpt><trkpt lat="47.261234717487596" lon="-1.5851337276413897"><ele>39.0</ele><time>2026-03-31T16:19:18.706Z</time></trkpt><trkpt lat="47.261139540977084" lon="-1.5851213224246958"><ele>39.4</ele><time>2026-03-31T16:19:20.706Z</time></trkpt><trkpt lat="47.26108422041615" lon="-1.5850705280914763"><ele>39.8</ele><time>2026-03-31T16:19:21.706Z</time></trkpt><trkpt lat="47.260990887924336" lon="-1.585028534756587"><ele>40.199999999999996</ele><time>2026-03-31T16:19:23.706Z</time></trkpt><trkpt lat="47.26086461455306" lon="-1.5849258564427353"><ele>40.599999999999994</ele><time>2026-03-31T16:19:25.706Z</time></trkpt><trkpt lat="47.260802630379104" lon="-1.5848546102657772"><ele>41.0</ele><time>2026-03-31T16:19:26.706Z</time></trkpt><trkpt lat="47.26073905364355" lon="-1.5848263632520891"><ele>41.0</ele><time>2026-03-31T16:19:27.706Z</time></trkpt><trkpt lat="47.26063038226893" lon="-1.58485377207546"><ele>41.0</ele><time>2026-03-31T16:19:29.706Z</time></trkpt><trkpt lat="47.260565254881286" lon="-1.5848275367185332"><ele>41.0</ele><time>2026-03-31T16:19:30.706Z</time></trkpt><trkpt lat="47.2604593076252" lon="-1.5847847051933266"><ele>41.0</ele><time>2026-03-31T16:19:32.706Z</time></trkpt><trkpt lat="47.26041873921385" lon="-1.584641123191998"><ele>41.0</ele><time>2026-03-31T16:19:34.706Z</time></trkpt><trkpt lat="47.26039242003789" lon="-1.5844822861268972"><ele>41.199999999999996</ele><time>2026-03-31T16:19:36.706Z</time></trkpt><trkpt lat="47.26036429875275" lon="-1.5843418892487737"><ele>41.4</ele><time>2026-03-31T16:19:38.706Z</time></trkpt><trkpt lat="47.26035243835976" lon="-1.5841569006457776"><ele>41.6</ele><time>2026-03-31T16:19:40.706Z</time></trkpt><trkpt lat="47.26033462681552" lon="-1.5840677171960325"><ele>41.8</ele><time>2026-03-31T16:19:41.706Z</time></trkpt><trkpt lat="47.260316982909345" lon="-1.5839718282237498"><ele>42.0</ele><time>2026-03-31T16:19:42.706Z</time></trkpt><trkpt lat="47.260291795290314" lon="-1.583801843227431"><ele>42.0</ele><time>2026-03-31T16:19:44.706Z</time></trkpt><trkpt lat="47.26026455410501" lon="-1.583710480482861"><ele>42.0</ele><time>2026-03-31T16:19:45.706Z</time></trkpt><trkpt lat="47.26025093351235" lon="-1.583616854624435"><ele>42.0</ele><time>2026-03-31T16:19:46.706Z</time></trkpt><trkpt lat="47.26024410226127" lon="-1.5835158526912176"><ele>42.0</ele><time>2026-03-31T16:19:47.706Z</time></trkpt><trkpt lat="47.26022960156878" lon="-1.583414431662842"><ele>42.0</ele><time>2026-03-31T16:19:48.706Z</time></trkpt><trkpt lat="47.2602277994596" lon="-1.5832319576307974"><ele>42.0</ele><time>2026-03-31T16:19:50.706Z</time></trkpt><trkpt lat="47.26020889826795" lon="-1.583044119180723"><ele>41.8</ele><time>2026-03-31T16:19:52.706Z</time></trkpt><trkpt lat="47.26018995516678" lon="-1.5828646626338203"><ele>41.6</ele><time>2026-03-31T16:19:54.706Z</time></trkpt><trkpt lat="47.260148129469954" lon="-1.5826895646765666"><ele>41.4</ele><time>2026-03-31T16:19:56.706Z</time></trkpt><trkpt lat="47.260139202743076" lon="-1.5825865510865884"><ele>41.199999999999996</ele><time>2026-03-31T16:19:57.706Z</time></trkpt><trkpt lat="47.26012700707396" lon="-1.5824863873436883"><ele>41.0</ele><time>2026-03-31T16:19:58.706Z</time></trkpt><trkpt lat="47.26013237149199" lon="-1.5823856368675664"><ele>40.83333333333333</ele><time>2026-03-31T16:19:59.706Z</time></trkpt><trkpt lat="47.260130904658936" lon="-1.582279689611478"><ele>40.666666666666664</ele><time>2026-03-31T16:20:00.706Z</time></trkpt><trkpt lat="47.260133544958435" lon="-1.5821825433537198"><ele>40.5</ele><time>2026-03-31T16:20:01.706Z</time></trkpt><trkpt lat="47.26011879280885" lon="-1.5820838045343588"><ele>40.333333333333336</ele><time>2026-03-31T16:20:02.706Z</time></trkpt><trkpt lat="47.26010240618815" lon="-1.5819905977710913"><ele>40.16666666666667</ele><time>2026-03-31T16:20:03.706Z</time></trkpt><trkpt lat="47.26006204732438" lon="-1.5818161703660913"><ele>40.0</ele><time>2026-03-31T16:20:05.706Z</time></trkpt><trkpt lat="47.26003627297213" lon="-1.5817305073156782"><ele>39.8</ele><time>2026-03-31T16:20:06.706Z</time></trkpt><trkpt lat="47.25996532016178" lon="-1.581614501775784"><ele>39.6</ele><time>2026-03-31T16:20:08.706Z</time></trkpt><trkpt lat="47.25985949863424" lon="-1.581505201758427"><ele>39.4</ele><time>2026-03-31T16:20:10.706Z</time></trkpt><trkpt lat="47.25979416169902" lon="-1.5814492944642728"><ele>39.2</ele><time>2026-03-31T16:20:11.706Z</time></trkpt><trkpt lat="47.25968825635245" lon="-1.5813384018853132"><ele>39.0</ele><time>2026-03-31T16:20:13.706Z</time></trkpt><trkpt lat="47.2596405633234" lon="-1.5812525711968366"><ele>39.0</ele><time>2026-03-31T16:20:14.706Z</time></trkpt><trkpt lat="47.25958520085295" lon="-1.5811887010946695"><ele>39.0</ele><time>2026-03-31T16:20:15.706Z</time></trkpt><trkpt lat="47.259522965221905" lon="-1.5812564268722955"><ele>39.0</ele><time>2026-03-31T16:20:16.706Z</time></trkpt><trkpt lat="47.2594608553194" lon="-1.5811643097564403"><ele>39.0</ele><time>2026-03-31T16:20:17.706Z</time></trkpt><trkpt lat="47.25935603962024" lon="-1.581109827385825"><ele>39.0</ele><time>2026-03-31T16:20:19.706Z</time></trkpt><trkpt lat="47.259303317449294" lon="-1.5810505673304023"><ele>39.0</ele><time>2026-03-31T16:20:20.706Z</time></trkpt><trkpt lat="47.25921157751908" lon="-1.581016201527399"><ele>39.0</ele><time>2026-03-31T16:20:22.706Z</time></trkpt><trkpt lat="47.259102067954146" lon="-1.58096934668867"><ele>39.0</ele><time>2026-03-31T16:20:24.706Z</time></trkpt><trkpt lat="47.25904494528403" lon="-1.580914026127738"><ele>39.0</ele><time>2026-03-31T16:20:25.706Z</time></trkpt><trkpt lat="47.25894591309806" lon="-1.5808602981284081"><ele>39.0</ele><time>2026-03-31T16:20:27.706Z</time></trkpt><trkpt lat="47.25888661113312" lon="-1.580786705018562"><ele>39.0</ele><time>2026-03-31T16:20:28.706Z</time></trkpt><trkpt lat="47.25882781208237" lon="-1.5807336475714862"><ele>39.0</ele><time>2026-03-31T16:20:29.706Z</time></trkpt><trkpt lat="47.25877584428271" lon="-1.580661814661306"><ele>39.0</ele><time>2026-03-31T16:20:30.706Z</time></trkpt><trkpt lat="47.25871712905099" lon="-1.580543378369492"><ele>39.0</ele><time>2026-03-31T16:20:31.706Z</time></trkpt><trkpt lat="47.25866423924198" lon="-1.580463247375172"><ele>39.0</ele><time>2026-03-31T16:20:32.706Z</time></trkpt><trkpt lat="47.258596723011934" lon="-1.5803635027274305"><ele>39.0</ele><time>2026-03-31T16:20:33.706Z</time></trkpt><trkpt lat="47.25854152817955" lon="-1.5803111158326084"><ele>39.0</ele><time>2026-03-31T16:20:34.706Z</time></trkpt><trkpt lat="47.25848645907571" lon="-1.5802557952716763"><ele>39.0</ele><time>2026-03-31T16:20:35.706Z</time></trkpt><trkpt lat="47.258389187089406" lon="-1.580172730611246"><ele>38.833333333333336</ele><time>2026-03-31T16:20:37.706Z</time></trkpt><trkpt lat="47.2583299689435" lon="-1.5801344253137521"><ele>38.666666666666664</ele><time>2026-03-31T16:20:38.706Z</time></trkpt><trkpt lat="47.258271421349846" lon="-1.580077596010249"><ele>38.5</ele><time>2026-03-31T16:20:39.706Z</time></trkpt><trkpt lat="47.258214172951185" lon="-1.5800376143321209"><ele>38.33333333333333</ele><time>2026-03-31T16:20:40.706Z</time></trkpt><trkpt lat="47.25815311078658" lon="-1.5799838863327913"><ele>38.166666666666664</ele><time>2026-03-31T16:20:41.706Z</time></trkpt><trkpt lat="47.25809380882164" lon="-1.5799287334099223"><ele>38.0</ele><time>2026-03-31T16:20:42.706Z</time></trkpt><trkpt lat="47.25799364507874" lon="-1.5798361971989086"><ele>38.0</ele><time>2026-03-31T16:20:44.706Z</time></trkpt><trkpt lat="47.25793262482365" lon="-1.579786324875038"><ele>38.0</ele><time>2026-03-31T16:20:45.706Z</time></trkpt><trkpt lat="47.25781758320262" lon="-1.5796652901932406"><ele>38.0</ele><time>2026-03-31T16:20:47.706Z</time></trkpt><trkpt lat="47.257761508270406" lon="-1.5796135738506722"><ele>38.0</ele><time>2026-03-31T16:20:48.706Z</time></trkpt><trkpt lat="47.257677856876754" lon="-1.579519109801929"><ele>38.0</ele><time>2026-03-31T16:20:49.706Z</time></trkpt><trkpt lat="47.257570149421" lon="-1.5794295910760567"><ele>38.0</ele><time>2026-03-31T16:20:51.706Z</time></trkpt><trkpt lat="47.25751420021733" lon="-1.5793789643809006"><ele>38.0</ele><time>2026-03-31T16:20:52.706Z</time></trkpt><trkpt lat="47.257449994839035" lon="-1.5793386474266455"><ele>38.0</ele><time>2026-03-31T16:20:53.706Z</time></trkpt><trkpt lat="47.25733503703704" lon="-1.579259606079738"><ele>38.0</ele><time>2026-03-31T16:20:55.706Z</time></trkpt><trkpt lat="47.25722510837694" lon="-1.5792025253191395"><ele>38.0</ele><time>2026-03-31T16:20:57.706Z</time></trkpt><trkpt lat="47.257160232446395" lon="-1.579156424851696"><ele>38.166666666666664</ele><time>2026-03-31T16:20:58.706Z</time></trkpt><trkpt lat="47.257051058157586" lon="-1.5790879447027846"><ele>38.33333333333333</ele><time>2026-03-31T16:21:00.706Z</time></trkpt><trkpt lat="47.256955755918526" lon="-1.5789866913124722"><ele>38.5</ele><time>2026-03-31T16:21:02.706Z</time></trkpt><trkpt lat="47.2568930592828" lon="-1.5789271797999542"><ele>38.666666666666664</ele><time>2026-03-31T16:21:03.706Z</time></trkpt><trkpt lat="47.256846581629716" lon="-1.5788575261845987"><ele>38.833333333333336</ele><time>2026-03-31T16:21:04.706Z</time></trkpt><trkpt lat="47.25679805041035" lon="-1.578798266129176"><ele>39.0</ele><time>2026-03-31T16:21:05.706Z</time></trkpt><trkpt lat="47.25674243648281" lon="-1.5787243377432028"><ele>39.0</ele><time>2026-03-31T16:21:06.706Z</time></trkpt><trkpt lat="47.25664005153557" lon="-1.5786202345058122"><ele>39.0</ele><time>2026-03-31T16:21:08.706Z</time></trkpt><trkpt lat="47.256579911380314" lon="-1.5785680990680853"><ele>39.0</ele><time>2026-03-31T16:21:09.706Z</time></trkpt><trkpt lat="47.25652312398633" lon="-1.5784950088724292"><ele>39.0</ele><time>2026-03-31T16:21:10.706Z</time></trkpt><trkpt lat="47.2564252652668" lon="-1.5784071665271915"><ele>39.0</ele><time>2026-03-31T16:21:12.706Z</time></trkpt><trkpt lat="47.25634236824443" lon="-1.5783508401378787"><ele>39.2</ele><time>2026-03-31T16:21:14.706Z</time></trkpt><trkpt lat="47.256236923902534" lon="-1.5782785043135084"><ele>39.4</ele><time>2026-03-31T16:21:16.706Z</time></trkpt><trkpt lat="47.25618332163175" lon="-1.5782203339054977"><ele>39.6</ele><time>2026-03-31T16:21:17.706Z</time></trkpt><trkpt lat="47.25613344930788" lon="-1.5781479142620956"><ele>39.8</ele><time>2026-03-31T16:21:18.706Z</time></trkpt><trkpt lat="47.256028591699206" lon="-1.5780623350307141"><ele>40.0</ele><time>2026-03-31T16:21:20.706Z</time></trkpt><trkpt lat="47.25592993669888" lon="-1.5779726486667784"><ele>40.0</ele><time>2026-03-31T16:21:22.706Z</time></trkpt><trkpt lat="47.25586786870589" lon="-1.5779526997372302"><ele>40.0</ele><time>2026-03-31T16:21:23.706Z</time></trkpt><trkpt lat="47.25580818955531" lon="-1.5779113769545945"><ele>40.0</ele><time>2026-03-31T16:21:24.706Z</time></trkpt><trkpt lat="47.25571732972493" lon="-1.5778271388277205"><ele>40.0</ele><time>2026-03-31T16:21:26.706Z</time></trkpt><trkpt lat="47.25566196725448" lon="-1.5777707286193758"><ele>40.0</ele><time>2026-03-31T16:21:27.706Z</time></trkpt><trkpt lat="47.25560706578871" lon="-1.577720018105188"><ele>40.0</ele><time>2026-03-31T16:21:28.706Z</time></trkpt><trkpt lat="47.255510883449816" lon="-1.5776373725399166"><ele>39.833333333333336</ele><time>2026-03-31T16:21:30.706Z</time></trkpt><trkpt lat="47.25542211909523" lon="-1.5776179265245587"><ele>39.66666666666667</ele><time>2026-03-31T16:21:32.706Z</time></trkpt><trkpt lat="47.25533239082178" lon="-1.5775834769025237"><ele>39.5</ele><time>2026-03-31T16:21:34.706Z</time></trkpt><trkpt lat="47.255266550972365" lon="-1.5775400586440949"><ele>39.333333333333336</ele><time>2026-03-31T16:21:36.706Z</time></trkpt><trkpt lat="47.25523516074499" lon="-1.5774287469699768"><ele>39.166666666666664</ele><time>2026-03-31T16:21:39.706Z</time></trkpt><trkpt lat="47.255171039185726" lon="-1.577369822190681"><ele>39.0</ele><time>2026-03-31T16:21:42.706Z</time></trkpt><trkpt lat="47.25509530869057" lon="-1.5772945527002002"><ele>39.0</ele><time>2026-03-31T16:21:44.706Z</time></trkpt><trkpt lat="47.25500407167455" lon="-1.5772404894247438"><ele>39.0</ele><time>2026-03-31T16:21:46.706Z</time></trkpt><trkpt lat="47.25489669949492" lon="-1.5771675668671514"><ele>39.0</ele><time>2026-03-31T16:21:48.706Z</time></trkpt><trkpt lat="47.25480906669726" lon="-1.577080143617072"><ele>39.0</ele><time>2026-03-31T16:21:50.706Z</time></trkpt><trkpt lat="47.25476204422047" lon="-1.5770081430688285"><ele>39.0</ele><time>2026-03-31T16:21:51.706Z</time></trkpt><trkpt lat="47.25469591100445" lon="-1.5769618749633216"><ele>38.833333333333336</ele><time>2026-03-31T16:21:52.706Z</time></trkpt><trkpt lat="47.25463702813467" lon="-1.5769159421339416"><ele>38.666666666666664</ele><time>2026-03-31T16:21:53.706Z</time></trkpt><trkpt lat="47.25458074365487" lon="-1.576866656543293"><ele>38.5</ele><time>2026-03-31T16:21:54.706Z</time></trkpt><trkpt lat="47.25452010058542" lon="-1.5768125094488046"><ele>38.33333333333333</ele><time>2026-03-31T16:21:55.706Z</time></trkpt><trkpt lat="47.25444223270495" lon="-1.5767493937179229"><ele>38.166666666666664</ele><time>2026-03-31T16:21:56.706Z</time></trkpt><trkpt lat="47.2543826373734" lon="-1.5766988508417985"><ele>38.0</ele><time>2026-03-31T16:21:57.706Z</time></trkpt><trkpt lat="47.254284778653876" lon="-1.576657192783036"><ele>38.0</ele><time>2026-03-31T16:22:00.706Z</time></trkpt><trkpt lat="47.25418742284854" lon="-1.5766217373326203"><ele>38.0</ele><time>2026-03-31T16:22:02.706Z</time></trkpt><trkpt lat="47.25407954775472" lon="-1.5765768103316207"><ele>38.0</ele><time>2026-03-31T16:22:04.706Z</time></trkpt><trkpt lat="47.254004948816494" lon="-1.5765150357052464"><ele>38.0</ele><time>2026-03-31T16:22:05.706Z</time></trkpt><trkpt lat="47.2539433837377" lon="-1.576488967986383"><ele>38.0</ele><time>2026-03-31T16:22:06.706Z</time></trkpt><trkpt lat="47.2538492968746" lon="-1.5763935819282908"><ele>37.83333333333333</ele><time>2026-03-31T16:22:08.706Z</time></trkpt><trkpt lat="47.253778008788125" lon="-1.5763748902842183"><ele>37.666666666666664</ele><time>2026-03-31T16:22:09.706Z</time></trkpt><trkpt lat="47.25371439014305" lon="-1.5763572044685261"><ele>37.5</ele><time>2026-03-31T16:22:10.706Z</time></trkpt><trkpt lat="47.253647502555744" lon="-1.5763379260912316"><ele>37.333333333333336</ele><time>2026-03-31T16:22:11.706Z</time></trkpt><trkpt lat="47.253501908897654" lon="-1.576382014901914"><ele>37.16666666666667</ele><time>2026-03-31T16:22:13.706Z</time></trkpt><trkpt lat="47.25344172683288" lon="-1.5763432905092614"><ele>37.0</ele><time>2026-03-31T16:22:14.706Z</time></trkpt><trkpt lat="47.25335677624424" lon="-1.5763173066094296"><ele>37.0</ele><time>2026-03-31T16:22:16.706Z</time></trkpt><trkpt lat="47.253264533399836" lon="-1.5762801747783797"><ele>37.0</ele><time>2026-03-31T16:22:18.706Z</time></trkpt><trkpt lat="47.25319647234608" lon="-1.5762193221613543"><ele>37.0</ele><time>2026-03-31T16:22:21.706Z</time></trkpt><trkpt lat="47.25312518425961" lon="-1.5762607287630217"><ele>37.0</ele><time>2026-03-31T16:22:24.706Z</time></trkpt><trkpt lat="47.25304760974576" lon="-1.5762838628157751"><ele>37.0</ele><time>2026-03-31T16:22:28.706Z</time></trkpt><trkpt lat="47.252987930595175" lon="-1.576248575003423"><ele>37.0</ele><time>2026-03-31T16:22:34.706Z</time></trkpt><trkpt lat="47.253015465147094" lon="-1.5761174820378199"><ele>37.0</ele><time>2026-03-31T16:22:37.706Z</time></trkpt><trkpt lat="47.2530236794122" lon="-1.5759948547944203"><ele>37.0</ele><time>2026-03-31T16:22:39.706Z</time></trkpt><trkpt lat="47.25297091533174" lon="-1.5758615825339926"><ele>37.0</ele><time>2026-03-31T16:22:41.706Z</time></trkpt><trkpt lat="47.25291827697982" lon="-1.5757009852692259"><ele>37.0</ele><time>2026-03-31T16:22:43.706Z</time></trkpt><trkpt lat="47.25288831167598" lon="-1.5756142325714002"><ele>37.0</ele><time>2026-03-31T16:22:44.706Z</time></trkpt><trkpt lat="47.25285138939251" lon="-1.5755186788752447"><ele>37.0</ele><time>2026-03-31T16:22:45.706Z</time></trkpt><trkpt lat="47.25281945434143" lon="-1.5754283219590555"><ele>37.0</ele><time>2026-03-31T16:22:46.706Z</time></trkpt><trkpt lat="47.25278060422023" lon="-1.5753062814488776"><ele>37.0</ele><time>2026-03-31T16:22:47.706Z</time></trkpt><trkpt lat="47.25272038024594" lon="-1.575130261482275"><ele>37.0</ele><time>2026-03-31T16:22:49.706Z</time></trkpt><trkpt lat="47.25268396087666" lon="-1.5750315226629144"><ele>37.0</ele><time>2026-03-31T16:22:50.706Z</time></trkpt><trkpt lat="47.25264385346998" lon="-1.5749483741834527"><ele>37.0</ele><time>2026-03-31T16:22:51.706Z</time></trkpt><trkpt lat="47.2526039975204" lon="-1.5748476237073306"><ele>37.0</ele><time>2026-03-31T16:22:52.706Z</time></trkpt><trkpt lat="47.252560872628585" lon="-1.5747488848879698"><ele>37.0</ele><time>2026-03-31T16:22:53.706Z</time></trkpt><trkpt lat="47.252523656978504" lon="-1.574649810792482"><ele>37.0</ele><time>2026-03-31T16:22:54.706Z</time></trkpt><trkpt lat="47.25248061590572" lon="-1.5745177958175303"><ele>37.0</ele><time>2026-03-31T16:22:55.706Z</time></trkpt><trkpt lat="47.25243598227133" lon="-1.5744188055410742"><ele>37.0</ele><time>2026-03-31T16:22:56.706Z</time></trkpt><trkpt lat="47.252393444112734" lon="-1.5743192285313963"><ele>37.0</ele><time>2026-03-31T16:22:57.706Z</time></trkpt><trkpt lat="47.25234130867501" lon="-1.5742000378682968"><ele>37.0</ele><time>2026-03-31T16:22:58.706Z</time></trkpt><trkpt lat="47.25230585322459" lon="-1.5741013828679677"><ele>37.0</ele><time>2026-03-31T16:22:59.706Z</time></trkpt><trkpt lat="47.25226163868536" lon="-1.5739785041674728"><ele>37.0</ele><time>2026-03-31T16:23:00.706Z</time></trkpt><trkpt lat="47.252194625369505" lon="-1.573840035127079"><ele>37.0</ele><time>2026-03-31T16:23:02.706Z</time></trkpt><trkpt lat="47.25216227122326" lon="-1.5737470798209066"><ele>37.0</ele><time>2026-03-31T16:23:03.706Z</time></trkpt><trkpt lat="47.252127444415585" lon="-1.5736505202963702"><ele>37.0</ele><time>2026-03-31T16:23:04.706Z</time></trkpt><trkpt lat="47.25207933229138" lon="-1.5735145658269278"><ele>37.16666666666667</ele><time>2026-03-31T16:23:05.706Z</time></trkpt><trkpt lat="47.252044086388544" lon="-1.5734294895097365"><ele>37.333333333333336</ele><time>2026-03-31T16:23:06.706Z</time></trkpt><trkpt lat="47.252008295662" lon="-1.5733344387277712"><ele>37.5</ele><time>2026-03-31T16:23:07.706Z</time></trkpt><trkpt lat="47.25195800424297" lon="-1.573237543927108"><ele>37.666666666666664</ele><time>2026-03-31T16:23:08.706Z</time></trkpt><trkpt lat="47.25191534035583" lon="-1.5731248073294508"><ele>37.83333333333333</ele><time>2026-03-31T16:23:09.706Z</time></trkpt><trkpt lat="47.25186299537052" lon="-1.5729528944954023"><ele>38.0</ele><time>2026-03-31T16:23:11.706Z</time></trkpt><trkpt lat="47.251819158016936" lon="-1.5728621184840545"><ele>37.83333333333333</ele><time>2026-03-31T16:23:12.706Z</time></trkpt><trkpt lat="47.25177276418288" lon="-1.5727757848813875"><ele>37.666666666666664</ele><time>2026-03-31T16:23:13.706Z</time></trkpt><trkpt lat="47.251729723110095" lon="-1.5726965758964164"><ele>37.5</ele><time>2026-03-31T16:23:14.706Z</time></trkpt><trkpt lat="47.25168018606235" lon="-1.5725878626122816"><ele>37.333333333333336</ele><time>2026-03-31T16:23:15.706Z</time></trkpt><trkpt lat="47.251635217151836" lon="-1.5724905487164598"><ele>37.16666666666667</ele><time>2026-03-31T16:23:17Z</time></trkpt><trkpt lat="47.251598797782556" lon="-1.5723665803685527"><ele>37.0</ele><time>2026-03-31T16:23:18Z</time></trkpt><trkpt lat="47.25156485107471" lon="-1.5722742117956021"><ele>37.0</ele><time>2026-03-31T16:23:19Z</time></trkpt><trkpt lat="47.251492682888404" lon="-1.5721316356226542"><ele>37.0</ele><time>2026-03-31T16:23:21Z</time></trkpt><trkpt lat="47.25145358131011" lon="-1.5720437932774163"><ele>37.0</ele><time>2026-03-31T16:23:22Z</time></trkpt><trkpt lat="47.25141468927939" lon="-1.571950502695117"><ele>37.0</ele><time>2026-03-31T16:23:23Z</time></trkpt><trkpt lat="47.25134914279659" lon="-1.57182116992918"><ele>37.0</ele><time>2026-03-31T16:23:25Z</time></trkpt><trkpt lat="47.2512994800203" lon="-1.5716583933695887"><ele>37.0</ele><time>2026-03-31T16:23:26Z</time></trkpt><trkpt lat="47.251264108388916" lon="-1.571574909614"><ele>37.0</ele><time>2026-03-31T16:23:27Z</time></trkpt><trkpt lat="47.251226473643676" lon="-1.571497125552568"><ele>37.0</ele><time>2026-03-31T16:23:28Z</time></trkpt><trkpt lat="47.25118573759426" lon="-1.5714106243118378"><ele>37.0</ele><time>2026-03-31T16:23:29Z</time></trkpt><trkpt lat="47.2511485638537" lon="-1.5713124722256988"><ele>37.0</ele><time>2026-03-31T16:23:30Z</time></trkpt><trkpt lat="47.25111365322699" lon="-1.5712206065669387"><ele>37.0</ele><time>2026-03-31T16:23:31Z</time></trkpt><trkpt lat="47.251076228029326" lon="-1.5711434930577606"><ele>37.0</ele><time>2026-03-31T16:23:32Z</time></trkpt><trkpt lat="47.251001587181584" lon="-1.570991361515197"><ele>37.0</ele><time>2026-03-31T16:23:34Z</time></trkpt><trkpt lat="47.250959384299115" lon="-1.570904776455435"><ele>37.0</ele><time>2026-03-31T16:23:35Z</time></trkpt><trkpt lat="47.250871961049036" lon="-1.5706530679031934"><ele>37.0</ele><time>2026-03-31T16:23:37Z</time></trkpt><trkpt lat="47.25083051253785" lon="-1.5705726016327464"><ele>37.0</ele><time>2026-03-31T16:23:38Z</time></trkpt><trkpt lat="47.25079308734019" lon="-1.5704820770784937"><ele>37.0</ele><time>2026-03-31T16:23:39Z</time></trkpt><trkpt lat="47.250729217238025" lon="-1.5703692566618046"><ele>36.800000000000004</ele><time>2026-03-31T16:23:41Z</time></trkpt><trkpt lat="47.250683284408645" lon="-1.570305805654796"><ele>36.6</ele><time>2026-03-31T16:23:45Z</time></trkpt><trkpt lat="47.25063282535155" lon="-1.5701691806330997"><ele>36.400000000000006</ele><time>2026-03-31T16:23:47Z</time></trkpt><trkpt lat="47.25060340487142" lon="-1.5700829308494646"><ele>36.2</ele><time>2026-03-31T16:23:48Z</time></trkpt><trkpt lat="47.250535679093794" lon="-1.569915460424097"><ele>36.0</ele><time>2026-03-31T16:23:50Z</time></trkpt><trkpt lat="47.25048111290415" lon="-1.5697686932995634"><ele>35.8</ele><time>2026-03-31T16:23:52Z</time></trkpt><trkpt lat="47.25040881898929" lon="-1.5695975348368003"><ele>35.6</ele><time>2026-03-31T16:23:54Z</time></trkpt><trkpt lat="47.25036556836893" lon="-1.5694831218585088"><ele>35.4</ele><time>2026-03-31T16:23:55Z</time></trkpt><trkpt lat="47.25032625724305" lon="-1.5693921782090974"><ele>35.2</ele><time>2026-03-31T16:23:56Z</time></trkpt><trkpt lat="47.25028074350883" lon="-1.569277429954679"><ele>35.0</ele><time>2026-03-31T16:23:57Z</time></trkpt><trkpt lat="47.250241055197314" lon="-1.569189922885568"><ele>35.0</ele><time>2026-03-31T16:23:58Z</time></trkpt><trkpt lat="47.25019072186877" lon="-1.5690874960288117"><ele>35.0</ele><time>2026-03-31T16:23:59Z</time></trkpt><trkpt lat="47.25013649095525" lon="-1.5690080355867455"><ele>35.0</ele><time>2026-03-31T16:24:00Z</time></trkpt><trkpt lat="47.25005858116527" lon="-1.5688788704588719"><ele>35.0</ele><time>2026-03-31T16:24:01Z</time></trkpt><trkpt lat="47.24997865971853" lon="-1.5687805507346697"><ele>35.0</ele><time>2026-03-31T16:24:02Z</time></trkpt><trkpt lat="47.24986789286812" lon="-1.5687861666097946"><ele>35.0</ele><time>2026-03-31T16:24:04Z</time></trkpt><trkpt lat="47.249793754934565" lon="-1.5687198657557075"><ele>35.0</ele><time>2026-03-31T16:24:05Z</time></trkpt><trkpt lat="47.24971601278265" lon="-1.5686590131386822"><ele>35.0</ele><time>2026-03-31T16:24:06Z</time></trkpt><trkpt lat="47.24963638470252" lon="-1.5686124097570484"><ele>35.0</ele><time>2026-03-31T16:24:07Z</time></trkpt><trkpt lat="47.249553068584994" lon="-1.5685834921911066"><ele>35.0</ele><time>2026-03-31T16:24:08Z</time></trkpt><trkpt lat="47.24947017156263" lon="-1.568555664272577"><ele>35.0</ele><time>2026-03-31T16:24:09Z</time></trkpt><trkpt lat="47.24938371223141" lon="-1.5685267467066353"><ele>35.2</ele><time>2026-03-31T16:24:10Z</time></trkpt><trkpt lat="47.249299935109214" lon="-1.5684948954745832"><ele>35.4</ele><time>2026-03-31T16:24:11Z</time></trkpt><trkpt lat="47.2492124280401" lon="-1.568473773078591"><ele>35.6</ele><time>2026-03-31T16:24:12Z</time></trkpt><trkpt lat="47.2491125157543" lon="-1.5684612002238336"><ele>35.8</ele><time>2026-03-31T16:24:13Z</time></trkpt><trkpt lat="47.24903468978335" lon="-1.5684040356442037"><ele>36.0</ele><time>2026-03-31T16:24:14Z</time></trkpt><trkpt lat="47.24894219548185" lon="-1.5683764591827694"><ele>35.2</ele><time>2026-03-31T16:24:15Z</time></trkpt><trkpt lat="47.24884224128653" lon="-1.5683153551086488"><ele>34.400000000000006</ele><time>2026-03-31T16:24:16Z</time></trkpt><trkpt lat="47.2487610206448" lon="-1.568309403957397"><ele>33.6</ele><time>2026-03-31T16:24:17Z</time></trkpt><trkpt lat="47.24868705034931" lon="-1.5683334600194994"><ele>32.800000000000004</ele><time>2026-03-31T16:24:18Z</time></trkpt><trkpt lat="47.24860088438471" lon="-1.568310577423841"><ele>32.0</ele><time>2026-03-31T16:24:19Z</time></trkpt><trkpt lat="47.24850788716902" lon="-1.568251652644545"><ele>32.0</ele><time>2026-03-31T16:24:20Z</time></trkpt><trkpt lat="47.24842012864281" lon="-1.5682285185917915"><ele>32.0</ele><time>2026-03-31T16:24:21Z</time></trkpt><trkpt lat="47.248323485299245" lon="-1.5682297758772672"><ele>32.0</ele><time>2026-03-31T16:24:22Z</time></trkpt><trkpt lat="47.24823145200242" lon="-1.568199517206818"><ele>32.0</ele><time>2026-03-31T16:24:23Z</time></trkpt><trkpt lat="47.2481351858445" lon="-1.5681680850699247"><ele>32.0</ele><time>2026-03-31T16:24:24Z</time></trkpt><trkpt lat="47.248029867231146" lon="-1.568142687903315"><ele>31.666666666666664</ele><time>2026-03-31T16:24:25Z</time></trkpt><trkpt lat="47.24794906568457" lon="-1.5681221522405446"><ele>31.333333333333332</ele><time>2026-03-31T16:24:26Z</time></trkpt><trkpt lat="47.24786574956705" lon="-1.5680951625123323"><ele>31.0</ele><time>2026-03-31T16:24:27Z</time></trkpt><trkpt lat="47.2477828944542" lon="-1.5680492296829522"><ele>30.666666666666664</ele><time>2026-03-31T16:24:28Z</time></trkpt><trkpt lat="47.24770381119777" lon="-1.5679794922485648"><ele>30.333333333333332</ele><time>2026-03-31T16:24:29Z</time></trkpt><trkpt lat="47.24762678150763" lon="-1.567925261335045"><ele>30.0</ele><time>2026-03-31T16:24:30Z</time></trkpt><trkpt lat="47.24755595442583" lon="-1.5678732097163497"><ele>29.6</ele><time>2026-03-31T16:24:31Z</time></trkpt><trkpt lat="47.24748387005855" lon="-1.5678049810245334"><ele>29.2</ele><time>2026-03-31T16:24:32Z</time></trkpt><trkpt lat="47.247364553666905" lon="-1.5676815155908164"><ele>28.799999999999997</ele><time>2026-03-31T16:24:34Z</time></trkpt><trkpt lat="47.247286643876926" lon="-1.5676199086025056"><ele>28.4</ele><time>2026-03-31T16:24:35Z</time></trkpt><trkpt lat="47.24717088979413" lon="-1.567686041818529"><ele>28.0</ele><time>2026-03-31T16:24:37Z</time></trkpt><trkpt lat="47.24712868691166" lon="-1.5677659213557538"><ele>28.000000000000004</ele><time>2026-03-31T16:24:38Z</time></trkpt><trkpt lat="47.24707110323687" lon="-1.5678379219039975"><ele>28.0</ele><time>2026-03-31T16:24:39Z</time></trkpt><trkpt lat="47.24705044184555" lon="-1.5679419413223563"><ele>28.0</ele><time>2026-03-31T16:24:40Z</time></trkpt><trkpt lat="47.247036444067255" lon="-1.5680524986251891"><ele>28.0</ele><time>2026-03-31T16:24:41Z</time></trkpt><trkpt lat="47.247024206488625" lon="-1.5681468788549007"><ele>28.000000000000004</ele><time>2026-03-31T16:24:42Z</time></trkpt><trkpt lat="47.247000443793134" lon="-1.5683365613236728"><ele>28.0</ele><time>2026-03-31T16:24:44Z</time></trkpt><trkpt lat="47.246997384398476" lon="-1.5685077197864359"><ele>28.000000000000004</ele><time>2026-03-31T16:24:46Z</time></trkpt><trkpt lat="47.24697378934105" lon="-1.5686630364522045"><ele>28.0</ele><time>2026-03-31T16:24:48Z</time></trkpt><trkpt lat="47.24696641326626" lon="-1.5687996614739008"><ele>28.0</ele><time>2026-03-31T16:24:50Z</time></trkpt><trkpt lat="47.246910715519675" lon="-1.5688722487553663"><ele>28.0</ele><time>2026-03-31T16:24:53Z</time></trkpt><trkpt lat="47.246834440200814" lon="-1.5688702370986052"><ele>28.000000000000004</ele><time>2026-03-31T16:24:56Z</time></trkpt><trkpt lat="47.24676629532803" lon="-1.568828159944684"><ele>28.0</ele><time>2026-03-31T16:24:58Z</time></trkpt><trkpt lat="47.246675393588134" lon="-1.5688463486745663"><ele>29.0</ele><time>2026-03-31T16:25:01Z</time></trkpt><trkpt lat="47.24661169112403" lon="-1.5688379667713948"><ele>29.0</ele><time>2026-03-31T16:25:03Z</time></trkpt><trkpt lat="47.246539313390144" lon="-1.5687808860107966"><ele>29.0</ele><time>2026-03-31T16:25:06Z</time></trkpt><trkpt lat="47.2465243936025" lon="-1.5688802115633793"><ele>29.0</ele><time>2026-03-31T16:25:16Z</time></trkpt><trkpt lat="47.24651869390834" lon="-1.5687841549530335"><ele>29.0</ele><time>2026-03-31T16:25:31Z</time></trkpt></trkseg></trk></gpx>